Wetterdaten: Donnerstag, 12.11.2015
Datum Zeit Temp. A. Feuchte A. Luftdruck Regen Wind Richtung Richtung Sonnenschein ET UV Solar Taupunkt Windchill Windben Empfang
12.11.2015 00:00 7,6 C 92 % 1024,9 hPa 0,0 l/m 1,8 km/h (1 Bft) S 189 0 min 0,000 mm 0,0 UV-I 0 W/m 6,4 C 7,6 C 3,2 km/h (1 Bft) 100,00 %
12.11.2015 00:02 7,6 C 92 % 1024,9 hPa 0,0 l/m 3,1 km/h (1 Bft) S 191 0 min 0,000 mm 0,0 UV-I 0 W/m 6,4 C 7,6 C 4,8 km/h (1 Bft) 100,00 %
12.11.2015 00:03 7,7 C 92 % 1024,9 hPa 0,0 l/m 3,3 km/h (1 Bft) S-SW 205 0 min 0,000 mm 0,0 UV-I 0 W/m 6,5 C 7,7 C 4,8 km/h (1 Bft) 100,00 %
12.11.2015 00:04 7,7 C 92 % 1024,9 hPa 0,0 l/m 2,3 km/h (1 Bft) S 188 0 min 0,000 mm 0,0 UV-I 0 W/m 6,5 C 7,7 C 3,2 km/h (1 Bft) 100,00 %
12.11.2015 00:05 7,7 C 92 % 1024,9 hPa 0,0 l/m 2,1 km/h (1 Bft) S 188 0 min 0,000 mm 0,0 UV-I 0 W/m 6,5 C 7,7 C 3,2 km/h (1 Bft) 100,00 %
12.11.2015 00:06 7,6 C 92 % 1024,9 hPa 0,0 l/m 2,1 km/h (1 Bft) S 188 0 min 0,000 mm 0,0 UV-I 0 W/m 6,4 C 7,6 C 3,2 km/h (1 Bft) 100,00 %
12.11.2015 00:07 7,6 C 92 % 1024,9 hPa 0,0 l/m 2,1 km/h (1 Bft) S-SW 196 0 min 0,000 mm 0,0 UV-I 0 W/m 6,4 C 7,6 C 3,2 km/h (1 Bft) 100,00 %
12.11.2015 00:08 7,6 C 92 % 1024,9 hPa 0,0 l/m 3,4 km/h (1 Bft) S-SW 200 0 min 0,000 mm 0,0 UV-I 0 W/m 6,4 C 7,6 C 4,8 km/h (1 Bft) 100,00 %
12.11.2015 00:09 7,5 C 91 % 1024,9 hPa 0,0 l/m 2,0 km/h (1 Bft) S-SW 200 0 min 0,000 mm 0,0 UV-I 0 W/m 6,1 C 7,5 C 3,2 km/h (1 Bft) 100,00 %
12.11.2015 00:10 7,4 C 91 % 1024,9 hPa 0,0 l/m 2,5 km/h (1 Bft) S-SW 209 0 min 0,000 mm 0,0 UV-I 0 W/m 6,0 C 7,4 C 3,2 km/h (1 Bft) 100,00 %
12.11.2015 00:11 7,4 C 91 % 1024,9 hPa 0,0 l/m 2,8 km/h (1 Bft) SW 223 0 min 0,000 mm 0,0 UV-I 0 W/m 6,0 C 7,4 C 4,8 km/h (1 Bft) 100,00 %
12.11.2015 00:12 7,3 C 92 % 1024,9 hPa 0,0 l/m 2,5 km/h (1 Bft) SW 219 0 min 0,000 mm 0,0 UV-I 0 W/m 6,1 C 7,3 C 3,2 km/h (1 Bft) 100,00 %
12.11.2015 00:13 7,3 C 91 % 1024,9 hPa 0,0 l/m 1,8 km/h (1 Bft) SW 219 0 min 0,000 mm 0,0 UV-I 0 W/m 5,9 C 7,3 C 3,2 km/h (1 Bft) 100,00 %
12.11.2015 00:14 7,2 C 92 % 1024,9 hPa 0,0 l/m 1,7 km/h (1 Bft) SW 219 0 min 0,000 mm 0,0 UV-I 0 W/m 6,0 C 7,2 C 3,2 km/h (1 Bft) 91,30 %
12.11.2015 00:15 7,2 C 92 % 1024,9 hPa 0,0 l/m 1,7 km/h (1 Bft) SW 219 0 min 0,000 mm 0,0 UV-I 0 W/m 6,0 C 7,2 C 3,2 km/h (1 Bft) 100,00 %
12.11.2015 00:16 7,2 C 92 % 1024,9 hPa 0,0 l/m 1,7 km/h (1 Bft) SW 219 0 min 0,000 mm 0,0 UV-I 0 W/m 6,0 C 7,2 C 3,2 km/h (1 Bft) 100,00 %
12.11.2015 00:17 7,1 C 92 % 1024,9 hPa 0,0 l/m 1,1 km/h (1 Bft) SW 219 0 min 0,000 mm 0,0 UV-I 0 W/m 5,9 C 7,1 C 1,6 km/h (1 Bft) 100,00 %
12.11.2015 00:18 7,0 C 92 % 1024,9 hPa 0,0 l/m 1,0 km/h (0 Bft) SW 219 0 min 0,000 mm 0,0 UV-I 0 W/m 5,8 C 7,0 C 1,6 km/h (1 Bft) 100,00 %
12.11.2015 00:19 6,9 C 92 % 1024,9 hPa 0,0 l/m 2,1 km/h (1 Bft) SW 219 0 min 0,000 mm 0,0 UV-I 0 W/m 5,7 C 6,9 C 3,2 km/h (1 Bft) 100,00 %
12.11.2015 00:20 6,9 C 92 % 1025,0 hPa 0,0 l/m 1,9 km/h (1 Bft) SW 219 0 min 0,000 mm 0,0 UV-I 0 W/m 5,7 C 6,9 C 3,2 km/h (1 Bft) 100,00 %
12.11.2015 00:21 6,9 C 92 % 1024,9 hPa 0,0 l/m 1,5 km/h (1 Bft) SW 219 0 min 0,000 mm 0,0 UV-I 0 W/m 5,7 C 6,9 C 3,2 km/h (1 Bft) 95,65 %
12.11.2015 00:22 6,9 C 92 % 1024,9 hPa 0,0 l/m 2,0 km/h (1 Bft) S-SW 209 0 min 0,000 mm 0,0 UV-I 0 W/m 5,7 C 6,9 C 3,2 km/h (1 Bft) 100,00 %
12.11.2015 00:23 6,9 C 92 % 1025,0 hPa 0,0 l/m 1,3 km/h (1 Bft) S-SW 209 0 min 0,000 mm 0,0 UV-I 0 W/m 5,7 C 6,9 C 1,6 km/h (1 Bft) 100,00 %
12.11.2015 00:24 6,8 C 92 % 1025,0 hPa 0,0 l/m 1,4 km/h (1 Bft) S-SW 209 0 min 0,000 mm 0,0 UV-I 0 W/m 5,6 C 6,8 C 3,2 km/h (1 Bft) 100,00 %
12.11.2015 00:25 6,8 C 92 % 1025,0 hPa 0,0 l/m 1,3 km/h (1 Bft) S-SW 205 0 min 0,000 mm 0,0 UV-I 0 W/m 5,6 C 6,8 C 3,2 km/h (1 Bft) 100,00 %
12.11.2015 00:26 6,8 C 93 % 1025,0 hPa 0,0 l/m 1,0 km/h (0 Bft) S-SW 205 0 min 0,000 mm 0,0 UV-I 0 W/m 5,7 C 6,8 C 1,6 km/h (1 Bft) 100,00 %
12.11.2015 00:27 6,8 C 93 % 1024,9 hPa 0,0 l/m 2,0 km/h (1 Bft) S-SW 205 0 min 0,000 mm 0,0 UV-I 0 W/m 5,7 C 6,8 C 3,2 km/h (1 Bft) 100,00 %
12.11.2015 00:28 6,9 C 92 % 1024,9 hPa 0,0 l/m 0,9 km/h (0 Bft) S-SW 205 0 min 0,000 mm 0,0 UV-I 0 W/m 5,7 C 6,9 C 1,6 km/h (1 Bft) 100,00 %
12.11.2015 00:29 6,9 C 93 % 1024,9 hPa 0,0 l/m 1,4 km/h (1 Bft) S 188 0 min 0,000 mm 0,0 UV-I 0 W/m 5,8 C 6,9 C 3,2 km/h (1 Bft) 100,00 %
12.11.2015 00:30 6,9 C 92 % 1025,0 hPa 0,0 l/m 1,2 km/h (1 Bft) S 188 0 min 0,000 mm 0,0 UV-I 0 W/m 5,7 C 6,9 C 1,6 km/h (1 Bft) 100,00 %
12.11.2015 00:31 7,0 C 92 % 1024,9 hPa 0,0 l/m 1,4 km/h (1 Bft) S 188 0 min 0,000 mm 0,0 UV-I 0 W/m 5,8 C 7,0 C 1,6 km/h (1 Bft) 96,55 %
12.11.2015 00:32 7,0 C 92 % 1024,9 hPa 0,0 l/m 0,7 km/h (0 Bft) S 188 0 min 0,000 mm 0,0 UV-I 0 W/m 5,8 C 7,0 C 3,2 km/h (1 Bft) 100,00 %
12.11.2015 00:33 7,1 C 92 % 1025,0 hPa 0,0 l/m 0,4 km/h (0 Bft) S 188 0 min 0,000 mm 0,0 UV-I 0 W/m 5,9 C 7,1 C 1,6 km/h (1 Bft) 96,15 %
12.11.2015 00:34 7,0 C 92 % 1025,0 hPa 0,0 l/m 0,3 km/h (0 Bft) S 188 0 min 0,000 mm 0,0 UV-I 0 W/m 5,8 C 7,0 C 1,6 km/h (1 Bft) 100,00 %
12.11.2015 00:35 6,9 C 92 % 1025,0 hPa 0,0 l/m 0,1 km/h (0 Bft) S 188 0 min 0,000 mm 0,0 UV-I 0 W/m 5,7 C 6,9 C 1,6 km/h (1 Bft) 99,37 %
12.11.2015 00:36 6,9 C 92 % 1025,0 hPa 0,0 l/m 0,0 km/h (0 Bft) S 188 0 min 0,000 mm 0,0 UV-I 0 W/m 5,7 C 6,9 C 0,0 km/h (0 Bft) 100,00 %
12.11.2015 00:37 6,9 C 92 % 1024,9 hPa 0,0 l/m 0,2 km/h (0 Bft) S 188 0 min 0,000 mm 0,0 UV-I 0 W/m 5,7 C 6,9 C 1,6 km/h (1 Bft) 88,46 %
12.11.2015 00:38 6,9 C 92 % 1024,9 hPa 0,0 l/m 0,1 km/h (0 Bft) S 188 0 min 0,000 mm 0,0 UV-I 0 W/m 5,7 C 6,9 C 1,6 km/h (1 Bft) 100,00 %
12.11.2015 00:39 6,9 C 92 % 1024,9 hPa 0,0 l/m 0,1 km/h (0 Bft) S 188 0 min 0,000 mm 0,0 UV-I 0 W/m 5,7 C 6,9 C 1,6 km/h (1 Bft) 100,00 %
12.11.2015 00:40 6,9 C 92 % 1024,9 hPa 0,0 l/m 0,1 km/h (0 Bft) S 188 0 min 0,000 mm 0,0 UV-I 0 W/m 5,7 C 6,9 C 1,6 km/h (1 Bft) 100,00 %
12.11.2015 00:41 6,9 C 92 % 1025,0 hPa 0,0 l/m 0,0 km/h (0 Bft) S 188 0 min 0,000 mm 0,0 UV-I 0 W/m 5,7 C 6,9 C 0,0 km/h (0 Bft) 100,00 %
12.11.2015 00:42 6,9 C 92 % 1024,9 hPa 0,0 l/m 0,0 km/h (0 Bft) S 188 0 min 0,000 mm 0,0 UV-I 0 W/m 5,7 C 6,9 C 0,0 km/h (0 Bft) 100,00 %
12.11.2015 00:43 6,9 C 92 % 1024,9 hPa 0,0 l/m 0,0 km/h (0 Bft) S 188 0 min 0,000 mm 0,0 UV-I 0 W/m 5,7 C 6,9 C 0,0 km/h (0 Bft) 100,00 %
12.11.2015 00:44 6,8 C 92 % 1025,0 hPa 0,0 l/m 0,0 km/h (0 Bft) S 188 0 min 0,000 mm 0,0 UV-I 0 W/m 5,6 C 6,8 C 0,0 km/h (0 Bft) 100,00 %
12.11.2015 00:45 6,8 C 92 % 1025,0 hPa 0,0 l/m 0,1 km/h (0 Bft) S 188 0 min 0,000 mm 0,0 UV-I 0 W/m 5,6 C 6,8 C 1,6 km/h (1 Bft) 100,00 %
12.11.2015 00:46 6,8 C 93 % 1024,9 hPa 0,0 l/m 0,0 km/h (0 Bft) S 188 0 min 0,000 mm 0,0 UV-I 0 W/m 5,7 C 6,8 C 0,0 km/h (0 Bft) 100,00 %
12.11.2015 00:47 6,8 C 92 % 1024,9 hPa 0,0 l/m 0,9 km/h (0 Bft) S 188 0 min 0,000 mm 0,0 UV-I 0 W/m 5,6 C 6,8 C 1,6 km/h (1 Bft) 95,83 %
12.11.2015 00:48 6,8 C 92 % 1024,9 hPa 0,0 l/m 1,0 km/h (0 Bft) S 188 0 min 0,000 mm 0,0 UV-I 0 W/m 5,6 C 6,8 C 1,6 km/h (1 Bft) 100,00 %
12.11.2015 00:49 6,8 C 93 % 1024,9 hPa 0,0 l/m 1,0 km/h (0 Bft) S 188 0 min 0,000 mm 0,0 UV-I 0 W/m 5,7 C 6,8 C 3,2 km/h (1 Bft) 100,00 %
12.11.2015 00:50 6,8 C 93 % 1024,8 hPa 0,0 l/m 1,6 km/h (1 Bft) S 188 0 min 0,000 mm 0,0 UV-I 0 W/m 5,7 C 6,8 C 1,6 km/h (1 Bft) 100,00 %
12.11.2015 00:51 6,9 C 92 % 1024,8 hPa 0,0 l/m 1,5 km/h (1 Bft) S 188 0 min 0,000 mm 0,0 UV-I 0 W/m 5,7 C 6,9 C 3,2 km/h (1 Bft) 100,00 %
12.11.2015 00:52 6,9 C 92 % 1024,8 hPa 0,0 l/m 2,0 km/h (1 Bft) S 188 0 min 0,000 mm 0,0 UV-I 0 W/m 5,7 C 6,9 C 3,2 km/h (1 Bft) 100,00 %
12.11.2015 00:53 6,9 C 92 % 1024,9 hPa 0,0 l/m 1,6 km/h (1 Bft) S 188 0 min 0,000 mm 0,0 UV-I 0 W/m 5,7 C 6,9 C 3,2 km/h (1 Bft) 100,00 %
12.11.2015 00:54 6,9 C 92 % 1024,8 hPa 0,0 l/m 1,5 km/h (1 Bft) S 188 0 min 0,000 mm 0,0 UV-I 0 W/m 5,7 C 6,9 C 1,6 km/h (1 Bft) 99,27 %
12.11.2015 00:55 6,8 C 92 % 1024,8 hPa 0,0 l/m 0,7 km/h (0 Bft) S 188 0 min 0,000 mm 0,0 UV-I 0 W/m 5,6 C 6,8 C 1,6 km/h (1 Bft) 97,37 %
12.11.2015 00:56 6,8 C 92 % 1024,9 hPa 0,0 l/m 0,3 km/h (0 Bft) S 188 0 min 0,000 mm 0,0 UV-I 0 W/m 5,6 C 6,8 C 1,6 km/h (1 Bft) 100,00 %
12.11.2015 00:57 6,8 C 92 % 1024,9 hPa 0,0 l/m 0,4 km/h (0 Bft) S 188 0 min 0,000 mm 0,0 UV-I 0 W/m 5,6 C 6,8 C 1,6 km/h (1 Bft) 100,00 %
12.11.2015 00:58 6,7 C 92 % 1024,9 hPa 0,0 l/m 0,0 km/h (0 Bft) S 188 0 min 0,000 mm 0,0 UV-I 0 W/m 5,5 C 6,7 C 0,0 km/h (0 Bft) 100,00 %
12.11.2015 00:59 6,7 C 92 % 1024,9 hPa 0,0 l/m 0,1 km/h (0 Bft) S 188 0 min 0,000 mm 0,0 UV-I 0 W/m 5,5 C 6,7 C 1,6 km/h (1 Bft) 100,00 %
12.11.2015 01:00 6,6 C 92 % 1024,9 hPa 0,0 l/m 1,2 km/h (1 Bft) S-SW 192 0 min 0,000 mm 0,0 UV-I 0 W/m 5,4 C 6,6 C 1,6 km/h (1 Bft) 100,00 %
12.11.2015 01:01 6,6 C 92 % 1024,9 hPa 0,0 l/m 0,6 km/h (0 Bft) S-SW 192 0 min 0,000 mm 0,0 UV-I 0 W/m 5,4 C 6,6 C 1,6 km/h (1 Bft) 100,00 %
12.11.2015 01:02 6,5 C 93 % 1024,9 hPa 0,0 l/m 0,2 km/h (0 Bft) S-SW 192 0 min 0,000 mm 0,0 UV-I 0 W/m 5,5 C 6,5 C 1,6 km/h (1 Bft) 100,00 %
12.11.2015 01:03 6,4 C 93 % 1024,9 hPa 0,0 l/m 0,0 km/h (0 Bft) S-SW 192 0 min 0,000 mm 0,0 UV-I 0 W/m 5,4 C 6,4 C 0,0 km/h (0 Bft) 100,00 %
12.11.2015 01:04 6,4 C 93 % 1024,9 hPa 0,0 l/m 0,0 km/h (0 Bft) S-SW 192 0 min 0,000 mm 0,0 UV-I 0 W/m 5,4 C 6,4 C 0,0 km/h (0 Bft) 100,00 %
12.11.2015 01:05 6,3 C 93 % 1024,9 hPa 0,0 l/m 0,5 km/h (0 Bft) S-SW 192 0 min 0,000 mm 0,0 UV-I 0 W/m 5,3 C 6,3 C 1,6 km/h (1 Bft) 95,65 %
12.11.2015 01:06 6,3 C 93 % 1024,9 hPa 0,0 l/m 0,0 km/h (0 Bft) S-SW 192 0 min 0,000 mm 0,0 UV-I 0 W/m 5,3 C 6,3 C 0,0 km/h (0 Bft) 100,00 %
12.11.2015 01:07 6,2 C 93 % 1024,9 hPa 0,0 l/m 0,0 km/h (0 Bft) S-SW 192 0 min 0,000 mm 0,0 UV-I 0 W/m 5,2 C 6,2 C 0,0 km/h (0 Bft) 95,65 %
12.11.2015 01:08 6,2 C 94 % 1024,9 hPa 0,0 l/m 0,8 km/h (0 Bft) S-SW 192 0 min 0,000 mm 0,0 UV-I 0 W/m 5,3 C 6,2 C 1,6 km/h (1 Bft) 100,00 %
12.11.2015 01:09 6,2 C 94 % 1024,9 hPa 0,0 l/m 1,4 km/h (1 Bft) S-SW 192 0 min 0,000 mm 0,0 UV-I 0 W/m 5,3 C 6,2 C 1,6 km/h (1 Bft) 100,00 %
12.11.2015 01:10 6,3 C 94 % 1024,9 hPa 0,0 l/m 1,3 km/h (1 Bft) S-SW 192 0 min 0,000 mm 0,0 UV-I 0 W/m 5,4 C 6,3 C 3,2 km/h (1 Bft) 100,00 %
12.11.2015 01:11 6,3 C 94 % 1024,9 hPa 0,0 l/m 1,1 km/h (1 Bft) S-SW 192 0 min 0,000 mm 0,0 UV-I 0 W/m 5,4 C 6,3 C 1,6 km/h (1 Bft) 100,00 %
12.11.2015 01:12 6,2 C 93 % 1024,9 hPa 0,0 l/m 0,4 km/h (0 Bft) S-SW 192 0 min 0,000 mm 0,0 UV-I 0 W/m 5,2 C 6,2 C 1,6 km/h (1 Bft) 100,00 %
12.11.2015 01:13 6,2 C 93 % 1024,9 hPa 0,0 l/m 0,1 km/h (0 Bft) S-SW 192 0 min 0,000 mm 0,0 UV-I 0 W/m 5,2 C 6,2 C 1,6 km/h (1 Bft) 100,00 %
12.11.2015 01:14 6,2 C 93 % 1024,9 hPa 0,0 l/m 0,0 km/h (0 Bft) S-SW 192 0 min 0,000 mm 0,0 UV-I 0 W/m 5,2 C 6,2 C 0,0 km/h (0 Bft) 100,00 %
12.11.2015 01:15 6,2 C 94 % 1024,9 hPa 0,0 l/m 0,0 km/h (0 Bft) S-SW 192 0 min 0,000 mm 0,0 UV-I 0 W/m 5,3 C 6,2 C 0,0 km/h (0 Bft) 100,00 %
12.11.2015 01:16 6,2 C 94 % 1024,9 hPa 0,0 l/m 0,0 km/h (0 Bft) S-SW 192 0 min 0,000 mm 0,0 UV-I 0 W/m 5,3 C 6,2 C 0,0 km/h (0 Bft) 100,00 %
12.11.2015 01:17 6,2 C 94 % 1024,9 hPa 0,0 l/m 0,4 km/h (0 Bft) S-SW 192 0 min 0,000 mm 0,0 UV-I 0 W/m 5,3 C 6,2 C 1,6 km/h (1 Bft) 100,00 %
12.11.2015 01:18 6,3 C 94 % 1024,9 hPa 0,0 l/m 1,8 km/h (1 Bft) S 191 0 min 0,000 mm 0,0 UV-I 0 W/m 5,4 C 6,3 C 3,2 km/h (1 Bft) 100,00 %
12.11.2015 01:19 6,3 C 94 % 1024,9 hPa 0,0 l/m 2,0 km/h (1 Bft) S 187 0 min 0,000 mm 0,0 UV-I 0 W/m 5,4 C 6,3 C 3,2 km/h (1 Bft) 91,30 %
12.11.2015 01:20 6,3 C 94 % 1024,9 hPa 0,0 l/m 0,7 km/h (0 Bft) S 187 0 min 0,000 mm 0,0 UV-I 0 W/m 5,4 C 6,3 C 1,6 km/h (1 Bft) 100,00 %
12.11.2015 01:21 6,3 C 94 % 1024,9 hPa 0,0 l/m 1,1 km/h (1 Bft) S 187 0 min 0,000 mm 0,0 UV-I 0 W/m 5,4 C 6,3 C 3,2 km/h (1 Bft) 100,00 %
12.11.2015 01:22 6,3 C 94 % 1024,9 hPa 0,0 l/m 1,5 km/h (1 Bft) S 187 0 min 0,000 mm 0,0 UV-I 0 W/m 5,4 C 6,3 C 3,2 km/h (1 Bft) 100,00 %
12.11.2015 01:23 6,4 C 94 % 1024,9 hPa 0,0 l/m 1,3 km/h (1 Bft) S 187 0 min 0,000 mm 0,0 UV-I 0 W/m 5,5 C 6,4 C 1,6 km/h (1 Bft) 100,00 %
12.11.2015 01:24 6,4 C 94 % 1024,9 hPa 0,0 l/m 2,1 km/h (1 Bft) S 191 0 min 0,000 mm 0,0 UV-I 0 W/m 5,5 C 6,4 C 3,2 km/h (1 Bft) 100,00 %
12.11.2015 01:25 6,5 C 94 % 1024,9 hPa 0,0 l/m 1,4 km/h (1 Bft) S 191 0 min 0,000 mm 0,0 UV-I 0 W/m 5,6 C 6,5 C 3,2 km/h (1 Bft) 100,00 %
12.11.2015 01:26 6,6 C 94 % 1024,9 hPa 0,0 l/m 2,0 km/h (1 Bft) S 191 0 min 0,000 mm 0,0 UV-I 0 W/m 5,7 C 6,6 C 3,2 km/h (1 Bft) 100,00 %
12.11.2015 01:27 6,6 C 94 % 1024,9 hPa 0,0 l/m 2,0 km/h (1 Bft) S 191 0 min 0,000 mm 0,0 UV-I 0 W/m 5,7 C 6,6 C 3,2 km/h (1 Bft) 100,00 %
12.11.2015 01:28 6,6 C 94 % 1024,9 hPa 0,0 l/m 2,0 km/h (1 Bft) S 191 0 min 0,000 mm 0,0 UV-I 0 W/m 5,7 C 6,6 C 3,2 km/h (1 Bft) 100,00 %
12.11.2015 01:29 6,6 C 94 % 1024,9 hPa 0,0 l/m 0,8 km/h (0 Bft) S 191 0 min 0,000 mm 0,0 UV-I 0 W/m 5,7 C 6,6 C 3,2 km/h (1 Bft) 100,00 %
12.11.2015 01:30 6,7 C 94 % 1024,9 hPa 0,0 l/m 0,8 km/h (0 Bft) S 191 0 min 0,000 mm 0,0 UV-I 0 W/m 5,8 C 6,7 C 1,6 km/h (1 Bft) 100,00 %
12.11.2015 01:31 6,7 C 94 % 1024,9 hPa 0,0 l/m 0,9 km/h (0 Bft) S 191 0 min 0,000 mm 0,0 UV-I 0 W/m 5,8 C 6,7 C 1,6 km/h (1 Bft) 95,83 %
12.11.2015 01:32 6,7 C 94 % 1024,9 hPa 0,0 l/m 1,7 km/h (1 Bft) S 191 0 min 0,000 mm 0,0 UV-I 0 W/m 5,8 C 6,7 C 3,2 km/h (1 Bft) 100,00 %
12.11.2015 01:33 6,7 C 94 % 1024,9 hPa 0,0 l/m 1,1 km/h (1 Bft) S 191 0 min 0,000 mm 0,0 UV-I 0 W/m 5,8 C 6,7 C 1,6 km/h (1 Bft) 100,00 %
12.11.2015 01:34 6,7 C 94 % 1024,9 hPa 0,0 l/m 1,7 km/h (1 Bft) S 191 0 min 0,000 mm 0,0 UV-I 0 W/m 5,8 C 6,7 C 3,2 km/h (1 Bft) 100,00 %
12.11.2015 01:35 6,7 C 94 % 1024,9 hPa 0,0 l/m 1,7 km/h (1 Bft) S 191 0 min 0,000 mm 0,0 UV-I 0 W/m 5,8 C 6,7 C 3,2 km/h (1 Bft) 100,00 %
12.11.2015 01:36 6,7 C 94 % 1024,9 hPa 0,0 l/m 1,0 km/h (0 Bft) S 191 0 min 0,000 mm 0,0 UV-I 0 W/m 5,8 C 6,7 C 1,6 km/h (1 Bft) 100,00 %
12.11.2015 01:37 6,7 C 93 % 1024,9 hPa 0,0 l/m 1,2 km/h (1 Bft) S 191 0 min 0,000 mm 0,0 UV-I 0 W/m 5,6 C 6,7 C 3,2 km/h (1 Bft) 100,00 %
12.11.2015 01:38 6,7 C 93 % 1024,9 hPa 0,0 l/m 1,9 km/h (1 Bft) S 191 0 min 0,000 mm 0,0 UV-I 0 W/m 5,6 C 6,7 C 3,2 km/h (1 Bft) 100,00 %
12.11.2015 01:39 6,8 C 93 % 1025,0 hPa 0,0 l/m 1,9 km/h (1 Bft) S 191 0 min 0,000 mm 0,0 UV-I 0 W/m 5,7 C 6,8 C 3,2 km/h (1 Bft) 100,00 %
12.11.2015 01:40 6,8 C 93 % 1025,0 hPa 0,0 l/m 1,8 km/h (1 Bft) S 191 0 min 0,000 mm 0,0 UV-I 0 W/m 5,7 C 6,8 C 3,2 km/h (1 Bft) 100,00 %
12.11.2015 01:41 6,7 C 93 % 1025,0 hPa 0,0 l/m 1,1 km/h (1 Bft) S 191 0 min 0,000 mm 0,0 UV-I 0 W/m 5,6 C 6,7 C 1,6 km/h (1 Bft) 100,00 %
12.11.2015 01:42 6,7 C 93 % 1025,0 hPa 0,0 l/m 1,2 km/h (1 Bft) S 191 0 min 0,000 mm 0,0 UV-I 0 W/m 5,6 C 6,7 C 1,6 km/h (1 Bft) 100,00 %
12.11.2015 01:43 6,7 C 93 % 1025,0 hPa 0,0 l/m 0,4 km/h (0 Bft) S 191 0 min 0,000 mm 0,0 UV-I 0 W/m 5,6 C 6,7 C 1,6 km/h (1 Bft) 96,55 %
12.11.2015 01:44 6,7 C 93 % 1025,0 hPa 0,0 l/m 0,6 km/h (0 Bft) S 191 0 min 0,000 mm 0,0 UV-I 0 W/m 5,6 C 6,7 C 1,6 km/h (1 Bft) 100,00 %
12.11.2015 01:45 6,6 C 93 % 1025,0 hPa 0,0 l/m 0,2 km/h (0 Bft) S 191 0 min 0,000 mm 0,0 UV-I 0 W/m 5,6 C 6,6 C 1,6 km/h (1 Bft) 100,00 %
12.11.2015 01:46 6,6 C 94 % 1025,1 hPa 0,0 l/m 1,3 km/h (1 Bft) S 191 0 min 0,000 mm 0,0 UV-I 0 W/m 5,7 C 6,6 C 1,6 km/h (1 Bft) 96,30 %
12.11.2015 01:47 6,6 C 93 % 1025,1 hPa 0,0 l/m 0,7 km/h (0 Bft) S 191 0 min 0,000 mm 0,0 UV-I 0 W/m 5,6 C 6,6 C 1,6 km/h (1 Bft) 91,30 %
12.11.2015 01:48 6,6 C 93 % 1025,1 hPa 0,0 l/m 0,4 km/h (0 Bft) S 191 0 min 0,000 mm 0,0 UV-I 0 W/m 5,6 C 6,6 C 1,6 km/h (1 Bft) 100,00 %
12.11.2015 01:49 6,6 C 93 % 1025,1 hPa 0,0 l/m 0,0 km/h (0 Bft) S 191 0 min 0,000 mm 0,0 UV-I 0 W/m 5,6 C 6,6 C 0,0 km/h (0 Bft) 100,00 %
12.11.2015 01:50 6,5 C 93 % 1025,0 hPa 0,0 l/m 0,0 km/h (0 Bft) S 191 0 min 0,000 mm 0,0 UV-I 0 W/m 5,5 C 6,5 C 0,0 km/h (0 Bft) 100,00 %
12.11.2015 01:51 6,4 C 93 % 1025,1 hPa 0,0 l/m 0,0 km/h (0 Bft) S 191 0 min 0,000 mm 0,0 UV-I 0 W/m 5,4 C 6,4 C 0,0 km/h (0 Bft) 100,00 %
12.11.2015 01:52 6,3 C 93 % 1025,1 hPa 0,0 l/m 0,3 km/h (0 Bft) S 191 0 min 0,000 mm 0,0 UV-I 0 W/m 5,3 C 6,3 C 1,6 km/h (1 Bft) 100,00 %
12.11.2015 01:53 6,3 C 93 % 1025,1 hPa 0,0 l/m 0,1 km/h (0 Bft) S 191 0 min 0,000 mm 0,0 UV-I 0 W/m 5,3 C 6,3 C 1,6 km/h (1 Bft) 100,00 %
12.11.2015 01:54 6,3 C 94 % 1025,2 hPa 0,0 l/m 1,3 km/h (1 Bft) S 191 0 min 0,000 mm 0,0 UV-I 0 W/m 5,4 C 6,3 C 3,2 km/h (1 Bft) 100,00 %
12.11.2015 01:55 6,3 C 94 % 1025,2 hPa 0,0 l/m 1,4 km/h (1 Bft) S 191 0 min 0,000 mm 0,0 UV-I 0 W/m 5,4 C 6,3 C 1,6 km/h (1 Bft) 99,29 %
12.11.2015 01:56 6,3 C 94 % 1025,1 hPa 0,0 l/m 1,1 km/h (1 Bft) S 191 0 min 0,000 mm 0,0 UV-I 0 W/m 5,4 C 6,3 C 1,6 km/h (1 Bft) 97,37 %
12.11.2015 01:57 6,3 C 94 % 1025,1 hPa 0,0 l/m 0,6 km/h (0 Bft) S 191 0 min 0,000 mm 0,0 UV-I 0 W/m 5,4 C 6,3 C 1,6 km/h (1 Bft) 100,00 %
12.11.2015 01:58 6,4 C 94 % 1025,2 hPa 0,0 l/m 1,2 km/h (1 Bft) S 191 0 min 0,000 mm 0,0 UV-I 0 W/m 5,5 C 6,4 C 1,6 km/h (1 Bft) 97,37 %
12.11.2015 01:59 6,4 C 94 % 1025,2 hPa 0,0 l/m 1,1 km/h (1 Bft) S 191 0 min 0,000 mm 0,0 UV-I 0 W/m 5,5 C 6,4 C 1,6 km/h (1 Bft) 96,55 %
12.11.2015 02:00 6,4 C 94 % 1025,2 hPa 0,0 l/m 1,1 km/h (1 Bft) S 191 0 min 0,000 mm 0,0 UV-I 0 W/m 5,5 C 6,4 C 1,6 km/h (1 Bft) 100,00 %
12.11.2015 02:01 6,4 C 94 % 1025,2 hPa 0,0 l/m 1,2 km/h (1 Bft) S 191 0 min 0,000 mm 0,0 UV-I 0 W/m 5,5 C 6,4 C 1,6 km/h (1 Bft) 83,33 %
12.11.2015 02:02 6,4 C 94 % 1025,2 hPa 0,0 l/m 1,2 km/h (1 Bft) S 191 0 min 0,000 mm 0,0 UV-I 0 W/m 5,5 C 6,4 C 1,6 km/h (1 Bft) 100,00 %
12.11.2015 02:03 6,4 C 93 % 1025,2 hPa 0,0 l/m 0,7 km/h (0 Bft) S 191 0 min 0,000 mm 0,0 UV-I 0 W/m 5,4 C 6,4 C 3,2 km/h (1 Bft) 100,00 %
12.11.2015 02:04 6,4 C 93 % 1025,2 hPa 0,0 l/m 0,3 km/h (0 Bft) S 191 0 min 0,000 mm 0,0 UV-I 0 W/m 5,4 C 6,4 C 1,6 km/h (1 Bft) 100,00 %
12.11.2015 02:05 6,4 C 93 % 1025,2 hPa 0,0 l/m 1,3 km/h (1 Bft) S 191 0 min 0,000 mm 0,0 UV-I 0 W/m 5,4 C 6,4 C 1,6 km/h (1 Bft) 95,83 %
12.11.2015 02:06 6,3 C 93 % 1025,1 hPa 0,0 l/m 1,7 km/h (1 Bft) S 181 0 min 0,000 mm 0,0 UV-I 0 W/m 5,3 C 6,3 C 3,2 km/h (1 Bft) 95,65 %
12.11.2015 02:07 6,3 C 93 % 1025,1 hPa 0,0 l/m 1,5 km/h (1 Bft) SO 134 0 min 0,000 mm 0,0 UV-I 0 W/m 5,3 C 6,3 C 3,2 km/h (1 Bft) 100,00 %
12.11.2015 02:08 6,3 C 93 % 1025,1 hPa 0,0 l/m 1,0 km/h (0 Bft) SO 134 0 min 0,000 mm 0,0 UV-I 0 W/m 5,3 C 6,3 C 1,6 km/h (1 Bft) 100,00 %
12.11.2015 02:09 6,3 C 93 % 1025,1 hPa 0,0 l/m 2,4 km/h (1 Bft) S 171 0 min 0,000 mm 0,0 UV-I 0 W/m 5,3 C 6,3 C 3,2 km/h (1 Bft) 100,00 %
12.11.2015 02:10 6,3 C 94 % 1025,1 hPa 0,0 l/m 1,5 km/h (1 Bft) S-SO 152 0 min 0,000 mm 0,0 UV-I 0 W/m 5,4 C 6,3 C 3,2 km/h (1 Bft) 95,65 %
12.11.2015 02:11 6,3 C 94 % 1025,1 hPa 0,0 l/m 2,7 km/h (1 Bft) S 175 0 min 0,000 mm 0,0 UV-I 0 W/m 5,4 C 6,3 C 4,8 km/h (1 Bft) 100,00 %
12.11.2015 02:12 6,3 C 94 % 1025,1 hPa 0,0 l/m 1,6 km/h (1 Bft) S-SO 150 0 min 0,000 mm 0,0 UV-I 0 W/m 5,4 C 6,3 C 3,2 km/h (1 Bft) 95,65 %
12.11.2015 02:13 6,4 C 94 % 1025,1 hPa 0,0 l/m 0,6 km/h (0 Bft) S-SO 150 0 min 0,000 mm 0,0 UV-I 0 W/m 5,5 C 6,4 C 1,6 km/h (1 Bft) 91,67 %
12.11.2015 02:14 6,5 C 94 % 1025,1 hPa 0,0 l/m 2,1 km/h (1 Bft) S-SW 196 0 min 0,000 mm 0,0 UV-I 0 W/m 5,6 C 6,5 C 3,2 km/h (1 Bft) 96,15 %
12.11.2015 02:15 6,6 C 94 % 1025,0 hPa 0,0 l/m 2,7 km/h (1 Bft) S-SW 193 0 min 0,000 mm 0,0 UV-I 0 W/m 5,7 C 6,6 C 4,8 km/h (1 Bft) 100,00 %
12.11.2015 02:16 6,7 C 94 % 1025,0 hPa 0,0 l/m 1,7 km/h (1 Bft) S-SW 193 0 min 0,000 mm 0,0 UV-I 0 W/m 5,8 C 6,7 C 3,2 km/h (1 Bft) 96,55 %
12.11.2015 02:17 6,7 C 93 % 1025,0 hPa 0,0 l/m 2,4 km/h (1 Bft) S-SW 192 0 min 0,000 mm 0,0 UV-I 0 W/m 5,6 C 6,7 C 3,2 km/h (1 Bft) 100,00 %
12.11.2015 02:18 6,7 C 93 % 1025,1 hPa 0,0 l/m 2,2 km/h (1 Bft) S 191 0 min 0,000 mm 0,0 UV-I 0 W/m 5,6 C 6,7 C 3,2 km/h (1 Bft) 95,65 %
12.11.2015 02:19 6,7 C 93 % 1025,1 hPa 0,0 l/m 1,0 km/h (0 Bft) S 191 0 min 0,000 mm 0,0 UV-I 0 W/m 5,6 C 6,7 C 3,2 km/h (1 Bft) 100,00 %
12.11.2015 02:20 6,7 C 93 % 1025,1 hPa 0,0 l/m 1,0 km/h (0 Bft) S 191 0 min 0,000 mm 0,0 UV-I 0 W/m 5,6 C 6,7 C 1,6 km/h (1 Bft) 100,00 %
12.11.2015 02:21 6,7 C 93 % 1025,1 hPa 0,0 l/m 1,1 km/h (1 Bft) S 191 0 min 0,000 mm 0,0 UV-I 0 W/m 5,6 C 6,7 C 1,6 km/h (1 Bft) 100,00 %
12.11.2015 02:22 6,6 C 92 % 1025,2 hPa 0,0 l/m 0,9 km/h (0 Bft) S 191 0 min 0,000 mm 0,0 UV-I 0 W/m 5,4 C 6,6 C 1,6 km/h (1 Bft) 100,00 %
12.11.2015 02:23 6,5 C 92 % 1025,2 hPa 0,0 l/m 1,4 km/h (1 Bft) S-SW 195 0 min 0,000 mm 0,0 UV-I 0 W/m 5,3 C 6,5 C 1,6 km/h (1 Bft) 100,00 %
12.11.2015 02:24 6,3 C 91 % 1025,2 hPa 0,0 l/m 1,4 km/h (1 Bft) W 273 0 min 0,000 mm 0,0 UV-I 0 W/m 4,9 C 6,3 C 3,2 km/h (1 Bft) 100,00 %
12.11.2015 02:25 6,1 C 91 % 1025,2 hPa 0,0 l/m 2,5 km/h (1 Bft) W 273 0 min 0,000 mm 0,0 UV-I 0 W/m 4,7 C 6,1 C 3,2 km/h (1 Bft) 100,00 %
12.11.2015 02:26 5,8 C 91 % 1025,2 hPa 0,0 l/m 2,1 km/h (1 Bft) W 273 0 min 0,000 mm 0,0 UV-I 0 W/m 4,4 C 5,8 C 3,2 km/h (1 Bft) 100,00 %
12.11.2015 02:27 5,6 C 91 % 1025,2 hPa 0,0 l/m 0,6 km/h (0 Bft) W 273 0 min 0,000 mm 0,0 UV-I 0 W/m 4,2 C 5,6 C 1,6 km/h (1 Bft) 100,00 %
12.11.2015 02:28 5,4 C 92 % 1025,2 hPa 0,0 l/m 0,3 km/h (0 Bft) W 273 0 min 0,000 mm 0,0 UV-I 0 W/m 4,2 C 5,4 C 1,6 km/h (1 Bft) 100,00 %
12.11.2015 02:29 5,3 C 92 % 1025,2 hPa 0,0 l/m 0,1 km/h (0 Bft) W 273 0 min 0,000 mm 0,0 UV-I 0 W/m 4,1 C 5,3 C 1,6 km/h (1 Bft) 100,00 %
12.11.2015 02:30 5,2 C 93 % 1025,2 hPa 0,0 l/m 0,5 km/h (0 Bft) W 273 0 min 0,000 mm 0,0 UV-I 0 W/m 4,2 C 5,2 C 1,6 km/h (1 Bft) 100,00 %
12.11.2015 02:31 5,1 C 93 % 1025,2 hPa 0,0 l/m 0,2 km/h (0 Bft) W 272 0 min 0,000 mm 0,0 UV-I 0 W/m 4,1 C 5,1 C 1,6 km/h (1 Bft) 95,65 %
12.11.2015 02:32 5,0 C 94 % 1025,2 hPa 0,0 l/m 0,7 km/h (0 Bft) W 272 0 min 0,000 mm 0,0 UV-I 0 W/m 4,1 C 5,0 C 1,6 km/h (1 Bft) 95,83 %
12.11.2015 02:33 4,9 C 94 % 1025,2 hPa 0,0 l/m 0,0 km/h (0 Bft) W 272 0 min 0,000 mm 0,0 UV-I 0 W/m 4,0 C 4,9 C 0,0 km/h (0 Bft) 100,00 %
12.11.2015 02:34 4,8 C 94 % 1025,2 hPa 0,0 l/m 0,5 km/h (0 Bft) W 272 0 min 0,000 mm 0,0 UV-I 0 W/m 3,9 C 4,8 C 1,6 km/h (1 Bft) 100,00 %
12.11.2015 02:35 4,8 C 94 % 1025,2 hPa 0,0 l/m 0,5 km/h (0 Bft) W 272 0 min 0,000 mm 0,0 UV-I 0 W/m 3,9 C 4,8 C 1,6 km/h (1 Bft) 100,00 %
12.11.2015 02:36 4,8 C 95 % 1025,2 hPa 0,0 l/m 0,1 km/h (0 Bft) W 272 0 min 0,000 mm 0,0 UV-I 0 W/m 4,1 C 4,8 C 1,6 km/h (1 Bft) 100,00 %
12.11.2015 02:37 4,8 C 95 % 1025,2 hPa 0,0 l/m 0,0 km/h (0 Bft) W 272 0 min 0,000 mm 0,0 UV-I 0 W/m 4,1 C 4,8 C 0,0 km/h (0 Bft) 100,00 %
12.11.2015 02:38 4,8 C 95 % 1025,2 hPa 0,0 l/m 0,8 km/h (0 Bft) W 272 0 min 0,000 mm 0,0 UV-I 0 W/m 4,1 C 4,8 C 1,6 km/h (1 Bft) 100,00 %
12.11.2015 02:39 4,9 C 95 % 1025,2 hPa 0,0 l/m 0,8 km/h (0 Bft) W 272 0 min 0,000 mm 0,0 UV-I 0 W/m 4,2 C 4,9 C 1,6 km/h (1 Bft) 100,00 %
12.11.2015 02:40 5,0 C 95 % 1025,2 hPa 0,0 l/m 1,0 km/h (0 Bft) W 263 0 min 0,000 mm 0,0 UV-I 0 W/m 4,3 C 5,0 C 3,2 km/h (1 Bft) 100,00 %
12.11.2015 02:41 5,0 C 95 % 1025,2 hPa 0,0 l/m 0,0 km/h (0 Bft) W 263 0 min 0,000 mm 0,0 UV-I 0 W/m 4,3 C 5,0 C 0,0 km/h (0 Bft) 100,00 %
12.11.2015 02:42 5,1 C 96 % 1025,2 hPa 0,0 l/m 0,5 km/h (0 Bft) W 263 0 min 0,000 mm 0,0 UV-I 0 W/m 4,5 C 5,1 C 1,6 km/h (1 Bft) 100,00 %
12.11.2015 02:43 5,2 C 96 % 1025,2 hPa 0,0 l/m 0,5 km/h (0 Bft) W 263 0 min 0,000 mm 0,0 UV-I 0 W/m 4,6 C 5,2 C 1,6 km/h (1 Bft) 100,00 %
12.11.2015 02:44 5,2 C 96 % 1025,1 hPa 0,0 l/m 1,0 km/h (0 Bft) W 263 0 min 0,000 mm 0,0 UV-I 0 W/m 4,6 C 5,2 C 1,6 km/h (1 Bft) 92,31 %
12.11.2015 02:45 5,3 C 96 % 1025,1 hPa 0,0 l/m 1,3 km/h (1 Bft) W 262 0 min 0,000 mm 0,0 UV-I 0 W/m 4,7 C 5,3 C 1,6 km/h (1 Bft) 95,83 %
12.11.2015 02:46 5,3 C 95 % 1025,1 hPa 0,0 l/m 1,5 km/h (1 Bft) W 262 0 min 0,000 mm 0,0 UV-I 0 W/m 4,6 C 5,3 C 1,6 km/h (1 Bft) 100,00 %
12.11.2015 02:47 5,3 C 95 % 1025,1 hPa 0,0 l/m 0,9 km/h (0 Bft) W 262 0 min 0,000 mm 0,0 UV-I 0 W/m 4,6 C 5,3 C 1,6 km/h (1 Bft) 100,00 %
12.11.2015 02:48 5,3 C 95 % 1025,2 hPa 0,0 l/m 1,2 km/h (1 Bft) W 262 0 min 0,000 mm 0,0 UV-I 0 W/m 4,6 C 5,3 C 1,6 km/h (1 Bft) 100,00 %
12.11.2015 02:49 5,3 C 95 % 1025,2 hPa 0,0 l/m 0,2 km/h (0 Bft) W 262 0 min 0,000 mm 0,0 UV-I 0 W/m 4,6 C 5,3 C 1,6 km/h (1 Bft) 95,83 %
12.11.2015 02:50 5,3 C 95 % 1025,1 hPa 0,0 l/m 0,0 km/h (0 Bft) W 262 0 min 0,000 mm 0,0 UV-I 0 W/m 4,6 C 5,3 C 0,0 km/h (0 Bft) 100,00 %
12.11.2015 02:51 5,3 C 95 % 1025,1 hPa 0,0 l/m 0,0 km/h (0 Bft) W 262 0 min 0,000 mm 0,0 UV-I 0 W/m 4,6 C 5,3 C 0,0 km/h (0 Bft) 100,00 %
12.11.2015 02:52 5,3 C 95 % 1025,2 hPa 0,0 l/m 0,0 km/h (0 Bft) W 262 0 min 0,000 mm 0,0 UV-I 0 W/m 4,6 C 5,3 C 0,0 km/h (0 Bft) 100,00 %
12.11.2015 02:53 5,4 C 95 % 1025,1 hPa 0,0 l/m 1,1 km/h (1 Bft) W-SW 250 0 min 0,000 mm 0,0 UV-I 0 W/m 4,7 C 5,4 C 1,6 km/h (1 Bft) 100,00 %
12.11.2015 02:54 5,4 C 95 % 1025,2 hPa 0,0 l/m 1,0 km/h (0 Bft) W-SW 250 0 min 0,000 mm 0,0 UV-I 0 W/m 4,7 C 5,4 C 1,6 km/h (1 Bft) 96,15 %
12.11.2015 02:55 5,4 C 95 % 1025,1 hPa 0,0 l/m 1,0 km/h (0 Bft) W-SW 250 0 min 0,000 mm 0,0 UV-I 0 W/m 4,7 C 5,4 C 1,6 km/h (1 Bft) 100,00 %
12.11.2015 02:56 5,4 C 95 % 1025,2 hPa 0,0 l/m 1,2 km/h (1 Bft) W-SW 250 0 min 0,000 mm 0,0 UV-I 0 W/m 4,7 C 5,4 C 3,2 km/h (1 Bft) 100,00 %
12.11.2015 02:57 5,5 C 95 % 1025,2 hPa 0,0 l/m 1,9 km/h (1 Bft) S-SW 213 0 min 0,000 mm 0,0 UV-I 0 W/m 4,8 C 5,5 C 3,2 km/h (1 Bft) 94,44 %
12.11.2015 02:58 5,5 C 95 % 1025,2 hPa 0,0 l/m 1,6 km/h (1 Bft) S-SW 205 0 min 0,000 mm 0,0 UV-I 0 W/m 4,8 C 5,5 C 3,2 km/h (1 Bft) 100,00 %
12.11.2015 02:59 5,6 C 95 % 1025,2 hPa 0,0 l/m 2,0 km/h (1 Bft) S-SW 203 0 min 0,000 mm 0,0 UV-I 0 W/m 4,9 C 5,6 C 3,2 km/h (1 Bft) 100,00 %
12.11.2015 03:00 5,6 C 95 % 1025,2 hPa 0,0 l/m 1,9 km/h (1 Bft) S-SW 203 0 min 0,000 mm 0,0 UV-I 0 W/m 4,9 C 5,6 C 3,2 km/h (1 Bft) 100,00 %
12.11.2015 03:01 5,6 C 95 % 1025,2 hPa 0,0 l/m 2,0 km/h (1 Bft) S-SW 202 0 min 0,000 mm 0,0 UV-I 0 W/m 4,9 C 5,6 C 3,2 km/h (1 Bft) 100,00 %
12.11.2015 03:02 5,5 C 95 % 1025,2 hPa 0,0 l/m 1,4 km/h (1 Bft) S-SW 202 0 min 0,000 mm 0,0 UV-I 0 W/m 4,8 C 5,5 C 3,2 km/h (1 Bft) 100,00 %
12.11.2015 03:03 5,5 C 95 % 1025,2 hPa 0,0 l/m 1,4 km/h (1 Bft) S-SW 202 0 min 0,000 mm 0,0 UV-I 0 W/m 4,8 C 5,5 C 1,6 km/h (1 Bft) 100,00 %
12.11.2015 03:04 5,4 C 95 % 1025,2 hPa 0,0 l/m 1,0 km/h (0 Bft) S-SW 202 0 min 0,000 mm 0,0 UV-I 0 W/m 4,7 C 5,4 C 3,2 km/h (1 Bft) 100,00 %
12.11.2015 03:05 5,4 C 95 % 1025,1 hPa 0,0 l/m 1,5 km/h (1 Bft) S-SW 202 0 min 0,000 mm 0,0 UV-I 0 W/m 4,7 C 5,4 C 3,2 km/h (1 Bft) 96,15 %
12.11.2015 03:06 5,4 C 95 % 1025,1 hPa 0,0 l/m 1,5 km/h (1 Bft) S-SW 202 0 min 0,000 mm 0,0 UV-I 0 W/m 4,7 C 5,4 C 3,2 km/h (1 Bft) 100,00 %
12.11.2015 03:07 5,5 C 95 % 1025,2 hPa 0,0 l/m 2,4 km/h (1 Bft) S-SW 204 0 min 0,000 mm 0,0 UV-I 0 W/m 4,8 C 5,5 C 3,2 km/h (1 Bft) 100,00 %
12.11.2015 03:08 5,6 C 95 % 1025,2 hPa 0,0 l/m 1,8 km/h (1 Bft) S 189 0 min 0,000 mm 0,0 UV-I 0 W/m 4,9 C 5,6 C 3,2 km/h (1 Bft) 100,00 %
12.11.2015 03:09 5,7 C 95 % 1025,2 hPa 0,0 l/m 1,6 km/h (1 Bft) S 190 0 min 0,000 mm 0,0 UV-I 0 W/m 5,0 C 5,7 C 3,2 km/h (1 Bft) 100,00 %
12.11.2015 03:10 5,7 C 95 % 1025,1 hPa 0,0 l/m 1,8 km/h (1 Bft) S-SW 203 0 min 0,000 mm 0,0 UV-I 0 W/m 5,0 C 5,7 C 3,2 km/h (1 Bft) 95,83 %
12.11.2015 03:11 5,7 C 95 % 1025,1 hPa 0,0 l/m 1,5 km/h (1 Bft) S-SW 203 0 min 0,000 mm 0,0 UV-I 0 W/m 5,0 C 5,7 C 3,2 km/h (1 Bft) 95,65 %
12.11.2015 03:12 5,7 C 95 % 1025,1 hPa 0,0 l/m 1,7 km/h (1 Bft) S-SW 203 0 min 0,000 mm 0,0 UV-I 0 W/m 5,0 C 5,7 C 3,2 km/h (1 Bft) 100,00 %
12.11.2015 03:13 5,8 C 95 % 1025,1 hPa 0,0 l/m 1,9 km/h (1 Bft) S-SW 203 0 min 0,000 mm 0,0 UV-I 0 W/m 5,1 C 5,8 C 3,2 km/h (1 Bft) 96,15 %
12.11.2015 03:14 5,8 C 95 % 1025,1 hPa 0,0 l/m 1,4 km/h (1 Bft) S-SW 203 0 min 0,000 mm 0,0 UV-I 0 W/m 5,1 C 5,8 C 1,6 km/h (1 Bft) 96,67 %
12.11.2015 03:15 5,8 C 95 % 1025,1 hPa 0,0 l/m 1,6 km/h (1 Bft) S-SW 203 0 min 0,000 mm 0,0 UV-I 0 W/m 5,1 C 5,8 C 1,6 km/h (1 Bft) 91,67 %
12.11.2015 03:16 5,8 C 95 % 1025,1 hPa 0,0 l/m 0,9 km/h (0 Bft) S-SW 203 0 min 0,000 mm 0,0 UV-I 0 W/m 5,1 C 5,8 C 1,6 km/h (1 Bft) 100,00 %
12.11.2015 03:17 5,8 C 94 % 1025,1 hPa 0,0 l/m 0,7 km/h (0 Bft) S-SW 203 0 min 0,000 mm 0,0 UV-I 0 W/m 4,9 C 5,8 C 1,6 km/h (1 Bft) 100,00 %
12.11.2015 03:18 5,7 C 94 % 1025,1 hPa 0,0 l/m 0,8 km/h (0 Bft) S-SW 203 0 min 0,000 mm 0,0 UV-I 0 W/m 4,8 C 5,7 C 1,6 km/h (1 Bft) 100,00 %
12.11.2015 03:19 5,7 C 94 % 1025,1 hPa 0,0 l/m 1,4 km/h (1 Bft) S-SW 203 0 min 0,000 mm 0,0 UV-I 0 W/m 4,8 C 5,7 C 3,2 km/h (1 Bft) 100,00 %
12.11.2015 03:20 5,7 C 94 % 1025,1 hPa 0,0 l/m 1,5 km/h (1 Bft) S-SW 203 0 min 0,000 mm 0,0 UV-I 0 W/m 4,8 C 5,7 C 3,2 km/h (1 Bft) 100,00 %
12.11.2015 03:21 5,7 C 95 % 1025,1 hPa 0,0 l/m 1,6 km/h (1 Bft) S-SW 203 0 min 0,000 mm 0,0 UV-I 0 W/m 5,0 C 5,7 C 3,2 km/h (1 Bft) 100,00 %
12.11.2015 03:22 5,7 C 95 % 1025,1 hPa 0,0 l/m 1,9 km/h (1 Bft) S-SW 203 0 min 0,000 mm 0,0 UV-I 0 W/m 5,0 C 5,7 C 3,2 km/h (1 Bft) 100,00 %
12.11.2015 03:23 5,7 C 95 % 1025,1 hPa 0,0 l/m 2,8 km/h (1 Bft) S-SW 202 0 min 0,000 mm 0,0 UV-I 0 W/m 5,0 C 5,7 C 3,2 km/h (1 Bft) 100,00 %
12.11.2015 03:24 5,7 C 95 % 1025,1 hPa 0,0 l/m 1,9 km/h (1 Bft) S-SW 200 0 min 0,000 mm 0,0 UV-I 0 W/m 5,0 C 5,7 C 3,2 km/h (1 Bft) 100,00 %
12.11.2015 03:25 5,7 C 95 % 1025,1 hPa 0,0 l/m 1,6 km/h (1 Bft) S-SW 193 0 min 0,000 mm 0,0 UV-I 0 W/m 5,0 C 5,7 C 3,2 km/h (1 Bft) 100,00 %
12.11.2015 03:26 5,7 C 95 % 1025,1 hPa 0,0 l/m 2,8 km/h (1 Bft) S-SW 193 0 min 0,000 mm 0,0 UV-I 0 W/m 5,0 C 5,7 C 4,8 km/h (1 Bft) 100,00 %
12.11.2015 03:27 5,8 C 95 % 1025,1 hPa 0,0 l/m 3,2 km/h (1 Bft) S 182 0 min 0,000 mm 0,0 UV-I 0 W/m 5,1 C 5,8 C 4,8 km/h (1 Bft) 100,00 %
12.11.2015 03:28 5,8 C 95 % 1025,1 hPa 0,0 l/m 2,1 km/h (1 Bft) S-SW 199 0 min 0,000 mm 0,0 UV-I 0 W/m 5,1 C 5,8 C 3,2 km/h (1 Bft) 100,00 %
12.11.2015 03:29 5,8 C 95 % 1025,2 hPa 0,0 l/m 1,9 km/h (1 Bft) S-SW 196 0 min 0,000 mm 0,0 UV-I 0 W/m 5,1 C 5,8 C 3,2 km/h (1 Bft) 100,00 %
12.11.2015 03:30 5,8 C 95 % 1025,1 hPa 0,0 l/m 2,6 km/h (1 Bft) S 182 0 min 0,000 mm 0,0 UV-I 0 W/m 5,1 C 5,8 C 4,8 km/h (1 Bft) 100,00 %
12.11.2015 03:31 5,9 C 95 % 1025,2 hPa 0,0 l/m 2,3 km/h (1 Bft) S-SW 192 0 min 0,000 mm 0,0 UV-I 0 W/m 5,2 C 5,9 C 3,2 km/h (1 Bft) 100,00 %
12.11.2015 03:32 5,9 C 95 % 1025,2 hPa 0,0 l/m 2,2 km/h (1 Bft) S-SW 197 0 min 0,000 mm 0,0 UV-I 0 W/m 5,2 C 5,9 C 3,2 km/h (1 Bft) 95,65 %
12.11.2015 03:33 5,9 C 94 % 1025,2 hPa 0,0 l/m 2,0 km/h (1 Bft) S-SW 196 0 min 0,000 mm 0,0 UV-I 0 W/m 5,0 C 5,9 C 3,2 km/h (1 Bft) 100,00 %
12.11.2015 03:34 5,9 C 95 % 1025,2 hPa 0,0 l/m 2,2 km/h (1 Bft) S-SW 196 0 min 0,000 mm 0,0 UV-I 0 W/m 5,2 C 5,9 C 3,2 km/h (1 Bft) 100,00 %
12.11.2015 03:35 5,9 C 94 % 1025,2 hPa 0,0 l/m 1,5 km/h (1 Bft) S-SW 196 0 min 0,000 mm 0,0 UV-I 0 W/m 5,0 C 5,9 C 1,6 km/h (1 Bft) 100,00 %
12.11.2015 03:36 5,8 C 94 % 1025,2 hPa 0,0 l/m 1,5 km/h (1 Bft) S-SW 196 0 min 0,000 mm 0,0 UV-I 0 W/m 4,9 C 5,8 C 3,2 km/h (1 Bft) 100,00 %
12.11.2015 03:37 5,8 C 94 % 1025,2 hPa 0,0 l/m 2,1 km/h (1 Bft) S-SW 199 0 min 0,000 mm 0,0 UV-I 0 W/m 4,9 C 5,8 C 3,2 km/h (1 Bft) 100,00 %
12.11.2015 03:38 5,8 C 94 % 1025,2 hPa 0,0 l/m 1,8 km/h (1 Bft) S-SW 199 0 min 0,000 mm 0,0 UV-I 0 W/m 4,9 C 5,8 C 3,2 km/h (1 Bft) 100,00 %
12.11.2015 03:39 5,8 C 94 % 1025,2 hPa 0,0 l/m 3,0 km/h (1 Bft) S 186 0 min 0,000 mm 0,0 UV-I 0 W/m 4,9 C 5,8 C 4,8 km/h (1 Bft) 100,00 %
12.11.2015 03:40 5,8 C 94 % 1025,2 hPa 0,0 l/m 2,3 km/h (1 Bft) S 186 0 min 0,000 mm 0,0 UV-I 0 W/m 4,9 C 5,8 C 4,8 km/h (1 Bft) 100,00 %
12.11.2015 03:41 5,8 C 94 % 1025,2 hPa 0,0 l/m 1,4 km/h (1 Bft) S 186 0 min 0,000 mm 0,0 UV-I 0 W/m 4,9 C 5,8 C 3,2 km/h (1 Bft) 100,00 %
12.11.2015 03:42 5,8 C 94 % 1025,2 hPa 0,0 l/m 1,7 km/h (1 Bft) S 191 0 min 0,000 mm 0,0 UV-I 0 W/m 4,9 C 5,8 C 3,2 km/h (1 Bft) 100,00 %
12.11.2015 03:43 5,7 C 94 % 1025,2 hPa 0,0 l/m 1,5 km/h (1 Bft) S 191 0 min 0,000 mm 0,0 UV-I 0 W/m 4,8 C 5,7 C 3,2 km/h (1 Bft) 100,00 %
12.11.2015 03:44 5,7 C 94 % 1025,2 hPa 0,0 l/m 0,9 km/h (0 Bft) S 191 0 min 0,000 mm 0,0 UV-I 0 W/m 4,8 C 5,7 C 1,6 km/h (1 Bft) 100,00 %
12.11.2015 03:45 5,7 C 94 % 1025,2 hPa 0,0 l/m 0,9 km/h (0 Bft) S 191 0 min 0,000 mm 0,0 UV-I 0 W/m 4,8 C 5,7 C 1,6 km/h (1 Bft) 95,65 %
12.11.2015 03:46 5,7 C 94 % 1025,2 hPa 0,0 l/m 1,5 km/h (1 Bft) S-SW 192 0 min 0,000 mm 0,0 UV-I 0 W/m 4,8 C 5,7 C 3,2 km/h (1 Bft) 100,00 %
12.11.2015 03:47 5,7 C 94 % 1025,2 hPa 0,0 l/m 0,7 km/h (0 Bft) S-SW 192 0 min 0,000 mm 0,0 UV-I 0 W/m 4,8 C 5,7 C 1,6 km/h (1 Bft) 100,00 %
12.11.2015 03:48 5,6 C 94 % 1025,3 hPa 0,0 l/m 0,3 km/h (0 Bft) S-SW 192 0 min 0,000 mm 0,0 UV-I 0 W/m 4,7 C 5,6 C 1,6 km/h (1 Bft) 100,00 %
12.11.2015 03:49 5,6 C 94 % 1025,2 hPa 0,0 l/m 0,2 km/h (0 Bft) S-SW 192 0 min 0,000 mm 0,0 UV-I 0 W/m 4,7 C 5,6 C 1,6 km/h (1 Bft) 96,15 %
12.11.2015 03:50 5,6 C 94 % 1025,2 hPa 0,0 l/m 0,3 km/h (0 Bft) S-SW 192 0 min 0,000 mm 0,0 UV-I 0 W/m 4,7 C 5,6 C 1,6 km/h (1 Bft) 100,00 %
12.11.2015 03:51 5,5 C 94 % 1025,2 hPa 0,0 l/m 0,0 km/h (0 Bft) S-SW 192 0 min 0,000 mm 0,0 UV-I 0 W/m 4,6 C 5,5 C 0,0 km/h (0 Bft) 100,00 %
12.11.2015 03:52 5,6 C 95 % 1025,2 hPa 0,0 l/m 0,7 km/h (0 Bft) S-SW 192 0 min 0,000 mm 0,0 UV-I 0 W/m 4,9 C 5,6 C 1,6 km/h (1 Bft) 100,00 %
12.11.2015 03:53 5,6 C 95 % 1025,2 hPa 0,0 l/m 0,1 km/h (0 Bft) S-SW 192 0 min 0,000 mm 0,0 UV-I 0 W/m 4,9 C 5,6 C 1,6 km/h (1 Bft) 95,65 %
12.11.2015 03:54 5,5 C 95 % 1025,2 hPa 0,0 l/m 0,0 km/h (0 Bft) S-SW 192 0 min 0,000 mm 0,0 UV-I 0 W/m 4,8 C 5,5 C 0,0 km/h (0 Bft) 100,00 %
12.11.2015 03:55 5,5 C 94 % 1025,3 hPa 0,0 l/m 0,0 km/h (0 Bft) S-SW 192 0 min 0,000 mm 0,0 UV-I 0 W/m 4,6 C 5,5 C 0,0 km/h (0 Bft) 100,00 %
12.11.2015 03:56 5,4 C 94 % 1025,3 hPa 0,0 l/m 1,0 km/h (0 Bft) S-SW 192 0 min 0,000 mm 0,0 UV-I 0 W/m 4,5 C 5,4 C 1,6 km/h (1 Bft) 95,83 %
12.11.2015 03:57 5,3 C 94 % 1025,3 hPa 0,0 l/m 0,9 km/h (0 Bft) S-SW 192 0 min 0,000 mm 0,0 UV-I 0 W/m 4,4 C 5,3 C 1,6 km/h (1 Bft) 95,65 %
12.11.2015 03:58 5,3 C 94 % 1025,3 hPa 0,0 l/m 0,7 km/h (0 Bft) S-SW 192 0 min 0,000 mm 0,0 UV-I 0 W/m 4,4 C 5,3 C 1,6 km/h (1 Bft) 100,00 %
12.11.2015 03:59 5,2 C 94 % 1025,3 hPa 0,0 l/m 0,3 km/h (0 Bft) S-SW 192 0 min 0,000 mm 0,0 UV-I 0 W/m 4,3 C 5,2 C 1,6 km/h (1 Bft) 100,00 %
12.11.2015 04:00 5,1 C 94 % 1025,3 hPa 0,0 l/m 0,0 km/h (0 Bft) S-SW 192 0 min 0,000 mm 0,0 UV-I 0 W/m 4,2 C 5,1 C 0,0 km/h (0 Bft) 93,33 %
12.11.2015 04:01 5,0 C 94 % 1025,4 hPa 0,0 l/m 0,0 km/h (0 Bft) S-SW 192 0 min 0,000 mm 0,0 UV-I 0 W/m 4,1 C 5,0 C 0,0 km/h (0 Bft) 100,00 %
12.11.2015 04:02 4,9 C 94 % 1025,4 hPa 0,0 l/m 0,3 km/h (0 Bft) S-SW 192 0 min 0,000 mm 0,0 UV-I 0 W/m 4,0 C 4,9 C 1,6 km/h (1 Bft) 96,15 %
12.11.2015 04:03 4,9 C 95 % 1025,4 hPa 0,0 l/m 0,7 km/h (0 Bft) S-SW 196 0 min 0,000 mm 0,0 UV-I 0 W/m 4,2 C 4,9 C 1,6 km/h (1 Bft) 100,00 %
12.11.2015 04:04 4,9 C 95 % 1025,4 hPa 0,0 l/m 0,4 km/h (0 Bft) S-SW 196 0 min 0,000 mm 0,0 UV-I 0 W/m 4,2 C 4,9 C 1,6 km/h (1 Bft) 100,00 %
12.11.2015 04:05 4,9 C 95 % 1025,4 hPa 0,0 l/m 0,1 km/h (0 Bft) S-SW 196 0 min 0,000 mm 0,0 UV-I 0 W/m 4,2 C 4,9 C 1,6 km/h (1 Bft) 98,88 %
12.11.2015 04:06 4,9 C 95 % 1025,4 hPa 0,0 l/m 0,0 km/h (0 Bft) S-SW 196 0 min 0,000 mm 0,0 UV-I 0 W/m 4,2 C 4,9 C 0,0 km/h (0 Bft) 100,00 %
12.11.2015 04:07 4,9 C 95 % 1025,5 hPa 0,0 l/m 0,4 km/h (0 Bft) S-SW 196 0 min 0,000 mm 0,0 UV-I 0 W/m 4,2 C 4,9 C 1,6 km/h (1 Bft) 100,00 %
12.11.2015 04:08 4,8 C 95 % 1025,4 hPa 0,0 l/m 0,0 km/h (0 Bft) S-SW 196 0 min 0,000 mm 0,0 UV-I 0 W/m 4,1 C 4,8 C 0,0 km/h (0 Bft) 100,00 %
12.11.2015 04:09 4,8 C 95 % 1025,4 hPa 0,0 l/m 0,0 km/h (0 Bft) S-SW 196 0 min 0,000 mm 0,0 UV-I 0 W/m 4,1 C 4,8 C 0,0 km/h (0 Bft) 100,00 %
12.11.2015 04:10 4,8 C 95 % 1025,4 hPa 0,0 l/m 0,0 km/h (0 Bft) S-SW 196 0 min 0,000 mm 0,0 UV-I 0 W/m 4,1 C 4,8 C 0,0 km/h (0 Bft) 100,00 %
12.11.2015 04:11 4,8 C 95 % 1025,4 hPa 0,0 l/m 0,0 km/h (0 Bft) S-SW 196 0 min 0,000 mm 0,0 UV-I 0 W/m 4,1 C 4,8 C 0,0 km/h (0 Bft) 100,00 %
12.11.2015 04:12 4,8 C 95 % 1025,4 hPa 0,0 l/m 0,0 km/h (0 Bft) S-SW 196 0 min 0,000 mm 0,0 UV-I 0 W/m 4,1 C 4,8 C 0,0 km/h (0 Bft) 100,00 %
12.11.2015 04:13 4,8 C 95 % 1025,5 hPa 0,0 l/m 0,0 km/h (0 Bft) S-SW 196 0 min 0,000 mm 0,0 UV-I 0 W/m 4,1 C 4,8 C 0,0 km/h (0 Bft) 100,00 %
12.11.2015 04:14 4,8 C 95 % 1025,4 hPa 0,0 l/m 0,0 km/h (0 Bft) S-SW 196 0 min 0,000 mm 0,0 UV-I 0 W/m 4,1 C 4,8 C 0,0 km/h (0 Bft) 100,00 %
12.11.2015 04:15 4,8 C 95 % 1025,4 hPa 0,0 l/m 0,0 km/h (0 Bft) S-SW 196 0 min 0,000 mm 0,0 UV-I 0 W/m 4,1 C 4,8 C 0,0 km/h (0 Bft) 100,00 %
12.11.2015 04:16 4,8 C 96 % 1025,4 hPa 0,0 l/m 0,0 km/h (0 Bft) S-SW 196 0 min 0,000 mm 0,0 UV-I 0 W/m 4,2 C 4,8 C 0,0 km/h (0 Bft) 100,00 %
12.11.2015 04:17 4,8 C 96 % 1025,4 hPa 0,0 l/m 0,1 km/h (0 Bft) S-SW 196 0 min 0,000 mm 0,0 UV-I 0 W/m 4,2 C 4,8 C 1,6 km/h (1 Bft) 100,00 %
12.11.2015 04:18 4,8 C 96 % 1025,4 hPa 0,0 l/m 0,1 km/h (0 Bft) S-SW 196 0 min 0,000 mm 0,0 UV-I 0 W/m 4,2 C 4,8 C 1,6 km/h (1 Bft) 100,00 %
12.11.2015 04:19 4,8 C 96 % 1025,5 hPa 0,0 l/m 0,0 km/h (0 Bft) S-SW 196 0 min 0,000 mm 0,0 UV-I 0 W/m 4,2 C 4,8 C 0,0 km/h (0 Bft) 95,65 %
12.11.2015 04:20 4,8 C 95 % 1025,5 hPa 0,0 l/m 0,0 km/h (0 Bft) S-SW 196 0 min 0,000 mm 0,0 UV-I 0 W/m 4,1 C 4,8 C 0,0 km/h (0 Bft) 100,00 %
12.11.2015 04:21 4,8 C 95 % 1025,5 hPa 0,0 l/m 0,0 km/h (0 Bft) S-SW 196 0 min 0,000 mm 0,0 UV-I 0 W/m 4,1 C 4,8 C 0,0 km/h (0 Bft) 100,00 %
12.11.2015 04:22 4,8 C 96 % 1025,5 hPa 0,0 l/m 0,0 km/h (0 Bft) S-SW 196 0 min 0,000 mm 0,0 UV-I 0 W/m 4,2 C 4,8 C 0,0 km/h (0 Bft) 100,00 %
12.11.2015 04:23 4,8 C 96 % 1025,5 hPa 0,0 l/m 0,0 km/h (0 Bft) S-SW 196 0 min 0,000 mm 0,0 UV-I 0 W/m 4,2 C 4,8 C 0,0 km/h (0 Bft) 92,86 %
12.11.2015 04:24 4,9 C 96 % 1025,5 hPa 0,0 l/m 0,1 km/h (0 Bft) S-SW 196 0 min 0,000 mm 0,0 UV-I 0 W/m 4,3 C 4,9 C 1,6 km/h (1 Bft) 100,00 %
12.11.2015 04:25 4,9 C 96 % 1025,5 hPa 0,0 l/m 0,7 km/h (0 Bft) S-SW 196 0 min 0,000 mm 0,0 UV-I 0 W/m 4,3 C 4,9 C 1,6 km/h (1 Bft) 96,15 %
12.11.2015 04:26 4,9 C 96 % 1025,5 hPa 0,0 l/m 1,1 km/h (1 Bft) S-SW 196 0 min 0,000 mm 0,0 UV-I 0 W/m 4,3 C 4,9 C 1,6 km/h (1 Bft) 100,00 %
12.11.2015 04:27 5,0 C 96 % 1025,5 hPa 0,0 l/m 0,6 km/h (0 Bft) S-SW 196 0 min 0,000 mm 0,0 UV-I 0 W/m 4,4 C 5,0 C 1,6 km/h (1 Bft) 100,00 %
12.11.2015 04:28 4,9 C 96 % 1025,5 hPa 0,0 l/m 0,0 km/h (0 Bft) S-SW 196 0 min 0,000 mm 0,0 UV-I 0 W/m 4,3 C 4,9 C 0,0 km/h (0 Bft) 95,83 %
12.11.2015 04:29 4,9 C 95 % 1025,5 hPa 0,0 l/m 0,6 km/h (0 Bft) S-SW 196 0 min 0,000 mm 0,0 UV-I 0 W/m 4,2 C 4,9 C 1,6 km/h (1 Bft) 100,00 %
12.11.2015 04:30 4,9 C 95 % 1025,5 hPa 0,0 l/m 0,0 km/h (0 Bft) S-SW 196 0 min 0,000 mm 0,0 UV-I 0 W/m 4,2 C 4,9 C 0,0 km/h (0 Bft) 100,00 %
12.11.2015 04:31 4,9 C 96 % 1025,5 hPa 0,0 l/m 0,1 km/h (0 Bft) S-SW 196 0 min 0,000 mm 0,0 UV-I 0 W/m 4,3 C 4,9 C 1,6 km/h (1 Bft) 100,00 %
12.11.2015 04:32 4,9 C 96 % 1025,5 hPa 0,0 l/m 0,6 km/h (0 Bft) S-SW 196 0 min 0,000 mm 0,0 UV-I 0 W/m 4,3 C 4,9 C 1,6 km/h (1 Bft) 100,00 %
12.11.2015 04:33 5,0 C 96 % 1025,5 hPa 0,0 l/m 1,8 km/h (1 Bft) S-SO 147 0 min 0,000 mm 0,0 UV-I 0 W/m 4,4 C 5,0 C 3,2 km/h (1 Bft) 100,00 %
12.11.2015 04:34 5,1 C 96 % 1025,5 hPa 0,0 l/m 0,3 km/h (0 Bft) S-SO 147 0 min 0,000 mm 0,0 UV-I 0 W/m 4,5 C 5,1 C 1,6 km/h (1 Bft) 95,83 %
12.11.2015 04:35 5,1 C 96 % 1025,5 hPa 0,0 l/m 0,0 km/h (0 Bft) S-SO 147 0 min 0,000 mm 0,0 UV-I 0 W/m 4,5 C 5,1 C 0,0 km/h (0 Bft) 100,00 %
12.11.2015 04:36 5,2 C 96 % 1025,5 hPa 0,0 l/m 0,0 km/h (0 Bft) S-SO 147 0 min 0,000 mm 0,0 UV-I 0 W/m 4,6 C 5,2 C 0,0 km/h (0 Bft) 100,00 %
12.11.2015 04:37 5,2 C 96 % 1025,5 hPa 0,0 l/m 0,0 km/h (0 Bft) S-SO 147 0 min 0,000 mm 0,0 UV-I 0 W/m 4,6 C 5,2 C 0,0 km/h (0 Bft) 100,00 %
12.11.2015 04:38 5,2 C 96 % 1025,5 hPa 0,0 l/m 0,0 km/h (0 Bft) S-SO 147 0 min 0,000 mm 0,0 UV-I 0 W/m 4,6 C 5,2 C 0,0 km/h (0 Bft) 95,65 %
12.11.2015 04:39 5,2 C 95 % 1025,5 hPa 0,0 l/m 0,0 km/h (0 Bft) S-SO 147 0 min 0,000 mm 0,0 UV-I 0 W/m 4,5 C 5,2 C 0,0 km/h (0 Bft) 100,00 %
12.11.2015 04:40 5,2 C 95 % 1025,5 hPa 0,0 l/m 0,1 km/h (0 Bft) S-SO 147 0 min 0,000 mm 0,0 UV-I 0 W/m 4,5 C 5,2 C 1,6 km/h (1 Bft) 100,00 %
12.11.2015 04:41 5,1 C 95 % 1025,5 hPa 0,0 l/m 0,0 km/h (0 Bft) S-SO 147 0 min 0,000 mm 0,0 UV-I 0 W/m 4,4 C 5,1 C 0,0 km/h (0 Bft) 95,83 %
12.11.2015 04:42 5,1 C 96 % 1025,6 hPa 0,0 l/m 0,5 km/h (0 Bft) S-SO 147 0 min 0,000 mm 0,0 UV-I 0 W/m 4,5 C 5,1 C 1,6 km/h (1 Bft) 100,00 %
12.11.2015 04:43 5,1 C 95 % 1025,6 hPa 0,0 l/m 0,7 km/h (0 Bft) S-SO 147 0 min 0,000 mm 0,0 UV-I 0 W/m 4,4 C 5,1 C 1,6 km/h (1 Bft) 100,00 %
12.11.2015 04:44 5,0 C 95 % 1025,5 hPa 0,0 l/m 0,1 km/h (0 Bft) S-SO 147 0 min 0,000 mm 0,0 UV-I 0 W/m 4,3 C 5,0 C 1,6 km/h (1 Bft) 100,00 %
12.11.2015 04:45 5,0 C 96 % 1025,5 hPa 0,0 l/m 0,0 km/h (0 Bft) S-SO 147 0 min 0,000 mm 0,0 UV-I 0 W/m 4,4 C 5,0 C 0,0 km/h (0 Bft) 100,00 %
12.11.2015 04:46 5,0 C 96 % 1025,6 hPa 0,0 l/m 0,0 km/h (0 Bft) S-SO 147 0 min 0,000 mm 0,0 UV-I 0 W/m 4,4 C 5,0 C 0,0 km/h (0 Bft) 100,00 %
12.11.2015 04:47 5,0 C 96 % 1025,6 hPa 0,0 l/m 0,0 km/h (0 Bft) S-SO 147 0 min 0,000 mm 0,0 UV-I 0 W/m 4,4 C 5,0 C 0,0 km/h (0 Bft) 91,67 %
12.11.2015 04:48 5,0 C 96 % 1025,6 hPa 0,0 l/m 0,0 km/h (0 Bft) S-SO 147 0 min 0,000 mm 0,0 UV-I 0 W/m 4,4 C 5,0 C 0,0 km/h (0 Bft) 100,00 %
12.11.2015 04:49 5,0 C 96 % 1025,6 hPa 0,0 l/m 0,0 km/h (0 Bft) S-SO 147 0 min 0,000 mm 0,0 UV-I 0 W/m 4,4 C 5,0 C 0,0 km/h (0 Bft) 100,00 %
12.11.2015 04:50 5,0 C 96 % 1025,6 hPa 0,0 l/m 0,0 km/h (0 Bft) S-SO 147 0 min 0,000 mm 0,0 UV-I 0 W/m 4,4 C 5,0 C 0,0 km/h (0 Bft) 100,00 %
12.11.2015 04:51 4,9 C 96 % 1025,6 hPa 0,0 l/m 0,0 km/h (0 Bft) S-SO 147 0 min 0,000 mm 0,0 UV-I 0 W/m 4,3 C 4,9 C 0,0 km/h (0 Bft) 100,00 %
12.11.2015 04:52 4,9 C 96 % 1025,6 hPa 0,0 l/m 0,0 km/h (0 Bft) S-SO 147 0 min 0,000 mm 0,0 UV-I 0 W/m 4,3 C 4,9 C 0,0 km/h (0 Bft) 96,15 %
12.11.2015 04:53 4,8 C 96 % 1025,7 hPa 0,0 l/m 0,0 km/h (0 Bft) S-SO 147 0 min 0,000 mm 0,0 UV-I 0 W/m 4,2 C 4,8 C 0,0 km/h (0 Bft) 100,00 %
12.11.2015 04:54 4,8 C 96 % 1025,7 hPa 0,0 l/m 0,0 km/h (0 Bft) S-SO 147 0 min 0,000 mm 0,0 UV-I 0 W/m 4,2 C 4,8 C 0,0 km/h (0 Bft) 100,00 %
12.11.2015 04:55 4,7 C 96 % 1025,7 hPa 0,0 l/m 0,0 km/h (0 Bft) S-SO 147 0 min 0,000 mm 0,0 UV-I 0 W/m 4,1 C 4,7 C 0,0 km/h (0 Bft) 97,37 %
12.11.2015 04:56 4,7 C 96 % 1025,7 hPa 0,0 l/m 0,0 km/h (0 Bft) S-SO 147 0 min 0,000 mm 0,0 UV-I 0 W/m 4,1 C 4,7 C 0,0 km/h (0 Bft) 100,00 %
12.11.2015 04:57 4,7 C 96 % 1025,7 hPa 0,0 l/m 0,0 km/h (0 Bft) S-SO 147 0 min 0,000 mm 0,0 UV-I 0 W/m 4,1 C 4,7 C 0,0 km/h (0 Bft) 95,83 %
12.11.2015 04:58 4,6 C 96 % 1025,7 hPa 0,0 l/m 0,0 km/h (0 Bft) S-SO 147 0 min 0,000 mm 0,0 UV-I 0 W/m 4,0 C 4,6 C 0,0 km/h (0 Bft) 100,00 %
12.11.2015 04:59 4,6 C 96 % 1025,8 hPa 0,0 l/m 0,0 km/h (0 Bft) S-SO 147 0 min 0,000 mm 0,0 UV-I 0 W/m 4,0 C 4,6 C 0,0 km/h (0 Bft) 96,15 %
12.11.2015 05:00 4,5 C 96 % 1025,8 hPa 0,0 l/m 0,0 km/h (0 Bft) S-SO 147 0 min 0,000 mm 0,0 UV-I 0 W/m 3,9 C 4,5 C 0,0 km/h (0 Bft) 100,00 %
12.11.2015 05:01 4,5 C 96 % 1025,8 hPa 0,0 l/m 0,0 km/h (0 Bft) S-SO 147 0 min 0,000 mm 0,0 UV-I 0 W/m 3,9 C 4,5 C 0,0 km/h (0 Bft) 100,00 %
12.11.2015 05:02 4,4 C 96 % 1025,9 hPa 0,0 l/m 0,0 km/h (0 Bft) S-SO 147 0 min 0,000 mm 0,0 UV-I 0 W/m 3,8 C 4,4 C 0,0 km/h (0 Bft) 100,00 %
12.11.2015 05:03 4,4 C 96 % 1025,9 hPa 0,0 l/m 0,0 km/h (0 Bft) S-SO 147 0 min 0,000 mm 0,0 UV-I 0 W/m 3,8 C 4,4 C 0,0 km/h (0 Bft) 100,00 %
12.11.2015 05:04 4,3 C 95 % 1025,9 hPa 0,0 l/m 0,0 km/h (0 Bft) S-SO 147 0 min 0,000 mm 0,0 UV-I 0 W/m 3,6 C 4,3 C 0,0 km/h (0 Bft) 100,00 %
12.11.2015 05:05 4,2 C 95 % 1025,9 hPa 0,0 l/m 0,0 km/h (0 Bft) S-SO 147 0 min 0,000 mm 0,0 UV-I 0 W/m 3,5 C 4,2 C 0,0 km/h (0 Bft) 100,00 %
12.11.2015 05:06 4,2 C 96 % 1025,9 hPa 0,0 l/m 0,0 km/h (0 Bft) S-SO 147 0 min 0,000 mm 0,0 UV-I 0 W/m 3,6 C 4,2 C 0,0 km/h (0 Bft) 100,00 %
12.11.2015 05:07 4,1 C 96 % 1026,0 hPa 0,0 l/m 0,0 km/h (0 Bft) S-SO 147 0 min 0,000 mm 0,0 UV-I 0 W/m 3,5 C 4,1 C 0,0 km/h (0 Bft) 100,00 %
12.11.2015 05:08 4,1 C 96 % 1026,0 hPa 0,0 l/m 0,0 km/h (0 Bft) S-SO 147 0 min 0,000 mm 0,0 UV-I 0 W/m 3,5 C 4,1 C 0,0 km/h (0 Bft) 100,00 %
12.11.2015 05:09 4,1 C 96 % 1026,0 hPa 0,0 l/m 0,0 km/h (0 Bft) S-SO 147 0 min 0,000 mm 0,0 UV-I 0 W/m 3,5 C 4,1 C 0,0 km/h (0 Bft) 100,00 %
12.11.2015 05:10 4,1 C 96 % 1026,0 hPa 0,0 l/m 0,0 km/h (0 Bft) S-SO 147 0 min 0,000 mm 0,0 UV-I 0 W/m 3,5 C 4,1 C 0,0 km/h (0 Bft) 95,83 %
12.11.2015 05:11 4,1 C 96 % 1026,1 hPa 0,0 l/m 0,0 km/h (0 Bft) S-SO 147 0 min 0,000 mm 0,0 UV-I 0 W/m 3,5 C 4,1 C 0,0 km/h (0 Bft) 100,00 %
12.11.2015 05:12 4,2 C 96 % 1026,1 hPa 0,0 l/m 0,0 km/h (0 Bft) S-SO 147 0 min 0,000 mm 0,0 UV-I 0 W/m 3,6 C 4,2 C 0,0 km/h (0 Bft) 100,00 %
12.11.2015 05:13 4,2 C 96 % 1026,1 hPa 0,0 l/m 0,0 km/h (0 Bft) S-SO 147 0 min 0,000 mm 0,0 UV-I 0 W/m 3,6 C 4,2 C 0,0 km/h (0 Bft) 100,00 %
12.11.2015 05:14 4,3 C 97 % 1026,1 hPa 0,0 l/m 0,1 km/h (0 Bft) S-SO 147 0 min 0,000 mm 0,0 UV-I 0 W/m 3,9 C 4,3 C 1,6 km/h (1 Bft) 100,00 %
12.11.2015 05:15 4,3 C 97 % 1026,2 hPa 0,0 l/m 0,0 km/h (0 Bft) S-SO 147 0 min 0,000 mm 0,0 UV-I 0 W/m 3,9 C 4,3 C 0,0 km/h (0 Bft) 100,00 %
12.11.2015 05:16 4,3 C 97 % 1026,2 hPa 0,0 l/m 0,0 km/h (0 Bft) S-SO 147 0 min 0,000 mm 0,0 UV-I 0 W/m 3,9 C 4,3 C 0,0 km/h (0 Bft) 95,83 %
12.11.2015 05:17 4,2 C 96 % 1026,2 hPa 0,0 l/m 0,0 km/h (0 Bft) S-SO 147 0 min 0,000 mm 0,0 UV-I 0 W/m 3,6 C 4,2 C 0,0 km/h (0 Bft) 95,65 %
12.11.2015 05:18 4,2 C 96 % 1026,2 hPa 0,0 l/m 0,0 km/h (0 Bft) S-SO 147 0 min 0,000 mm 0,0 UV-I 0 W/m 3,6 C 4,2 C 0,0 km/h (0 Bft) 100,00 %
12.11.2015 05:19 4,2 C 96 % 1026,2 hPa 0,0 l/m 0,0 km/h (0 Bft) S-SO 147 0 min 0,000 mm 0,0 UV-I 0 W/m 3,6 C 4,2 C 0,0 km/h (0 Bft) 100,00 %
12.11.2015 05:20 4,2 C 96 % 1026,2 hPa 0,0 l/m 0,0 km/h (0 Bft) S-SO 147 0 min 0,000 mm 0,0 UV-I 0 W/m 3,6 C 4,2 C 0,0 km/h (0 Bft) 100,00 %
12.11.2015 05:21 4,1 C 96 % 1026,2 hPa 0,0 l/m 0,0 km/h (0 Bft) S-SO 147 0 min 0,000 mm 0,0 UV-I 0 W/m 3,5 C 4,1 C 0,0 km/h (0 Bft) 91,67 %
12.11.2015 05:22 4,1 C 96 % 1026,2 hPa 0,0 l/m 0,0 km/h (0 Bft) S-SO 147 0 min 0,000 mm 0,0 UV-I 0 W/m 3,5 C 4,1 C 0,0 km/h (0 Bft) 100,00 %
12.11.2015 05:23 4,1 C 96 % 1026,2 hPa 0,0 l/m 0,1 km/h (0 Bft) S-SO 147 0 min 0,000 mm 0,0 UV-I 0 W/m 3,5 C 4,1 C 1,6 km/h (1 Bft) 100,00 %
12.11.2015 05:24 4,1 C 96 % 1026,2 hPa 0,0 l/m 0,0 km/h (0 Bft) S-SO 147 0 min 0,000 mm 0,0 UV-I 0 W/m 3,5 C 4,1 C 0,0 km/h (0 Bft) 100,00 %
12.11.2015 05:25 4,1 C 96 % 1026,2 hPa 0,0 l/m 0,0 km/h (0 Bft) S-SO 147 0 min 0,000 mm 0,0 UV-I 0 W/m 3,5 C 4,1 C 0,0 km/h (0 Bft) 100,00 %
12.11.2015 05:26 3,9 C 96 % 1026,2 hPa 0,0 l/m 0,1 km/h (0 Bft) S-SO 147 0 min 0,000 mm 0,0 UV-I 0 W/m 3,3 C 3,9 C 1,6 km/h (1 Bft) 100,00 %
12.11.2015 05:27 3,8 C 96 % 1026,2 hPa 0,0 l/m 1,6 km/h (1 Bft) S-SO 147 0 min 0,000 mm 0,0 UV-I 0 W/m 3,2 C 3,8 C 1,6 km/h (1 Bft) 100,00 %
12.11.2015 05:28 3,8 C 96 % 1026,2 hPa 0,0 l/m 0,5 km/h (0 Bft) S-SO 147 0 min 0,000 mm 0,0 UV-I 0 W/m 3,2 C 3,8 C 1,6 km/h (1 Bft) 100,00 %
12.11.2015 05:29 3,8 C 96 % 1026,2 hPa 0,0 l/m 0,1 km/h (0 Bft) S-SO 147 0 min 0,000 mm 0,0 UV-I 0 W/m 3,2 C 3,8 C 1,6 km/h (1 Bft) 100,00 %
12.11.2015 05:30 3,8 C 96 % 1026,2 hPa 0,0 l/m 0,0 km/h (0 Bft) S-SO 147 0 min 0,000 mm 0,0 UV-I 0 W/m 3,2 C 3,8 C 0,0 km/h (0 Bft) 95,65 %
12.11.2015 05:31 3,9 C 96 % 1026,2 hPa 0,0 l/m 0,0 km/h (0 Bft) S-SO 147 0 min 0,000 mm 0,0 UV-I 0 W/m 3,3 C 3,9 C 0,0 km/h (0 Bft) 100,00 %
12.11.2015 05:32 4,0 C 97 % 1026,2 hPa 0,0 l/m 0,0 km/h (0 Bft) S-SO 147 0 min 0,000 mm 0,0 UV-I 0 W/m 3,6 C 4,0 C 0,0 km/h (0 Bft) 100,00 %
12.11.2015 05:33 4,1 C 97 % 1026,2 hPa 0,0 l/m 0,0 km/h (0 Bft) S-SO 147 0 min 0,000 mm 0,0 UV-I 0 W/m 3,7 C 4,1 C 0,0 km/h (0 Bft) 100,00 %
12.11.2015 05:34 4,1 C 97 % 1026,2 hPa 0,0 l/m 0,0 km/h (0 Bft) S-SO 147 0 min 0,000 mm 0,0 UV-I 0 W/m 3,7 C 4,1 C 0,0 km/h (0 Bft) 100,00 %
12.11.2015 05:35 4,2 C 97 % 1026,2 hPa 0,0 l/m 0,0 km/h (0 Bft) S-SO 147 0 min 0,000 mm 0,0 UV-I 0 W/m 3,8 C 4,2 C 0,0 km/h (0 Bft) 100,00 %
12.11.2015 05:36 4,1 C 97 % 1026,2 hPa 0,0 l/m 0,0 km/h (0 Bft) S-SO 147 0 min 0,000 mm 0,0 UV-I 0 W/m 3,7 C 4,1 C 0,0 km/h (0 Bft) 100,00 %
12.11.2015 05:37 4,2 C 97 % 1026,2 hPa 0,0 l/m 0,0 km/h (0 Bft) S-SO 147 0 min 0,000 mm 0,0 UV-I 0 W/m 3,8 C 4,2 C 0,0 km/h (0 Bft) 100,00 %
12.11.2015 05:38 4,2 C 97 % 1026,2 hPa 0,0 l/m 0,0 km/h (0 Bft) S-SO 147 0 min 0,000 mm 0,0 UV-I 0 W/m 3,8 C 4,2 C 0,0 km/h (0 Bft) 100,00 %
12.11.2015 05:39 4,2 C 97 % 1026,2 hPa 0,0 l/m 0,0 km/h (0 Bft) S-SO 147 0 min 0,000 mm 0,0 UV-I 0 W/m 3,8 C 4,2 C 0,0 km/h (0 Bft) 95,65 %
12.11.2015 05:40 4,3 C 97 % 1026,3 hPa 0,0 l/m 0,0 km/h (0 Bft) S-SO 147 0 min 0,000 mm 0,0 UV-I 0 W/m 3,9 C 4,3 C 0,0 km/h (0 Bft) 100,00 %
12.11.2015 05:41 4,3 C 97 % 1026,2 hPa 0,0 l/m 0,0 km/h (0 Bft) S-SO 147 0 min 0,000 mm 0,0 UV-I 0 W/m 3,9 C 4,3 C 0,0 km/h (0 Bft) 96,15 %
12.11.2015 05:42 4,3 C 97 % 1026,2 hPa 0,0 l/m 0,2 km/h (0 Bft) S-SO 147 0 min 0,000 mm 0,0 UV-I 0 W/m 3,9 C 4,3 C 1,6 km/h (1 Bft) 100,00 %
12.11.2015 05:43 4,3 C 97 % 1026,2 hPa 0,0 l/m 0,5 km/h (0 Bft) S-SO 147 0 min 0,000 mm 0,0 UV-I 0 W/m 3,9 C 4,3 C 1,6 km/h (1 Bft) 100,00 %
12.11.2015 05:44 4,3 C 97 % 1026,2 hPa 0,0 l/m 0,2 km/h (0 Bft) S-SO 147 0 min 0,000 mm 0,0 UV-I 0 W/m 3,9 C 4,3 C 1,6 km/h (1 Bft) 95,83 %
12.11.2015 05:45 4,2 C 96 % 1026,2 hPa 0,0 l/m 0,0 km/h (0 Bft) S-SO 147 0 min 0,000 mm 0,0 UV-I 0 W/m 3,6 C 4,2 C 0,0 km/h (0 Bft) 100,00 %
12.11.2015 05:46 4,1 C 96 % 1026,2 hPa 0,0 l/m 0,0 km/h (0 Bft) S-SO 147 0 min 0,000 mm 0,0 UV-I 0 W/m 3,5 C 4,1 C 0,0 km/h (0 Bft) 100,00 %
12.11.2015 05:47 4,1 C 96 % 1026,2 hPa 0,0 l/m 0,0 km/h (0 Bft) S-SO 147 0 min 0,000 mm 0,0 UV-I 0 W/m 3,5 C 4,1 C 0,0 km/h (0 Bft) 100,00 %
12.11.2015 05:48 4,1 C 96 % 1026,2 hPa 0,0 l/m 0,0 km/h (0 Bft) S-SO 147 0 min 0,000 mm 0,0 UV-I 0 W/m 3,5 C 4,1 C 0,0 km/h (0 Bft) 95,83 %
12.11.2015 05:49 4,1 C 96 % 1026,2 hPa 0,0 l/m 0,0 km/h (0 Bft) S-SO 147 0 min 0,000 mm 0,0 UV-I 0 W/m 3,5 C 4,1 C 0,0 km/h (0 Bft) 96,15 %
12.11.2015 05:50 4,1 C 96 % 1026,3 hPa 0,0 l/m 0,0 km/h (0 Bft) S-SO 147 0 min 0,000 mm 0,0 UV-I 0 W/m 3,5 C 4,1 C 0,0 km/h (0 Bft) 100,00 %
12.11.2015 05:51 4,1 C 97 % 1026,3 hPa 0,0 l/m 0,2 km/h (0 Bft) S-SO 147 0 min 0,000 mm 0,0 UV-I 0 W/m 3,7 C 4,1 C 1,6 km/h (1 Bft) 95,65 %
12.11.2015 05:52 4,2 C 97 % 1026,3 hPa 0,0 l/m 0,9 km/h (0 Bft) S-SO 147 0 min 0,000 mm 0,0 UV-I 0 W/m 3,8 C 4,2 C 1,6 km/h (1 Bft) 100,00 %
12.11.2015 05:53 4,2 C 97 % 1026,3 hPa 0,0 l/m 0,7 km/h (0 Bft) S-SO 147 0 min 0,000 mm 0,0 UV-I 0 W/m 3,8 C 4,2 C 1,6 km/h (1 Bft) 100,00 %
12.11.2015 05:54 4,2 C 97 % 1026,3 hPa 0,0 l/m 0,7 km/h (0 Bft) S-SO 147 0 min 0,000 mm 0,0 UV-I 0 W/m 3,8 C 4,2 C 1,6 km/h (1 Bft) 100,00 %
12.11.2015 05:55 4,2 C 97 % 1026,3 hPa 0,0 l/m 0,3 km/h (0 Bft) S-SO 147 0 min 0,000 mm 0,0 UV-I 0 W/m 3,8 C 4,2 C 1,6 km/h (1 Bft) 100,00 %
12.11.2015 05:56 4,1 C 97 % 1026,3 hPa 0,0 l/m 0,7 km/h (0 Bft) S-SO 147 0 min 0,000 mm 0,0 UV-I 0 W/m 3,7 C 4,1 C 1,6 km/h (1 Bft) 95,83 %
12.11.2015 05:57 4,1 C 96 % 1026,3 hPa 0,0 l/m 0,3 km/h (0 Bft) S-SO 147 0 min 0,000 mm 0,0 UV-I 0 W/m 3,5 C 4,1 C 1,6 km/h (1 Bft) 100,00 %
12.11.2015 05:58 4,1 C 96 % 1026,4 hPa 0,0 l/m 0,2 km/h (0 Bft) S-SO 147 0 min 0,000 mm 0,0 UV-I 0 W/m 3,5 C 4,1 C 1,6 km/h (1 Bft) 95,65 %
12.11.2015 05:59 4,0 C 96 % 1026,4 hPa 0,0 l/m 0,2 km/h (0 Bft) S-SO 147 0 min 0,000 mm 0,0 UV-I 0 W/m 3,4 C 4,0 C 1,6 km/h (1 Bft) 95,83 %
12.11.2015 06:00 4,0 C 96 % 1026,4 hPa 0,0 l/m 0,3 km/h (0 Bft) S-SO 147 0 min 0,000 mm 0,0 UV-I 0 W/m 3,4 C 4,0 C 1,6 km/h (1 Bft) 100,00 %
12.11.2015 06:01 4,0 C 96 % 1026,4 hPa 0,0 l/m 1,3 km/h (1 Bft) S-SO 147 0 min 0,000 mm 0,0 UV-I 0 W/m 3,4 C 4,0 C 1,6 km/h (1 Bft) 100,00 %
12.11.2015 06:02 4,0 C 96 % 1026,4 hPa 0,0 l/m 0,9 km/h (0 Bft) S-SO 147 0 min 0,000 mm 0,0 UV-I 0 W/m 3,4 C 4,0 C 1,6 km/h (1 Bft) 100,00 %
12.11.2015 06:03 3,9 C 96 % 1026,3 hPa 0,0 l/m 2,2 km/h (1 Bft) SO 146 0 min 0,000 mm 0,0 UV-I 0 W/m 3,3 C 3,9 C 3,2 km/h (1 Bft) 96,30 %
12.11.2015 06:04 3,9 C 96 % 1026,3 hPa 0,0 l/m 1,9 km/h (1 Bft) SO 144 0 min 0,000 mm 0,0 UV-I 0 W/m 3,3 C 3,9 C 3,2 km/h (1 Bft) 100,00 %
12.11.2015 06:05 4,0 C 96 % 1026,3 hPa 0,0 l/m 1,9 km/h (1 Bft) SO 144 0 min 0,000 mm 0,0 UV-I 0 W/m 3,4 C 4,0 C 3,2 km/h (1 Bft) 100,00 %
12.11.2015 06:06 3,9 C 96 % 1026,4 hPa 0,0 l/m 1,0 km/h (0 Bft) SO 144 0 min 0,000 mm 0,0 UV-I 0 W/m 3,3 C 3,9 C 1,6 km/h (1 Bft) 100,00 %
12.11.2015 06:07 3,9 C 96 % 1026,4 hPa 0,0 l/m 1,3 km/h (1 Bft) SO 144 0 min 0,000 mm 0,0 UV-I 0 W/m 3,3 C 3,9 C 1,6 km/h (1 Bft) 100,00 %
12.11.2015 06:08 3,9 C 96 % 1026,4 hPa 0,0 l/m 0,3 km/h (0 Bft) SO 144 0 min 0,000 mm 0,0 UV-I 0 W/m 3,3 C 3,9 C 1,6 km/h (1 Bft) 100,00 %
12.11.2015 06:09 3,9 C 96 % 1026,3 hPa 0,0 l/m 0,7 km/h (0 Bft) SO 144 0 min 0,000 mm 0,0 UV-I 0 W/m 3,3 C 3,9 C 1,6 km/h (1 Bft) 95,83 %
12.11.2015 06:10 3,9 C 96 % 1026,3 hPa 0,0 l/m 0,6 km/h (0 Bft) SO 144 0 min 0,000 mm 0,0 UV-I 0 W/m 3,3 C 3,9 C 1,6 km/h (1 Bft) 100,00 %
12.11.2015 06:11 3,9 C 96 % 1026,4 hPa 0,0 l/m 0,5 km/h (0 Bft) SO 144 0 min 0,000 mm 0,0 UV-I 0 W/m 3,3 C 3,9 C 1,6 km/h (1 Bft) 100,00 %
12.11.2015 06:12 3,9 C 96 % 1026,4 hPa 0,0 l/m 0,4 km/h (0 Bft) SO 144 0 min 0,000 mm 0,0 UV-I 0 W/m 3,3 C 3,9 C 1,6 km/h (1 Bft) 100,00 %
12.11.2015 06:13 3,9 C 97 % 1026,4 hPa 0,0 l/m 0,6 km/h (0 Bft) S-SO 167 0 min 0,000 mm 0,0 UV-I 0 W/m 3,5 C 3,9 C 1,6 km/h (1 Bft) 95,83 %
12.11.2015 06:14 4,1 C 97 % 1026,5 hPa 0,0 l/m 0,8 km/h (0 Bft) S-SO 167 0 min 0,000 mm 0,0 UV-I 0 W/m 3,7 C 4,1 C 1,6 km/h (1 Bft) 100,00 %
12.11.2015 06:15 4,1 C 97 % 1026,4 hPa 0,0 l/m 0,6 km/h (0 Bft) S-SO 167 0 min 0,000 mm 0,0 UV-I 0 W/m 3,7 C 4,1 C 1,6 km/h (1 Bft) 91,67 %
12.11.2015 06:16 4,2 C 97 % 1026,4 hPa 0,0 l/m 1,3 km/h (1 Bft) SW 221 0 min 0,000 mm 0,0 UV-I 0 W/m 3,8 C 4,2 C 3,2 km/h (1 Bft) 100,00 %
12.11.2015 06:17 4,2 C 97 % 1026,4 hPa 0,0 l/m 0,9 km/h (0 Bft) SW 221 0 min 0,000 mm 0,0 UV-I 0 W/m 3,8 C 4,2 C 1,6 km/h (1 Bft) 100,00 %
12.11.2015 06:18 4,2 C 97 % 1026,4 hPa 0,0 l/m 0,2 km/h (0 Bft) SW 221 0 min 0,000 mm 0,0 UV-I 0 W/m 3,8 C 4,2 C 1,6 km/h (1 Bft) 100,00 %
12.11.2015 06:19 4,2 C 97 % 1026,4 hPa 0,0 l/m 0,2 km/h (0 Bft) SW 221 0 min 0,000 mm 0,0 UV-I 0 W/m 3,8 C 4,2 C 1,6 km/h (1 Bft) 91,30 %
12.11.2015 06:20 4,2 C 97 % 1026,4 hPa 0,0 l/m 0,2 km/h (0 Bft) SW 221 0 min 0,000 mm 0,0 UV-I 0 W/m 3,8 C 4,2 C 1,6 km/h (1 Bft) 100,00 %
12.11.2015 06:21 4,2 C 97 % 1026,4 hPa 0,0 l/m 0,2 km/h (0 Bft) SW 221 0 min 0,000 mm 0,0 UV-I 0 W/m 3,8 C 4,2 C 1,6 km/h (1 Bft) 100,00 %
12.11.2015 06:22 4,2 C 97 % 1026,4 hPa 0,0 l/m 0,1 km/h (0 Bft) SW 221 0 min 0,000 mm 0,0 UV-I 0 W/m 3,8 C 4,2 C 1,6 km/h (1 Bft) 100,00 %
12.11.2015 06:23 4,2 C 97 % 1026,4 hPa 0,0 l/m 0,3 km/h (0 Bft) SW 221 0 min 0,000 mm 0,0 UV-I 0 W/m 3,8 C 4,2 C 1,6 km/h (1 Bft) 100,00 %
12.11.2015 06:24 4,1 C 96 % 1026,4 hPa 0,0 l/m 0,7 km/h (0 Bft) SW 221 0 min 0,000 mm 0,0 UV-I 0 W/m 3,5 C 4,1 C 1,6 km/h (1 Bft) 100,00 %
12.11.2015 06:25 4,1 C 96 % 1026,4 hPa 0,0 l/m 0,0 km/h (0 Bft) SW 221 0 min 0,000 mm 0,0 UV-I 0 W/m 3,5 C 4,1 C 0,0 km/h (0 Bft) 100,00 %
12.11.2015 06:26 4,1 C 96 % 1026,4 hPa 0,0 l/m 0,0 km/h (0 Bft) SW 221 0 min 0,000 mm 0,0 UV-I 0 W/m 3,5 C 4,1 C 0,0 km/h (0 Bft) 100,00 %
12.11.2015 06:27 4,1 C 97 % 1026,5 hPa 0,0 l/m 0,0 km/h (0 Bft) SW 221 0 min 0,000 mm 0,0 UV-I 0 W/m 3,7 C 4,1 C 0,0 km/h (0 Bft) 100,00 %
12.11.2015 06:28 4,1 C 97 % 1026,4 hPa 0,0 l/m 0,0 km/h (0 Bft) SW 221 0 min 0,000 mm 0,0 UV-I 0 W/m 3,7 C 4,1 C 0,0 km/h (0 Bft) 100,00 %
12.11.2015 06:29 4,0 C 96 % 1026,5 hPa 0,0 l/m 0,2 km/h (0 Bft) SW 221 0 min 0,000 mm 0,0 UV-I 0 W/m 3,4 C 4,0 C 1,6 km/h (1 Bft) 100,00 %
12.11.2015 06:30 4,1 C 96 % 1026,6 hPa 0,0 l/m 0,0 km/h (0 Bft) SW 221 0 min 0,000 mm 0,0 UV-I 0 W/m 3,5 C 4,1 C 0,0 km/h (0 Bft) 100,00 %
12.11.2015 06:31 4,1 C 97 % 1026,7 hPa 0,0 l/m 0,0 km/h (0 Bft) SW 221 0 min 0,000 mm 0,0 UV-I 0 W/m 3,7 C 4,1 C 0,0 km/h (0 Bft) 100,00 %
12.11.2015 06:32 4,1 C 97 % 1026,7 hPa 0,0 l/m 0,5 km/h (0 Bft) SW 229 0 min 0,000 mm 0,0 UV-I 0 W/m 3,7 C 4,1 C 1,6 km/h (1 Bft) 100,00 %
12.11.2015 06:33 4,1 C 97 % 1026,7 hPa 0,0 l/m 0,6 km/h (0 Bft) SW 229 0 min 0,000 mm 0,0 UV-I 0 W/m 3,7 C 4,1 C 1,6 km/h (1 Bft) 100,00 %
12.11.2015 06:34 4,1 C 97 % 1026,7 hPa 0,0 l/m 0,5 km/h (0 Bft) SW 229 0 min 0,000 mm 0,0 UV-I 0 W/m 3,7 C 4,1 C 1,6 km/h (1 Bft) 100,00 %
12.11.2015 06:35 4,1 C 97 % 1026,7 hPa 0,0 l/m 0,3 km/h (0 Bft) SW 229 0 min 0,000 mm 0,0 UV-I 0 W/m 3,7 C 4,1 C 1,6 km/h (1 Bft) 100,00 %
12.11.2015 06:36 4,0 C 96 % 1026,7 hPa 0,0 l/m 0,7 km/h (0 Bft) SW 229 0 min 0,000 mm 0,0 UV-I 0 W/m 3,4 C 4,0 C 1,6 km/h (1 Bft) 100,00 %
12.11.2015 06:37 4,0 C 96 % 1026,7 hPa 0,0 l/m 1,3 km/h (1 Bft) SW 229 0 min 0,000 mm 0,0 UV-I 0 W/m 3,4 C 4,0 C 3,2 km/h (1 Bft) 100,00 %
12.11.2015 06:38 4,0 C 96 % 1026,7 hPa 0,0 l/m 1,5 km/h (1 Bft) SW 217 0 min 0,000 mm 0,0 UV-I 0 W/m 3,4 C 4,0 C 3,2 km/h (1 Bft) 100,00 %
12.11.2015 06:39 4,0 C 96 % 1026,7 hPa 0,0 l/m 1,7 km/h (1 Bft) S-SW 202 0 min 0,000 mm 0,0 UV-I 0 W/m 3,4 C 4,0 C 3,2 km/h (1 Bft) 95,83 %
12.11.2015 06:40 4,0 C 96 % 1026,7 hPa 0,0 l/m 2,9 km/h (1 Bft) S-SW 202 0 min 0,000 mm 0,0 UV-I 0 W/m 3,4 C 4,0 C 3,2 km/h (1 Bft) 95,65 %
12.11.2015 06:41 4,1 C 96 % 1026,7 hPa 0,0 l/m 2,7 km/h (1 Bft) S-SW 196 0 min 0,000 mm 0,0 UV-I 0 W/m 3,5 C 4,1 C 4,8 km/h (1 Bft) 95,83 %
12.11.2015 06:42 4,1 C 97 % 1026,8 hPa 0,0 l/m 2,5 km/h (1 Bft) S-SW 199 0 min 0,000 mm 0,0 UV-I 0 W/m 3,7 C 4,1 C 3,2 km/h (1 Bft) 100,00 %
12.11.2015 06:43 4,2 C 97 % 1026,8 hPa 0,0 l/m 1,6 km/h (1 Bft) S-SW 199 0 min 0,000 mm 0,0 UV-I 0 W/m 3,8 C 4,2 C 3,2 km/h (1 Bft) 100,00 %
12.11.2015 06:44 4,2 C 97 % 1026,7 hPa 0,0 l/m 1,7 km/h (1 Bft) S-SW 196 0 min 0,000 mm 0,0 UV-I 0 W/m 3,8 C 4,2 C 3,2 km/h (1 Bft) 100,00 %
12.11.2015 06:45 4,3 C 97 % 1026,7 hPa 0,0 l/m 1,8 km/h (1 Bft) S-SW 204 0 min 0,000 mm 0,0 UV-I 0 W/m 3,9 C 4,3 C 4,8 km/h (1 Bft) 100,00 %
12.11.2015 06:46 4,3 C 97 % 1026,7 hPa 0,0 l/m 1,9 km/h (1 Bft) S-SW 203 0 min 0,000 mm 0,0 UV-I 0 W/m 3,9 C 4,3 C 3,2 km/h (1 Bft) 100,00 %
12.11.2015 06:47 4,3 C 97 % 1026,7 hPa 0,0 l/m 1,4 km/h (1 Bft) S-SW 202 0 min 0,000 mm 0,0 UV-I 0 W/m 3,9 C 4,3 C 3,2 km/h (1 Bft) 100,00 %
12.11.2015 06:48 4,3 C 96 % 1026,7 hPa 0,0 l/m 2,0 km/h (1 Bft) S-SW 196 0 min 0,000 mm 0,0 UV-I 0 W/m 3,7 C 4,3 C 3,2 km/h (1 Bft) 100,00 %
12.11.2015 06:49 4,4 C 96 % 1026,8 hPa 0,0 l/m 2,4 km/h (1 Bft) S-SW 196 0 min 0,000 mm 0,0 UV-I 0 W/m 3,8 C 4,4 C 3,2 km/h (1 Bft) 100,00 %
12.11.2015 06:50 4,4 C 97 % 1026,8 hPa 0,0 l/m 0,6 km/h (0 Bft) S-SW 196 0 min 0,000 mm 0,0 UV-I 0 W/m 4,0 C 4,4 C 3,2 km/h (1 Bft) 100,00 %
12.11.2015 06:51 4,4 C 97 % 1026,8 hPa 0,0 l/m 0,0 km/h (0 Bft) S-SW 196 0 min 0,000 mm 0,0 UV-I 0 W/m 4,0 C 4,4 C 0,0 km/h (0 Bft) 100,00 %
12.11.2015 06:52 4,4 C 96 % 1026,8 hPa 0,0 l/m 0,2 km/h (0 Bft) S-SW 196 0 min 0,000 mm 0,0 UV-I 0 W/m 3,8 C 4,4 C 1,6 km/h (1 Bft) 100,00 %
12.11.2015 06:53 4,4 C 96 % 1026,8 hPa 0,0 l/m 0,8 km/h (0 Bft) S-SW 196 0 min 0,000 mm 0,0 UV-I 0 W/m 3,8 C 4,4 C 1,6 km/h (1 Bft) 100,00 %
12.11.2015 06:54 4,5 C 96 % 1026,8 hPa 0,0 l/m 1,5 km/h (1 Bft) S 188 0 min 0,000 mm 0,0 UV-I 0 W/m 3,9 C 4,5 C 3,2 km/h (1 Bft) 96,15 %
12.11.2015 06:55 4,5 C 96 % 1026,8 hPa 0,0 l/m 1,4 km/h (1 Bft) S 188 0 min 0,000 mm 0,0 UV-I 0 W/m 3,9 C 4,5 C 3,2 km/h (1 Bft) 100,00 %
12.11.2015 06:56 4,4 C 96 % 1026,8 hPa 0,0 l/m 1,1 km/h (1 Bft) S 188 0 min 0,000 mm 0,0 UV-I 0 W/m 3,8 C 4,4 C 1,6 km/h (1 Bft) 100,00 %
12.11.2015 06:57 4,4 C 96 % 1026,8 hPa 0,0 l/m 1,1 km/h (1 Bft) S 188 0 min 0,000 mm 0,0 UV-I 0 W/m 3,8 C 4,4 C 1,6 km/h (1 Bft) 100,00 %
12.11.2015 06:58 4,4 C 96 % 1026,8 hPa 0,0 l/m 1,5 km/h (1 Bft) S 188 0 min 0,000 mm 0,0 UV-I 0 W/m 3,8 C 4,4 C 3,2 km/h (1 Bft) 100,00 %
12.11.2015 06:59 4,4 C 96 % 1026,9 hPa 0,0 l/m 0,6 km/h (0 Bft) S 188 0 min 0,000 mm 0,0 UV-I 2 W/m 3,8 C 4,4 C 1,6 km/h (1 Bft) 95,83 %
12.11.2015 07:00 4,4 C 96 % 1026,9 hPa 0,0 l/m 1,0 km/h (0 Bft) S 188 0 min 0,000 mm 0,0 UV-I 5 W/m 3,8 C 4,4 C 1,6 km/h (1 Bft) 100,00 %
12.11.2015 07:01 4,4 C 96 % 1026,9 hPa 0,0 l/m 0,3 km/h (0 Bft) S 188 0 min 0,000 mm 0,0 UV-I 5 W/m 3,8 C 4,4 C 1,6 km/h (1 Bft) 100,00 %
12.11.2015 07:02 4,4 C 96 % 1026,9 hPa 0,0 l/m 2,3 km/h (1 Bft) S 188 0 min 0,000 mm 0,0 UV-I 5 W/m 3,8 C 4,4 C 3,2 km/h (1 Bft) 100,00 %
12.11.2015 07:03 4,4 C 96 % 1026,8 hPa 0,0 l/m 3,1 km/h (1 Bft) S-SW 196 0 min 0,000 mm 0,0 UV-I 5 W/m 3,8 C 4,4 C 4,8 km/h (1 Bft) 100,00 %
12.11.2015 07:04 4,4 C 96 % 1026,8 hPa 0,0 l/m 2,9 km/h (1 Bft) S-SW 196 0 min 0,000 mm 0,0 UV-I 5 W/m 3,8 C 4,4 C 3,2 km/h (1 Bft) 100,00 %
12.11.2015 07:05 4,4 C 96 % 1026,8 hPa 0,0 l/m 2,3 km/h (1 Bft) S-SW 196 0 min 0,000 mm 0,0 UV-I 6 W/m 3,8 C 4,4 C 3,2 km/h (1 Bft) 100,00 %
12.11.2015 07:06 4,4 C 96 % 1026,8 hPa 0,0 l/m 1,6 km/h (1 Bft) S-SW 196 0 min 0,000 mm 0,0 UV-I 7 W/m 3,8 C 4,4 C 3,2 km/h (1 Bft) 100,00 %
12.11.2015 07:07 4,4 C 96 % 1026,8 hPa 0,0 l/m 2,7 km/h (1 Bft) S-SW 201 0 min 0,000 mm 0,0 UV-I 7 W/m 3,8 C 4,4 C 4,8 km/h (1 Bft) 100,00 %
12.11.2015 07:08 4,4 C 96 % 1026,9 hPa 0,0 l/m 2,5 km/h (1 Bft) S-SW 205 0 min 0,000 mm 0,0 UV-I 7 W/m 3,8 C 4,4 C 3,2 km/h (1 Bft) 100,00 %
12.11.2015 07:09 4,4 C 96 % 1026,9 hPa 0,0 l/m 2,8 km/h (1 Bft) S-SW 209 0 min 0,000 mm 0,0 UV-I 7 W/m 3,8 C 4,4 C 6,4 km/h (2 Bft) 100,00 %
12.11.2015 07:10 4,4 C 96 % 1026,9 hPa 0,0 l/m 2,9 km/h (1 Bft) S-SW 199 0 min 0,000 mm 0,0 UV-I 8 W/m 3,8 C 4,4 C 4,8 km/h (1 Bft) 100,00 %
12.11.2015 07:11 4,4 C 96 % 1026,9 hPa 0,0 l/m 2,2 km/h (1 Bft) S-SW 212 0 min 0,000 mm 0,0 UV-I 9 W/m 3,8 C 4,4 C 3,2 km/h (1 Bft) 100,00 %
12.11.2015 07:12 4,4 C 96 % 1026,9 hPa 0,0 l/m 3,2 km/h (1 Bft) SW 236 0 min 0,000 mm 0,0 UV-I 9 W/m 3,8 C 4,4 C 4,8 km/h (1 Bft) 100,00 %
12.11.2015 07:13 4,4 C 96 % 1026,9 hPa 0,0 l/m 3,6 km/h (1 Bft) SW 225 0 min 0,000 mm 0,0 UV-I 11 W/m 3,8 C 4,4 C 4,8 km/h (1 Bft) 100,00 %
12.11.2015 07:14 4,5 C 96 % 1026,9 hPa 0,0 l/m 3,6 km/h (1 Bft) SW 218 0 min 0,000 mm 0,0 UV-I 11 W/m 3,9 C 4,5 C 6,4 km/h (2 Bft) 100,00 %
12.11.2015 07:15 4,4 C 96 % 1027,0 hPa 0,0 l/m 3,0 km/h (1 Bft) SW 229 0 min 0,000 mm 0,0 UV-I 11 W/m 3,8 C 4,4 C 6,4 km/h (2 Bft) 100,00 %
12.11.2015 07:16 4,4 C 96 % 1027,0 hPa 0,0 l/m 4,2 km/h (1 Bft) SW 221 0 min 0,000 mm 0,0 UV-I 12 W/m 3,8 C 4,4 C 6,4 km/h (2 Bft) 92,31 %
12.11.2015 07:17 4,4 C 96 % 1027,0 hPa 0,0 l/m 5,0 km/h (1 Bft) SW 221 1 min 0,000 mm 0,0 UV-I 12 W/m 3,8 C 4,4 C 8,0 km/h (2 Bft) 95,83 %
12.11.2015 07:18 4,5 C 96 % 1027,0 hPa 0,0 l/m 4,7 km/h (1 Bft) SW 229 1 min 0,000 mm 0,0 UV-I 13 W/m 3,9 C 4,5 C 6,4 km/h (2 Bft) 100,00 %
12.11.2015 07:19 4,5 C 96 % 1027,0 hPa 0,0 l/m 3,6 km/h (1 Bft) SW 221 1 min 0,000 mm 0,0 UV-I 14 W/m 3,9 C 4,5 C 4,8 km/h (1 Bft) 100,00 %
12.11.2015 07:20 4,4 C 96 % 1027,0 hPa 0,0 l/m 1,6 km/h (1 Bft) SW 225 1 min 0,000 mm 0,0 UV-I 16 W/m 3,8 C 4,4 C 3,2 km/h (1 Bft) 100,00 %
12.11.2015 07:21 4,4 C 95 % 1027,1 hPa 0,0 l/m 2,5 km/h (1 Bft) W-SW 240 1 min 0,000 mm 0,0 UV-I 16 W/m 3,7 C 4,4 C 3,2 km/h (1 Bft) 100,00 %
12.11.2015 07:22 4,4 C 96 % 1027,0 hPa 0,0 l/m 3,2 km/h (1 Bft) S-SW 209 1 min 0,000 mm 0,0 UV-I 17 W/m 3,8 C 4,4 C 4,8 km/h (1 Bft) 100,00 %
12.11.2015 07:23 4,4 C 96 % 1027,0 hPa 0,0 l/m 3,1 km/h (1 Bft) S-SW 201 1 min 0,000 mm 0,0 UV-I 19 W/m 3,8 C 4,4 C 4,8 km/h (1 Bft) 100,00 %
12.11.2015 07:24 4,4 C 96 % 1027,0 hPa 0,0 l/m 2,7 km/h (1 Bft) S-SW 195 0 min 0,000 mm 0,0 UV-I 19 W/m 3,8 C 4,4 C 4,8 km/h (1 Bft) 100,00 %
12.11.2015 07:25 4,4 C 95 % 1027,0 hPa 0,0 l/m 2,1 km/h (1 Bft) S-SW 202 0 min 0,000 mm 0,0 UV-I 19 W/m 3,7 C 4,4 C 3,2 km/h (1 Bft) 100,00 %
12.11.2015 07:26 4,3 C 95 % 1027,0 hPa 0,0 l/m 1,1 km/h (1 Bft) S-SW 202 0 min 0,000 mm 0,0 UV-I 21 W/m 3,6 C 4,3 C 3,2 km/h (1 Bft) 100,00 %
12.11.2015 07:27 4,3 C 95 % 1027,1 hPa 0,0 l/m 1,8 km/h (1 Bft) S-SW 200 0 min 0,000 mm 0,0 UV-I 22 W/m 3,6 C 4,3 C 3,2 km/h (1 Bft) 100,00 %
12.11.2015 07:28 4,4 C 95 % 1027,1 hPa 0,0 l/m 3,7 km/h (1 Bft) S-SW 194 0 min 0,000 mm 0,0 UV-I 24 W/m 3,7 C 4,4 C 6,4 km/h (2 Bft) 100,00 %
12.11.2015 07:29 4,4 C 96 % 1027,1 hPa 0,0 l/m 1,8 km/h (1 Bft) S-SW 194 0 min 0,000 mm 0,0 UV-I 25 W/m 3,8 C 4,4 C 3,2 km/h (1 Bft) 100,00 %
12.11.2015 07:30 4,4 C 96 % 1027,1 hPa 0,0 l/m 2,7 km/h (1 Bft) S-SW 211 0 min 0,000 mm 0,0 UV-I 26 W/m 3,8 C 4,4 C 4,8 km/h (1 Bft) 100,00 %
12.11.2015 07:31 4,4 C 96 % 1027,1 hPa 0,0 l/m 2,4 km/h (1 Bft) SW 235 0 min 0,000 mm 0,0 UV-I 26 W/m 3,8 C 4,4 C 3,2 km/h (1 Bft) 100,00 %
12.11.2015 07:32 4,5 C 96 % 1027,2 hPa 0,0 l/m 3,2 km/h (1 Bft) S-SW 210 0 min 0,000 mm 0,0 UV-I 28 W/m 3,9 C 4,5 C 4,8 km/h (1 Bft) 100,00 %
12.11.2015 07:33 4,6 C 96 % 1027,3 hPa 0,0 l/m 3,4 km/h (1 Bft) S-SW 211 0 min 0,000 mm 0,0 UV-I 29 W/m 4,0 C 4,6 C 4,8 km/h (1 Bft) 100,00 %
12.11.2015 07:34 4,6 C 96 % 1027,3 hPa 0,0 l/m 2,1 km/h (1 Bft) S-SW 205 0 min 0,000 mm 0,0 UV-I 30 W/m 4,0 C 4,6 C 3,2 km/h (1 Bft) 100,00 %
12.11.2015 07:35 4,6 C 96 % 1027,2 hPa 0,0 l/m 3,1 km/h (1 Bft) SW 223 0 min 0,000 mm 0,0 UV-I 31 W/m 4,0 C 4,6 C 6,4 km/h (2 Bft) 100,00 %
12.11.2015 07:36 4,6 C 96 % 1027,2 hPa 0,0 l/m 4,6 km/h (1 Bft) S-SW 202 0 min 0,000 mm 0,0 UV-I 32 W/m 4,0 C 4,6 C 6,4 km/h (2 Bft) 100,00 %
12.11.2015 07:37 4,7 C 96 % 1027,2 hPa 0,0 l/m 5,0 km/h (1 Bft) SW 231 0 min 0,000 mm 0,0 UV-I 33 W/m 4,1 C 4,7 C 6,4 km/h (2 Bft) 100,00 %
12.11.2015 07:38 4,7 C 96 % 1027,2 hPa 0,0 l/m 5,3 km/h (1 Bft) SW 221 0 min 0,000 mm 0,0 UV-I 33 W/m 4,1 C 4,7 C 8,0 km/h (2 Bft) 100,00 %
12.11.2015 07:39 4,8 C 96 % 1027,2 hPa 0,0 l/m 4,5 km/h (1 Bft) SW 221 0 min 0,000 mm 0,0 UV-I 36 W/m 4,2 C 4,8 C 6,4 km/h (2 Bft) 96,15 %
12.11.2015 07:40 4,8 C 96 % 1027,2 hPa 0,0 l/m 4,6 km/h (1 Bft) S-SW 213 0 min 0,000 mm 0,0 UV-I 37 W/m 4,2 C 4,8 C 6,4 km/h (2 Bft) 100,00 %
12.11.2015 07:41 4,8 C 95 % 1027,3 hPa 0,0 l/m 1,5 km/h (1 Bft) SW 223 0 min 0,000 mm 0,0 UV-I 39 W/m 4,1 C 4,8 C 3,2 km/h (1 Bft) 100,00 %
12.11.2015 07:42 4,8 C 95 % 1027,3 hPa 0,0 l/m 1,2 km/h (1 Bft) SW 236 1 min 0,000 mm 0,0 UV-I 45 W/m 4,1 C 4,8 C 1,6 km/h (1 Bft) 100,00 %
12.11.2015 07:43 4,8 C 95 % 1027,4 hPa 0,0 l/m 1,8 km/h (1 Bft) SW 236 1 min 0,000 mm 0,0 UV-I 49 W/m 4,1 C 4,8 C 3,2 km/h (1 Bft) 100,00 %
12.11.2015 07:44 4,8 C 95 % 1027,4 hPa 0,0 l/m 1,2 km/h (1 Bft) SW 236 1 min 0,000 mm 0,0 UV-I 51 W/m 4,1 C 4,8 C 1,6 km/h (1 Bft) 100,00 %
12.11.2015 07:45 4,8 C 95 % 1027,4 hPa 0,0 l/m 1,2 km/h (1 Bft) SW 227 1 min 0,000 mm 0,0 UV-I 52 W/m 4,1 C 4,8 C 3,2 km/h (1 Bft) 95,65 %
12.11.2015 07:46 4,8 C 95 % 1027,4 hPa 0,0 l/m 1,9 km/h (1 Bft) SW 229 1 min 0,000 mm 0,0 UV-I 53 W/m 4,1 C 4,8 C 3,2 km/h (1 Bft) 95,83 %
12.11.2015 07:47 4,8 C 95 % 1027,4 hPa 0,0 l/m 2,0 km/h (1 Bft) W-SW 241 1 min 0,000 mm 0,0 UV-I 53 W/m 4,1 C 4,8 C 3,2 km/h (1 Bft) 100,00 %
12.11.2015 07:48 4,8 C 95 % 1027,5 hPa 0,0 l/m 1,5 km/h (1 Bft) W-SW 240 1 min 0,000 mm 0,0 UV-I 53 W/m 4,1 C 4,8 C 3,2 km/h (1 Bft) 100,00 %
12.11.2015 07:49 4,8 C 95 % 1027,5 hPa 0,0 l/m 2,0 km/h (1 Bft) W-SW 246 0 min 0,000 mm 0,0 UV-I 51 W/m 4,1 C 4,8 C 3,2 km/h (1 Bft) 100,00 %
12.11.2015 07:50 4,8 C 95 % 1027,5 hPa 0,0 l/m 2,5 km/h (1 Bft) W-SW 242 0 min 0,000 mm 0,0 UV-I 49 W/m 4,1 C 4,8 C 4,8 km/h (1 Bft) 100,00 %
12.11.2015 07:51 4,8 C 95 % 1027,6 hPa 0,0 l/m 2,4 km/h (1 Bft) W-SW 243 0 min 0,000 mm 0,0 UV-I 52 W/m 4,1 C 4,8 C 3,2 km/h (1 Bft) 100,00 %
12.11.2015 07:52 4,8 C 95 % 1027,6 hPa 0,0 l/m 2,1 km/h (1 Bft) W-SW 246 0 min 0,000 mm 0,0 UV-I 56 W/m 4,1 C 4,8 C 4,8 km/h (1 Bft) 100,00 %
12.11.2015 07:53 4,9 C 95 % 1027,7 hPa 0,0 l/m 2,4 km/h (1 Bft) W-SW 249 1 min 0,000 mm 0,0 UV-I 59 W/m 4,2 C 4,9 C 4,8 km/h (1 Bft) 100,00 %
12.11.2015 07:54 4,9 C 95 % 1027,7 hPa 0,0 l/m 2,0 km/h (1 Bft) W-SW 244 0 min 0,000 mm 0,0 UV-I 58 W/m 4,2 C 4,9 C 3,2 km/h (1 Bft) 100,00 %
12.11.2015 07:55 5,0 C 95 % 1027,7 hPa 0,0 l/m 2,1 km/h (1 Bft) W 272 0 min 0,000 mm 0,0 UV-I 56 W/m 4,3 C 5,0 C 4,8 km/h (1 Bft) 100,00 %
12.11.2015 07:56 5,2 C 95 % 1027,7 hPa 0,0 l/m 3,5 km/h (1 Bft) W-NW 284 0 min 0,000 mm 0,0 UV-I 59 W/m 4,5 C 5,2 C 4,8 km/h (1 Bft) 100,00 %
12.11.2015 07:57 5,2 C 95 % 1027,7 hPa 0,0 l/m 2,5 km/h (1 Bft) W 273 0 min 0,000 mm 0,0 UV-I 64 W/m 4,5 C 5,2 C 3,2 km/h (1 Bft) 100,00 %
12.11.2015 07:58 5,3 C 95 % 1027,8 hPa 0,0 l/m 3,8 km/h (1 Bft) W 269 1 min 0,000 mm 0,0 UV-I 69 W/m 4,6 C 5,3 C 6,4 km/h (2 Bft) 100,00 %
12.11.2015 07:59 5,4 C 95 % 1027,8 hPa 0,0 l/m 3,0 km/h (1 Bft) W-SW 258 1 min 0,000 mm 0,0 UV-I 71 W/m 4,7 C 5,4 C 4,8 km/h (1 Bft) 100,00 %
12.11.2015 08:00 5,6 C 95 % 1027,8 hPa 0,0 l/m 4,1 km/h (1 Bft) W-SW 252 1 min 0,025 mm 0,0 UV-I 74 W/m 4,9 C 5,6 C 6,4 km/h (2 Bft) 100,00 %
12.11.2015 08:01 5,6 C 94 % 1027,8 hPa 0,0 l/m 2,9 km/h (1 Bft) W 268 1 min 0,000 mm 0,0 UV-I 79 W/m 4,7 C 5,6 C 4,8 km/h (1 Bft) 100,00 %
12.11.2015 08:02 5,7 C 94 % 1027,9 hPa 0,0 l/m 3,5 km/h (1 Bft) W-NW 294 1 min 0,000 mm 0,0 UV-I 79 W/m 4,8 C 5,7 C 4,8 km/h (1 Bft) 96,15 %
12.11.2015 08:03 5,7 C 94 % 1027,9 hPa 0,0 l/m 3,4 km/h (1 Bft) W 264 1 min 0,000 mm 0,0 UV-I 79 W/m 4,8 C 5,7 C 4,8 km/h (1 Bft) 100,00 %
12.11.2015 08:04 5,8 C 93 % 1027,9 hPa 0,0 l/m 3,4 km/h (1 Bft) W 273 1 min 0,000 mm 0,0 UV-I 78 W/m 4,8 C 5,8 C 4,8 km/h (1 Bft) 96,15 %
12.11.2015 08:05 5,8 C 93 % 1027,9 hPa 0,0 l/m 2,8 km/h (1 Bft) SW 227 1 min 0,000 mm 0,0 UV-I 77 W/m 4,8 C 5,8 C 4,8 km/h (1 Bft) 100,00 %
12.11.2015 08:06 5,8 C 93 % 1027,9 hPa 0,0 l/m 3,6 km/h (1 Bft) W-SW 242 1 min 0,000 mm 0,0 UV-I 79 W/m 4,8 C 5,8 C 6,4 km/h (2 Bft) 100,00 %
12.11.2015 08:07 5,8 C 93 % 1027,9 hPa 0,0 l/m 3,9 km/h (1 Bft) SW 229 1 min 0,000 mm 0,0 UV-I 79 W/m 4,8 C 5,8 C 6,4 km/h (2 Bft) 100,00 %
12.11.2015 08:08 5,8 C 93 % 1027,9 hPa 0,0 l/m 3,5 km/h (1 Bft) W-SW 242 1 min 0,000 mm 0,0 UV-I 82 W/m 4,8 C 5,8 C 6,4 km/h (2 Bft) 100,00 %
12.11.2015 08:09 5,8 C 93 % 1027,9 hPa 0,0 l/m 3,6 km/h (1 Bft) W 272 1 min 0,000 mm 0,0 UV-I 84 W/m 4,8 C 5,8 C 6,4 km/h (2 Bft) 100,00 %
12.11.2015 08:10 5,9 C 93 % 1028,0 hPa 0,0 l/m 3,7 km/h (1 Bft) W 277 1 min 0,000 mm 0,0 UV-I 88 W/m 4,9 C 5,9 C 8,0 km/h (2 Bft) 100,00 %
12.11.2015 08:11 5,9 C 93 % 1028,0 hPa 0,0 l/m 2,6 km/h (1 Bft) W-SW 240 1 min 0,000 mm 0,0 UV-I 93 W/m 4,9 C 5,9 C 4,8 km/h (1 Bft) 96,30 %
12.11.2015 08:12 5,9 C 93 % 1028,0 hPa 0,0 l/m 3,1 km/h (1 Bft) W 261 1 min 0,000 mm 0,0 UV-I 97 W/m 4,9 C 5,9 C 6,4 km/h (2 Bft) 100,00 %
12.11.2015 08:13 6,0 C 93 % 1028,0 hPa 0,0 l/m 3,6 km/h (1 Bft) W-SW 248 1 min 0,000 mm 0,0 UV-I 99 W/m 5,0 C 6,0 C 6,4 km/h (2 Bft) 100,00 %
12.11.2015 08:14 6,1 C 93 % 1028,0 hPa 0,0 l/m 3,6 km/h (1 Bft) W-SW 242 1 min 0,000 mm 0,0 UV-I 103 W/m 5,1 C 6,1 C 6,4 km/h (2 Bft) 100,00 %
12.11.2015 08:15 6,1 C 93 % 1028,0 hPa 0,0 l/m 3,0 km/h (1 Bft) SW 226 1 min 0,000 mm 0,0 UV-I 107 W/m 5,1 C 6,1 C 4,8 km/h (1 Bft) 100,00 %
12.11.2015 08:16 6,2 C 93 % 1028,1 hPa 0,0 l/m 3,5 km/h (1 Bft) W-SW 257 1 min 0,000 mm 0,0 UV-I 110 W/m 5,2 C 6,2 C 4,8 km/h (1 Bft) 100,00 %
12.11.2015 08:17 6,2 C 93 % 1028,1 hPa 0,0 l/m 3,5 km/h (1 Bft) W 277 1 min 0,000 mm 0,0 UV-I 112 W/m 5,2 C 6,2 C 4,8 km/h (1 Bft) 100,00 %
12.11.2015 08:18 6,3 C 92 % 1028,2 hPa 0,0 l/m 5,5 km/h (1 Bft) W 277 1 min 0,000 mm 0,0 UV-I 116 W/m 5,1 C 6,3 C 8,0 km/h (2 Bft) 100,00 %
12.11.2015 08:19 6,3 C 92 % 1028,2 hPa 0,0 l/m 4,6 km/h (1 Bft) W 266 1 min 0,000 mm 0,0 UV-I 119 W/m 5,1 C 6,3 C 6,4 km/h (2 Bft) 100,00 %
12.11.2015 08:20 6,3 C 92 % 1028,2 hPa 0,0 l/m 3,1 km/h (1 Bft) W-NW 290 1 min 0,000 mm 0,0 UV-I 122 W/m 5,1 C 6,3 C 6,4 km/h (2 Bft) 100,00 %
12.11.2015 08:21 6,4 C 92 % 1028,1 hPa 0,0 l/m 3,6 km/h (1 Bft) SW 229 1 min 0,000 mm 0,0 UV-I 123 W/m 5,2 C 6,4 C 4,8 km/h (1 Bft) 100,00 %
12.11.2015 08:22 6,4 C 92 % 1028,1 hPa 0,0 l/m 3,2 km/h (1 Bft) W-SW 252 1 min 0,000 mm 0,0 UV-I 126 W/m 5,2 C 6,4 C 6,4 km/h (2 Bft) 100,00 %
12.11.2015 08:23 6,4 C 92 % 1028,2 hPa 0,0 l/m 4,3 km/h (1 Bft) W-SW 238 1 min 0,000 mm 0,0 UV-I 128 W/m 5,2 C 6,4 C 6,4 km/h (2 Bft) 100,00 %
12.11.2015 08:24 6,5 C 92 % 1028,2 hPa 0,0 l/m 4,8 km/h (1 Bft) W-NW 284 1 min 0,000 mm 0,0 UV-I 128 W/m 5,3 C 6,5 C 11,3 km/h (2 Bft) 91,67 %
12.11.2015 08:25 6,5 C 92 % 1028,2 hPa 0,0 l/m 3,8 km/h (1 Bft) W-SW 254 1 min 0,000 mm 0,0 UV-I 127 W/m 5,3 C 6,5 C 4,8 km/h (1 Bft) 92,86 %
12.11.2015 08:26 6,5 C 92 % 1028,2 hPa 0,0 l/m 3,4 km/h (1 Bft) W-NW 296 1 min 0,000 mm 0,0 UV-I 123 W/m 5,3 C 6,5 C 4,8 km/h (1 Bft) 100,00 %
12.11.2015 08:27 6,6 C 92 % 1028,2 hPa 0,0 l/m 3,3 km/h (1 Bft) W-NW 290 1 min 0,000 mm 0,0 UV-I 120 W/m 5,4 C 6,6 C 6,4 km/h (2 Bft) 100,00 %
12.11.2015 08:28 6,6 C 92 % 1028,2 hPa 0,0 l/m 3,6 km/h (1 Bft) SW 223 1 min 0,000 mm 0,0 UV-I 120 W/m 5,4 C 6,6 C 8,0 km/h (2 Bft) 95,83 %
12.11.2015 08:29 6,6 C 92 % 1028,3 hPa 0,0 l/m 3,7 km/h (1 Bft) S-SW 212 1 min 0,000 mm 0,0 UV-I 121 W/m 5,4 C 6,6 C 9,7 km/h (2 Bft) 100,00 %
12.11.2015 08:30 6,6 C 92 % 1028,2 hPa 0,0 l/m 3,5 km/h (1 Bft) W-SW 253 1 min 0,000 mm 0,0 UV-I 125 W/m 5,4 C 6,6 C 4,8 km/h (1 Bft) 100,00 %
12.11.2015 08:31 6,7 C 92 % 1028,3 hPa 0,0 l/m 3,8 km/h (1 Bft) W 261 1 min 0,000 mm 0,0 UV-I 125 W/m 5,5 C 6,7 C 4,8 km/h (1 Bft) 100,00 %
12.11.2015 08:32 6,7 C 92 % 1028,3 hPa 0,0 l/m 4,8 km/h (1 Bft) W 263 1 min 0,000 mm 0,0 UV-I 130 W/m 5,5 C 6,7 C 8,0 km/h (2 Bft) 100,00 %
12.11.2015 08:33 6,7 C 92 % 1028,3 hPa 0,0 l/m 4,1 km/h (1 Bft) NW 319 1 min 0,000 mm 0,0 UV-I 133 W/m 5,5 C 6,7 C 6,4 km/h (2 Bft) 100,00 %
12.11.2015 08:34 6,7 C 92 % 1028,3 hPa 0,0 l/m 4,8 km/h (1 Bft) W 272 1 min 0,000 mm 0,0 UV-I 136 W/m 5,5 C 6,7 C 9,7 km/h (2 Bft) 100,00 %
12.11.2015 08:35 6,8 C 92 % 1028,3 hPa 0,0 l/m 4,5 km/h (1 Bft) W-SW 252 1 min 0,000 mm 0,0 UV-I 126 W/m 5,6 C 6,8 C 6,4 km/h (2 Bft) 100,00 %
12.11.2015 08:36 6,8 C 91 % 1028,3 hPa 0,0 l/m 4,2 km/h (1 Bft) W 271 1 min 0,000 mm 0,0 UV-I 131 W/m 5,4 C 6,8 C 6,4 km/h (2 Bft) 100,00 %
12.11.2015 08:37 6,8 C 92 % 1028,3 hPa 0,0 l/m 3,8 km/h (1 Bft) W 267 1 min 0,000 mm 0,0 UV-I 131 W/m 5,6 C 6,8 C 4,8 km/h (1 Bft) 100,00 %
12.11.2015 08:38 6,9 C 92 % 1028,3 hPa 0,0 l/m 4,3 km/h (1 Bft) W 263 1 min 0,000 mm 0,0 UV-I 133 W/m 5,7 C 6,9 C 6,4 km/h (2 Bft) 95,83 %
12.11.2015 08:39 6,9 C 92 % 1028,3 hPa 0,0 l/m 3,7 km/h (1 Bft) W 268 1 min 0,000 mm 0,0 UV-I 133 W/m 5,7 C 6,9 C 4,8 km/h (1 Bft) 100,00 %
12.11.2015 08:40 6,9 C 91 % 1028,4 hPa 0,0 l/m 3,7 km/h (1 Bft) SW 225 1 min 0,000 mm 0,0 UV-I 135 W/m 5,5 C 6,9 C 4,8 km/h (1 Bft) 100,00 %
12.11.2015 08:41 6,9 C 91 % 1028,4 hPa 0,0 l/m 4,8 km/h (1 Bft) W-SW 256 1 min 0,000 mm 0,0 UV-I 143 W/m 5,5 C 6,9 C 6,4 km/h (2 Bft) 100,00 %
12.11.2015 08:42 6,9 C 91 % 1028,4 hPa 0,0 l/m 4,7 km/h (1 Bft) W 265 1 min 0,000 mm 0,0 UV-I 149 W/m 5,5 C 6,9 C 6,4 km/h (2 Bft) 100,00 %
12.11.2015 08:43 7,0 C 91 % 1028,4 hPa 0,0 l/m 3,9 km/h (1 Bft) W 275 1 min 0,000 mm 0,0 UV-I 152 W/m 5,6 C 7,0 C 4,8 km/h (1 Bft) 100,00 %
12.11.2015 08:44 7,0 C 91 % 1028,4 hPa 0,0 l/m 4,7 km/h (1 Bft) W 267 1 min 0,000 mm 0,0 UV-I 152 W/m 5,6 C 7,0 C 8,0 km/h (2 Bft) 100,00 %
12.11.2015 08:45 7,1 C 91 % 1028,4 hPa 0,0 l/m 5,3 km/h (1 Bft) W 278 1 min 0,000 mm 0,0 UV-I 148 W/m 5,7 C 7,1 C 6,4 km/h (2 Bft) 100,00 %
12.11.2015 08:46 7,1 C 91 % 1028,5 hPa 0,0 l/m 3,9 km/h (1 Bft) W-NW 287 1 min 0,000 mm 0,0 UV-I 150 W/m 5,7 C 7,1 C 4,8 km/h (1 Bft) 100,00 %
12.11.2015 08:47 7,1 C 91 % 1028,5 hPa 0,0 l/m 4,9 km/h (1 Bft) W 269 1 min 0,000 mm 0,0 UV-I 168 W/m 5,7 C 7,1 C 8,0 km/h (2 Bft) 100,00 %
12.11.2015 08:48 7,2 C 91 % 1028,5 hPa 0,0 l/m 6,3 km/h (2 Bft) SW 236 1 min 0,000 mm 0,0 UV-I 185 W/m 5,8 C 7,2 C 9,7 km/h (2 Bft) 100,00 %
12.11.2015 08:49 7,2 C 91 % 1028,5 hPa 0,0 l/m 4,8 km/h (1 Bft) W-NW 283 1 min 0,000 mm 0,0 UV-I 197 W/m 5,8 C 7,2 C 6,4 km/h (2 Bft) 100,00 %
12.11.2015 08:50 7,2 C 91 % 1028,5 hPa 0,0 l/m 4,7 km/h (1 Bft) W 274 1 min 0,000 mm 0,0 UV-I 208 W/m 5,8 C 7,2 C 6,4 km/h (2 Bft) 95,65 %
12.11.2015 08:51 7,2 C 91 % 1028,6 hPa 0,0 l/m 4,2 km/h (1 Bft) W-SW 238 1 min 0,000 mm 0,0 UV-I 217 W/m 5,8 C 7,2 C 6,4 km/h (2 Bft) 100,00 %
12.11.2015 08:52 7,3 C 91 % 1028,6 hPa 0,0 l/m 4,2 km/h (1 Bft) W 281 1 min 0,000 mm 0,0 UV-I 220 W/m 5,9 C 7,3 C 6,4 km/h (2 Bft) 100,00 %
12.11.2015 08:53 7,3 C 91 % 1028,6 hPa 0,0 l/m 3,8 km/h (1 Bft) W-NW 287 1 min 0,000 mm 0,0 UV-I 222 W/m 5,9 C 7,3 C 6,4 km/h (2 Bft) 100,00 %
12.11.2015 08:54 7,4 C 91 % 1028,6 hPa 0,0 l/m 6,1 km/h (2 Bft) W-SW 255 1 min 0,000 mm 0,0 UV-I 184 W/m 6,0 C 7,4 C 9,7 km/h (2 Bft) 100,00 %
12.11.2015 08:55 7,4 C 91 % 1028,6 hPa 0,0 l/m 5,0 km/h (1 Bft) W 261 1 min 0,000 mm 0,0 UV-I 223 W/m 6,0 C 7,4 C 6,4 km/h (2 Bft) 100,00 %
12.11.2015 08:56 7,4 C 91 % 1028,6 hPa 0,0 l/m 4,3 km/h (1 Bft) SW 232 1 min 0,000 mm 0,0 UV-I 195 W/m 6,0 C 7,4 C 6,4 km/h (2 Bft) 100,00 %
12.11.2015 08:57 7,5 C 91 % 1028,6 hPa 0,0 l/m 5,3 km/h (1 Bft) W 271 1 min 0,000 mm 0,0 UV-I 170 W/m 6,1 C 7,5 C 11,3 km/h (2 Bft) 100,00 %
12.11.2015 08:58 7,5 C 91 % 1028,6 hPa 0,0 l/m 4,3 km/h (1 Bft) W-NW 283 1 min 0,000 mm 0,0 UV-I 148 W/m 6,1 C 7,5 C 6,4 km/h (2 Bft) 100,00 %
12.11.2015 08:59 7,6 C 91 % 1028,7 hPa 0,0 l/m 5,6 km/h (1 Bft) W 264 0 min 0,000 mm 0,0 UV-I 136 W/m 6,2 C 7,6 C 9,7 km/h (2 Bft) 100,00 %
12.11.2015 09:00 7,6 C 90 % 1028,7 hPa 0,0 l/m 7,9 km/h (2 Bft) W 268 0 min 0,000 mm 0,0 UV-I 138 W/m 6,1 C 6,4 C 12,9 km/h (3 Bft) 100,00 %
12.11.2015 09:01 7,6 C 90 % 1028,8 hPa 0,0 l/m 6,0 km/h (2 Bft) W-NW 289 1 min 0,051 mm 0,0 UV-I 152 W/m 6,1 C 7,6 C 11,3 km/h (2 Bft) 100,00 %
12.11.2015 09:02 7,6 C 90 % 1028,8 hPa 0,0 l/m 4,8 km/h (1 Bft) W 273 1 min 0,000 mm 0,0 UV-I 170 W/m 6,1 C 7,6 C 9,7 km/h (2 Bft) 100,00 %
12.11.2015 09:03 7,6 C 90 % 1028,8 hPa 0,0 l/m 7,0 km/h (2 Bft) W 270 1 min 0,000 mm 0,0 UV-I 179 W/m 6,1 C 7,1 C 11,3 km/h (2 Bft) 96,15 %
12.11.2015 09:04 7,6 C 90 % 1028,9 hPa 0,0 l/m 4,8 km/h (1 Bft) W-NW 283 1 min 0,000 mm 0,0 UV-I 173 W/m 6,1 C 7,6 C 9,7 km/h (2 Bft) 100,00 %
12.11.2015 09:05 7,6 C 90 % 1028,9 hPa 0,0 l/m 5,3 km/h (1 Bft) W 273 1 min 0,000 mm 0,0 UV-I 160 W/m 6,1 C 7,6 C 11,3 km/h (2 Bft) 100,00 %
12.11.2015 09:06 7,7 C 90 % 1029,0 hPa 0,0 l/m 4,0 km/h (1 Bft) W-NW 296 0 min 0,000 mm 0,0 UV-I 141 W/m 6,2 C 7,7 C 6,4 km/h (2 Bft) 100,00 %
12.11.2015 09:07 7,7 C 90 % 1029,0 hPa 0,0 l/m 5,3 km/h (1 Bft) W-NW 285 0 min 0,000 mm 0,0 UV-I 133 W/m 6,2 C 7,7 C 6,4 km/h (2 Bft) 100,00 %
12.11.2015 09:08 7,7 C 90 % 1028,9 hPa 0,0 l/m 4,0 km/h (1 Bft) W 272 0 min 0,000 mm 0,0 UV-I 133 W/m 6,2 C 7,7 C 6,4 km/h (2 Bft) 100,00 %
12.11.2015 09:09 7,7 C 90 % 1028,9 hPa 0,0 l/m 5,8 km/h (2 Bft) W-NW 288 0 min 0,000 mm 0,0 UV-I 130 W/m 6,2 C 7,7 C 9,7 km/h (2 Bft) 100,00 %
12.11.2015 09:10 7,7 C 90 % 1028,9 hPa 0,0 l/m 5,0 km/h (1 Bft) W 275 0 min 0,000 mm 0,0 UV-I 135 W/m 6,2 C 7,7 C 9,7 km/h (2 Bft) 100,00 %
12.11.2015 09:11 7,7 C 90 % 1028,9 hPa 0,0 l/m 7,8 km/h (2 Bft) W 271 0 min 0,000 mm 0,0 UV-I 144 W/m 6,2 C 6,6 C 12,9 km/h (3 Bft) 100,00 %
12.11.2015 09:12 7,7 C 89 % 1028,9 hPa 0,0 l/m 6,1 km/h (2 Bft) W 274 0 min 0,000 mm 0,0 UV-I 132 W/m 6,0 C 7,7 C 9,7 km/h (2 Bft) 95,83 %
12.11.2015 09:13 7,7 C 90 % 1028,9 hPa 0,0 l/m 4,7 km/h (1 Bft) W 261 0 min 0,000 mm 0,0 UV-I 134 W/m 6,2 C 7,7 C 6,4 km/h (2 Bft) 100,00 %
12.11.2015 09:14 7,7 C 90 % 1029,0 hPa 0,0 l/m 5,4 km/h (1 Bft) S-SW 211 1 min 0,000 mm 0,0 UV-I 156 W/m 6,2 C 7,7 C 8,0 km/h (2 Bft) 100,00 %
12.11.2015 09:15 7,7 C 90 % 1029,0 hPa 0,0 l/m 6,1 km/h (2 Bft) W-NW 284 0 min 0,000 mm 0,0 UV-I 150 W/m 6,2 C 7,7 C 11,3 km/h (2 Bft) 100,00 %
12.11.2015 09:16 7,7 C 90 % 1029,1 hPa 0,0 l/m 6,1 km/h (2 Bft) W-NW 288 0 min 0,000 mm 0,0 UV-I 129 W/m 6,2 C 7,7 C 9,7 km/h (2 Bft) 96,55 %
12.11.2015 09:17 7,7 C 90 % 1029,1 hPa 0,0 l/m 4,3 km/h (1 Bft) W-NW 298 0 min 0,000 mm 0,0 UV-I 114 W/m 6,2 C 7,7 C 8,0 km/h (2 Bft) 100,00 %
12.11.2015 09:18 7,7 C 90 % 1029,0 hPa 0,0 l/m 5,6 km/h (1 Bft) W 265 0 min 0,000 mm 0,0 UV-I 124 W/m 6,2 C 7,7 C 9,7 km/h (2 Bft) 100,00 %
12.11.2015 09:19 7,7 C 90 % 1029,0 hPa 0,0 l/m 4,0 km/h (1 Bft) W-NW 286 0 min 0,000 mm 0,0 UV-I 127 W/m 6,2 C 7,7 C 4,8 km/h (1 Bft) 100,00 %
12.11.2015 09:20 7,8 C 90 % 1029,0 hPa 0,0 l/m 3,1 km/h (1 Bft) W 276 0 min 0,000 mm 0,0 UV-I 123 W/m 6,3 C 7,8 C 4,8 km/h (1 Bft) 96,15 %
12.11.2015 09:21 7,8 C 90 % 1029,0 hPa 0,0 l/m 3,2 km/h (1 Bft) W 275 0 min 0,000 mm 0,0 UV-I 114 W/m 6,3 C 7,8 C 6,4 km/h (2 Bft) 95,83 %
12.11.2015 09:22 7,8 C 90 % 1029,0 hPa 0,0 l/m 5,7 km/h (1 Bft) W 269 0 min 0,000 mm 0,0 UV-I 107 W/m 6,3 C 7,8 C 11,3 km/h (2 Bft) 100,00 %
12.11.2015 09:23 7,8 C 90 % 1029,0 hPa 0,0 l/m 4,9 km/h (1 Bft) W 263 0 min 0,000 mm 0,0 UV-I 115 W/m 6,3 C 7,8 C 9,7 km/h (2 Bft) 100,00 %
12.11.2015 09:24 7,8 C 90 % 1029,0 hPa 0,0 l/m 3,1 km/h (1 Bft) W-SW 241 0 min 0,000 mm 0,1 UV-I 124 W/m 6,3 C 7,8 C 6,4 km/h (2 Bft) 100,00 %
12.11.2015 09:25 7,9 C 90 % 1029,0 hPa 0,0 l/m 4,6 km/h (1 Bft) W-NW 284 0 min 0,000 mm 0,5 UV-I 138 W/m 6,4 C 7,9 C 9,7 km/h (2 Bft) 100,00 %
12.11.2015 09:26 7,9 C 90 % 1029,1 hPa 0,0 l/m 3,8 km/h (1 Bft) W 273 0 min 0,000 mm 0,5 UV-I 149 W/m 6,4 C 7,9 C 6,4 km/h (2 Bft) 100,00 %
12.11.2015 09:27 7,9 C 90 % 1029,0 hPa 0,0 l/m 2,7 km/h (1 Bft) W-NW 283 0 min 0,000 mm 0,5 UV-I 144 W/m 6,4 C 7,9 C 3,2 km/h (1 Bft) 100,00 %
12.11.2015 09:28 7,9 C 90 % 1029,1 hPa 0,0 l/m 3,3 km/h (1 Bft) W-NW 294 0 min 0,000 mm 0,5 UV-I 135 W/m 6,4 C 7,9 C 4,8 km/h (1 Bft) 100,00 %
12.11.2015 09:29 7,9 C 90 % 1029,1 hPa 0,0 l/m 4,0 km/h (1 Bft) W 267 0 min 0,000 mm 0,5 UV-I 132 W/m 6,4 C 7,9 C 6,4 km/h (2 Bft) 95,83 %
12.11.2015 09:30 8,0 C 90 % 1029,1 hPa 0,0 l/m 2,7 km/h (1 Bft) SW 236 0 min 0,000 mm 0,5 UV-I 145 W/m 6,5 C 8,0 C 4,8 km/h (1 Bft) 95,65 %
12.11.2015 09:31 8,0 C 90 % 1029,1 hPa 0,0 l/m 3,7 km/h (1 Bft) W 275 0 min 0,000 mm 0,4 UV-I 155 W/m 6,5 C 8,0 C 4,8 km/h (1 Bft) 100,00 %
12.11.2015 09:32 8,1 C 90 % 1029,1 hPa 0,0 l/m 3,9 km/h (1 Bft) W 273 0 min 0,000 mm 0,0 UV-I 132 W/m 6,6 C 8,1 C 6,4 km/h (2 Bft) 100,00 %
12.11.2015 09:33 8,1 C 90 % 1029,1 hPa 0,0 l/m 3,6 km/h (1 Bft) W-NW 290 0 min 0,000 mm 0,0 UV-I 108 W/m 6,6 C 8,1 C 6,4 km/h (2 Bft) 100,00 %
12.11.2015 09:34 8,1 C 90 % 1029,1 hPa 0,0 l/m 3,7 km/h (1 Bft) W-SW 252 0 min 0,000 mm 0,0 UV-I 98 W/m 6,6 C 8,1 C 4,8 km/h (1 Bft) 100,00 %
12.11.2015 09:35 8,1 C 90 % 1029,1 hPa 0,0 l/m 2,9 km/h (1 Bft) SW 230 0 min 0,000 mm 0,0 UV-I 93 W/m 6,6 C 8,1 C 6,4 km/h (2 Bft) 100,00 %
12.11.2015 09:36 8,1 C 90 % 1029,1 hPa 0,0 l/m 3,8 km/h (1 Bft) W 263 0 min 0,000 mm 0,0 UV-I 103 W/m 6,6 C 8,1 C 8,0 km/h (2 Bft) 100,00 %
12.11.2015 09:37 8,1 C 90 % 1029,1 hPa 0,0 l/m 4,5 km/h (1 Bft) W 273 0 min 0,000 mm 0,0 UV-I 102 W/m 6,6 C 8,1 C 8,0 km/h (2 Bft) 100,00 %
12.11.2015 09:38 8,1 C 90 % 1029,1 hPa 0,0 l/m 4,8 km/h (1 Bft) W-NW 290 0 min 0,000 mm 0,0 UV-I 98 W/m 6,6 C 8,1 C 6,4 km/h (2 Bft) 100,00 %
12.11.2015 09:39 8,1 C 90 % 1029,1 hPa 0,0 l/m 3,7 km/h (1 Bft) SW 229 0 min 0,000 mm 0,0 UV-I 95 W/m 6,6 C 8,1 C 6,4 km/h (2 Bft) 100,00 %
12.11.2015 09:40 8,2 C 90 % 1029,1 hPa 0,0 l/m 4,6 km/h (1 Bft) W 266 0 min 0,000 mm 0,0 UV-I 98 W/m 6,7 C 8,2 C 6,4 km/h (2 Bft) 100,00 %
12.11.2015 09:41 8,2 C 90 % 1029,1 hPa 0,0 l/m 3,7 km/h (1 Bft) W-SW 251 0 min 0,000 mm 0,0 UV-I 98 W/m 6,7 C 8,2 C 6,4 km/h (2 Bft) 100,00 %
12.11.2015 09:42 8,2 C 90 % 1029,1 hPa 0,0 l/m 3,9 km/h (1 Bft) W-NW 282 0 min 0,000 mm 0,0 UV-I 105 W/m 6,7 C 8,2 C 6,4 km/h (2 Bft) 100,00 %
12.11.2015 09:43 8,2 C 90 % 1029,1 hPa 0,0 l/m 3,2 km/h (1 Bft) W 275 0 min 0,000 mm 0,0 UV-I 106 W/m 6,7 C 8,2 C 4,8 km/h (1 Bft) 100,00 %
12.11.2015 09:44 8,2 C 90 % 1029,1 hPa 0,0 l/m 3,3 km/h (1 Bft) W-SW 238 0 min 0,000 mm 0,0 UV-I 98 W/m 6,7 C 8,2 C 4,8 km/h (1 Bft) 100,00 %
12.11.2015 09:45 8,2 C 90 % 1029,1 hPa 0,0 l/m 4,0 km/h (1 Bft) W-SW 248 0 min 0,000 mm 0,0 UV-I 79 W/m 6,7 C 8,2 C 4,8 km/h (1 Bft) 100,00 %
12.11.2015 09:46 8,2 C 90 % 1029,2 hPa 0,0 l/m 6,1 km/h (2 Bft) W-NW 293 0 min 0,000 mm 0,0 UV-I 67 W/m 6,7 C 8,2 C 11,3 km/h (2 Bft) 100,00 %
12.11.2015 09:47 8,2 C 90 % 1029,2 hPa 0,0 l/m 5,6 km/h (1 Bft) W-NW 296 0 min 0,000 mm 0,0 UV-I 61 W/m 6,7 C 8,2 C 9,7 km/h (2 Bft) 100,00 %
12.11.2015 09:48 8,2 C 89 % 1029,2 hPa 0,0 l/m 4,7 km/h (1 Bft) W-NW 285 0 min 0,000 mm 0,0 UV-I 54 W/m 6,5 C 8,2 C 6,4 km/h (2 Bft) 100,00 %
12.11.2015 09:49 8,2 C 89 % 1029,2 hPa 0,0 l/m 4,5 km/h (1 Bft) W 261 0 min 0,000 mm 0,0 UV-I 54 W/m 6,5 C 8,2 C 6,4 km/h (2 Bft) 99,24 %
12.11.2015 09:50 8,2 C 90 % 1029,2 hPa 0,0 l/m 4,6 km/h (1 Bft) W-NW 296 0 min 0,000 mm 0,0 UV-I 63 W/m 6,7 C 8,2 C 6,4 km/h (2 Bft) 94,74 %
12.11.2015 09:51 8,3 C 90 % 1029,2 hPa 0,0 l/m 3,2 km/h (1 Bft) W-SW 257 0 min 0,000 mm 0,0 UV-I 69 W/m 6,8 C 8,3 C 4,8 km/h (1 Bft) 100,00 %
12.11.2015 09:52 8,3 C 90 % 1029,2 hPa 0,0 l/m 2,5 km/h (1 Bft) W 278 0 min 0,000 mm 0,0 UV-I 72 W/m 6,8 C 8,3 C 4,8 km/h (1 Bft) 100,00 %
12.11.2015 09:53 8,3 C 90 % 1029,2 hPa 0,0 l/m 2,5 km/h (1 Bft) W-SW 248 0 min 0,000 mm 0,0 UV-I 78 W/m 6,8 C 8,3 C 3,2 km/h (1 Bft) 100,00 %
12.11.2015 09:54 8,3 C 90 % 1029,2 hPa 0,0 l/m 1,9 km/h (1 Bft) W 271 0 min 0,000 mm 0,0 UV-I 83 W/m 6,8 C 8,3 C 3,2 km/h (1 Bft) 100,00 %
12.11.2015 09:55 8,3 C 90 % 1029,3 hPa 0,0 l/m 2,3 km/h (1 Bft) W 271 0 min 0,000 mm 0,0 UV-I 89 W/m 6,8 C 8,3 C 3,2 km/h (1 Bft) 100,00 %
12.11.2015 09:56 8,3 C 90 % 1029,2 hPa 0,0 l/m 3,2 km/h (1 Bft) W 261 0 min 0,000 mm 0,0 UV-I 99 W/m 6,8 C 8,3 C 4,8 km/h (1 Bft) 95,83 %
12.11.2015 09:57 8,3 C 90 % 1029,3 hPa 0,0 l/m 2,1 km/h (1 Bft) W-NW 284 0 min 0,000 mm 0,0 UV-I 104 W/m 6,8 C 8,3 C 3,2 km/h (1 Bft) 100,00 %
12.11.2015 09:58 8,4 C 90 % 1029,3 hPa 0,0 l/m 4,2 km/h (1 Bft) W-NW 282 0 min 0,000 mm 0,0 UV-I 103 W/m 6,9 C 8,4 C 6,4 km/h (2 Bft) 100,00 %
12.11.2015 09:59 8,4 C 90 % 1029,3 hPa 0,0 l/m 3,0 km/h (1 Bft) W-NW 288 0 min 0,000 mm 0,0 UV-I 99 W/m 6,9 C 8,4 C 4,8 km/h (1 Bft) 100,00 %
12.11.2015 10:00 8,4 C 90 % 1029,3 hPa 0,0 l/m 2,4 km/h (1 Bft) W 273 0 min 0,051 mm 0,0 UV-I 104 W/m 6,9 C 8,4 C 3,2 km/h (1 Bft) 96,15 %
12.11.2015 10:01 8,5 C 90 % 1029,3 hPa 0,0 l/m 3,6 km/h (1 Bft) W-NW 290 0 min 0,000 mm 0,0 UV-I 101 W/m 7,0 C 8,5 C 6,4 km/h (2 Bft) 100,00 %
12.11.2015 10:02 8,5 C 90 % 1029,3 hPa 0,0 l/m 5,7 km/h (1 Bft) W 279 0 min 0,000 mm 0,0 UV-I 101 W/m 7,0 C 8,5 C 8,0 km/h (2 Bft) 100,00 %
12.11.2015 10:03 8,6 C 90 % 1029,4 hPa 0,0 l/m 3,8 km/h (1 Bft) SW 227 0 min 0,000 mm 0,0 UV-I 99 W/m 7,1 C 8,6 C 6,4 km/h (2 Bft) 100,00 %
12.11.2015 10:04 8,6 C 89 % 1029,4 hPa 0,0 l/m 4,9 km/h (1 Bft) W 275 0 min 0,000 mm 0,0 UV-I 100 W/m 6,9 C 8,6 C 6,4 km/h (2 Bft) 100,00 %
12.11.2015 10:05 8,6 C 89 % 1029,4 hPa 0,0 l/m 4,2 km/h (1 Bft) W 266 0 min 0,000 mm 0,0 UV-I 100 W/m 6,9 C 8,6 C 6,4 km/h (2 Bft) 95,83 %
12.11.2015 10:06 8,7 C 89 % 1029,4 hPa 0,0 l/m 6,2 km/h (2 Bft) W 277 0 min 0,000 mm 0,0 UV-I 100 W/m 7,0 C 8,7 C 9,7 km/h (2 Bft) 100,00 %
12.11.2015 10:07 8,7 C 89 % 1029,4 hPa 0,0 l/m 4,4 km/h (1 Bft) W-NW 286 0 min 0,000 mm 0,0 UV-I 99 W/m 7,0 C 8,7 C 6,4 km/h (2 Bft) 100,00 %
12.11.2015 10:08 8,7 C 88 % 1029,4 hPa 0,0 l/m 5,4 km/h (1 Bft) W 269 0 min 0,000 mm 0,0 UV-I 82 W/m 6,8 C 8,7 C 9,7 km/h (2 Bft) 100,00 %
12.11.2015 10:09 8,7 C 88 % 1029,4 hPa 0,0 l/m 5,4 km/h (1 Bft) W 269 0 min 0,000 mm 0,0 UV-I 71 W/m 6,8 C 8,7 C 9,7 km/h (2 Bft) 100,00 %
12.11.2015 10:10 8,7 C 88 % 1029,4 hPa 0,0 l/m 3,2 km/h (1 Bft) SW 215 0 min 0,000 mm 0,0 UV-I 74 W/m 6,8 C 8,7 C 6,4 km/h (2 Bft) 100,00 %
12.11.2015 10:11 8,7 C 89 % 1029,4 hPa 0,0 l/m 4,1 km/h (1 Bft) W 269 0 min 0,000 mm 0,0 UV-I 80 W/m 7,0 C 8,7 C 6,4 km/h (2 Bft) 100,00 %
12.11.2015 10:12 8,7 C 89 % 1029,4 hPa 0,0 l/m 4,4 km/h (1 Bft) W 269 0 min 0,000 mm 0,5 UV-I 102 W/m 7,0 C 8,7 C 11,3 km/h (2 Bft) 100,00 %
12.11.2015 10:13 8,7 C 89 % 1029,4 hPa 0,0 l/m 4,2 km/h (1 Bft) W 277 0 min 0,000 mm 0,5 UV-I 119 W/m 7,0 C 8,7 C 6,4 km/h (2 Bft) 100,00 %
12.11.2015 10:14 8,7 C 88 % 1029,4 hPa 0,0 l/m 3,8 km/h (1 Bft) W-SW 254 0 min 0,000 mm 0,5 UV-I 128 W/m 6,8 C 8,7 C 6,4 km/h (2 Bft) 100,00 %
12.11.2015 10:15 8,8 C 89 % 1029,4 hPa 0,0 l/m 3,2 km/h (1 Bft) W 268 0 min 0,000 mm 0,6 UV-I 132 W/m 7,1 C 8,8 C 4,8 km/h (1 Bft) 100,00 %
12.11.2015 10:16 8,8 C 89 % 1029,4 hPa 0,0 l/m 6,2 km/h (2 Bft) W 269 0 min 0,000 mm 0,6 UV-I 136 W/m 7,1 C 8,8 C 11,3 km/h (2 Bft) 100,00 %
12.11.2015 10:17 8,8 C 88 % 1029,4 hPa 0,0 l/m 3,7 km/h (1 Bft) W 271 0 min 0,000 mm 0,6 UV-I 151 W/m 6,9 C 8,8 C 6,4 km/h (2 Bft) 100,00 %
12.11.2015 10:18 8,8 C 89 % 1029,4 hPa 0,0 l/m 4,3 km/h (1 Bft) S-SW 209 0 min 0,000 mm 0,7 UV-I 147 W/m 7,1 C 8,8 C 6,4 km/h (2 Bft) 100,00 %
12.11.2015 10:19 8,9 C 88 % 1029,4 hPa 0,0 l/m 3,7 km/h (1 Bft) W 271 0 min 0,000 mm 0,6 UV-I 130 W/m 7,0 C 8,9 C 6,4 km/h (2 Bft) 100,00 %
12.11.2015 10:20 8,9 C 89 % 1029,4 hPa 0,0 l/m 3,3 km/h (1 Bft) W 267 0 min 0,000 mm 0,7 UV-I 136 W/m 7,2 C 8,9 C 6,4 km/h (2 Bft) 100,00 %
12.11.2015 10:21 8,9 C 88 % 1029,4 hPa 0,0 l/m 3,1 km/h (1 Bft) SW 225 0 min 0,000 mm 0,7 UV-I 156 W/m 7,0 C 8,9 C 4,8 km/h (1 Bft) 100,00 %
12.11.2015 10:22 9,0 C 89 % 1029,4 hPa 0,0 l/m 2,6 km/h (1 Bft) W 281 0 min 0,000 mm 0,7 UV-I 173 W/m 7,3 C 9,0 C 3,2 km/h (1 Bft) 100,00 %
12.11.2015 10:23 9,1 C 89 % 1029,4 hPa 0,0 l/m 3,9 km/h (1 Bft) W-SW 252 0 min 0,000 mm 0,7 UV-I 180 W/m 7,4 C 9,1 C 4,8 km/h (1 Bft) 100,00 %
12.11.2015 10:24 9,1 C 89 % 1029,4 hPa 0,0 l/m 3,2 km/h (1 Bft) S-SW 198 0 min 0,000 mm 0,7 UV-I 174 W/m 7,4 C 9,1 C 4,8 km/h (1 Bft) 100,00 %
12.11.2015 10:25 9,1 C 89 % 1029,4 hPa 0,0 l/m 3,0 km/h (1 Bft) SW 218 0 min 0,000 mm 0,7 UV-I 157 W/m 7,4 C 9,1 C 6,4 km/h (2 Bft) 100,00 %
12.11.2015 10:26 9,2 C 89 % 1029,4 hPa 0,0 l/m 3,0 km/h (1 Bft) SW 223 0 min 0,000 mm 0,7 UV-I 153 W/m 7,5 C 9,2 C 4,8 km/h (1 Bft) 100,00 %
12.11.2015 10:27 9,2 C 88 % 1029,4 hPa 0,0 l/m 2,8 km/h (1 Bft) SW 236 0 min 0,000 mm 0,7 UV-I 150 W/m 7,3 C 9,2 C 4,8 km/h (1 Bft) 100,00 %
12.11.2015 10:28 9,2 C 88 % 1029,4 hPa 0,0 l/m 5,6 km/h (1 Bft) SW 219 0 min 0,000 mm 0,7 UV-I 155 W/m 7,3 C 9,2 C 9,7 km/h (2 Bft) 100,00 %
12.11.2015 10:29 9,2 C 88 % 1029,4 hPa 0,0 l/m 4,3 km/h (1 Bft) SW 227 0 min 0,000 mm 0,8 UV-I 159 W/m 7,3 C 9,2 C 6,4 km/h (2 Bft) 100,00 %
12.11.2015 10:30 9,2 C 88 % 1029,4 hPa 0,0 l/m 5,4 km/h (1 Bft) SW 219 0 min 0,000 mm 0,8 UV-I 176 W/m 7,3 C 9,2 C 8,0 km/h (2 Bft) 100,00 %
12.11.2015 10:31 9,2 C 88 % 1029,4 hPa 0,0 l/m 5,0 km/h (1 Bft) SW 234 0 min 0,000 mm 0,8 UV-I 194 W/m 7,3 C 9,2 C 9,7 km/h (2 Bft) 100,00 %
12.11.2015 10:32 9,2 C 88 % 1029,4 hPa 0,0 l/m 5,4 km/h (1 Bft) SW 227 0 min 0,000 mm 0,8 UV-I 182 W/m 7,3 C 9,2 C 9,7 km/h (2 Bft) 100,00 %
12.11.2015 10:33 9,2 C 88 % 1029,4 hPa 0,0 l/m 5,1 km/h (1 Bft) S-SW 211 0 min 0,000 mm 0,8 UV-I 162 W/m 7,3 C 9,2 C 6,4 km/h (2 Bft) 100,00 %
12.11.2015 10:34 9,2 C 88 % 1029,4 hPa 0,0 l/m 7,0 km/h (2 Bft) SW 232 0 min 0,000 mm 0,8 UV-I 152 W/m 7,3 C 8,8 C 9,7 km/h (2 Bft) 100,00 %
12.11.2015 10:35 9,2 C 88 % 1029,4 hPa 0,0 l/m 5,3 km/h (1 Bft) SW 225 0 min 0,000 mm 0,8 UV-I 170 W/m 7,3 C 9,2 C 6,4 km/h (2 Bft) 100,00 %
12.11.2015 10:36 9,2 C 88 % 1029,4 hPa 0,0 l/m 5,8 km/h (2 Bft) S-SW 199 0 min 0,000 mm 0,8 UV-I 189 W/m 7,3 C 9,2 C 6,4 km/h (2 Bft) 100,00 %
12.11.2015 10:37 9,3 C 88 % 1029,4 hPa 0,0 l/m 5,3 km/h (1 Bft) SW 222 0 min 0,000 mm 0,8 UV-I 179 W/m 7,4 C 9,3 C 6,4 km/h (2 Bft) 100,00 %
12.11.2015 10:38 9,3 C 88 % 1029,4 hPa 0,0 l/m 7,6 km/h (2 Bft) SW 229 0 min 0,000 mm 0,9 UV-I 176 W/m 7,4 C 8,4 C 11,3 km/h (2 Bft) 100,00 %
12.11.2015 10:39 9,3 C 88 % 1029,4 hPa 0,0 l/m 6,2 km/h (2 Bft) S-SW 205 0 min 0,000 mm 0,9 UV-I 179 W/m 7,4 C 9,3 C 9,7 km/h (2 Bft) 100,00 %
12.11.2015 10:40 9,3 C 87 % 1029,4 hPa 0,0 l/m 6,9 km/h (2 Bft) SW 214 0 min 0,000 mm 0,9 UV-I 187 W/m 7,2 C 8,9 C 9,7 km/h (2 Bft) 100,00 %
12.11.2015 10:41 9,3 C 88 % 1029,5 hPa 0,0 l/m 5,7 km/h (1 Bft) S-SW 213 0 min 0,000 mm 0,8 UV-I 184 W/m 7,4 C 9,3 C 6,4 km/h (2 Bft) 100,00 %
12.11.2015 10:42 9,4 C 88 % 1029,4 hPa 0,0 l/m 3,9 km/h (1 Bft) SW 232 0 min 0,000 mm 0,8 UV-I 174 W/m 7,5 C 9,4 C 6,4 km/h (2 Bft) 100,00 %
12.11.2015 10:43 9,4 C 87 % 1029,4 hPa 0,0 l/m 6,4 km/h (2 Bft) SW 224 0 min 0,000 mm 0,8 UV-I 167 W/m 7,3 C 9,4 C 9,7 km/h (2 Bft) 100,00 %
12.11.2015 10:44 9,4 C 88 % 1029,4 hPa 0,0 l/m 6,0 km/h (2 Bft) SW 224 0 min 0,000 mm 0,8 UV-I 167 W/m 7,5 C 9,4 C 8,0 km/h (2 Bft) 100,00 %
12.11.2015 10:45 9,5 C 87 % 1029,4 hPa 0,0 l/m 6,4 km/h (2 Bft) SW 219 0 min 0,000 mm 0,8 UV-I 172 W/m 7,4 C 9,5 C 8,0 km/h (2 Bft) 100,00 %
12.11.2015 10:46 9,5 C 87 % 1029,5 hPa 0,0 l/m 5,6 km/h (1 Bft) S-SW 209 0 min 0,000 mm 0,8 UV-I 164 W/m 7,4 C 9,5 C 9,7 km/h (2 Bft) 100,00 %
12.11.2015 10:47 9,6 C 87 % 1029,5 hPa 0,0 l/m 6,9 km/h (2 Bft) SW 223 0 min 0,000 mm 0,8 UV-I 157 W/m 7,5 C 9,2 C 11,3 km/h (2 Bft) 95,83 %
12.11.2015 10:48 9,6 C 87 % 1029,5 hPa 0,0 l/m 6,5 km/h (2 Bft) S-SW 212 0 min 0,000 mm 0,8 UV-I 158 W/m 7,5 C 9,6 C 9,7 km/h (2 Bft) 92,86 %
12.11.2015 10:49 9,6 C 86 % 1029,4 hPa 0,0 l/m 5,5 km/h (1 Bft) SW 222 0 min 0,000 mm 0,8 UV-I 168 W/m 7,4 C 9,6 C 9,7 km/h (2 Bft) 100,00 %
12.11.2015 10:50 9,6 C 87 % 1029,5 hPa 0,0 l/m 5,4 km/h (1 Bft) S-SW 204 0 min 0,000 mm 0,8 UV-I 168 W/m 7,5 C 9,6 C 6,4 km/h (2 Bft) 100,00 %
12.11.2015 10:51 9,6 C 87 % 1029,5 hPa 0,0 l/m 3,3 km/h (1 Bft) SW 236 0 min 0,000 mm 0,8 UV-I 159 W/m 7,5 C 9,6 C 6,4 km/h (2 Bft) 100,00 %
12.11.2015 10:52 9,6 C 87 % 1029,5 hPa 0,0 l/m 4,7 km/h (1 Bft) S-SW 202 0 min 0,000 mm 0,8 UV-I 156 W/m 7,5 C 9,6 C 8,0 km/h (2 Bft) 95,83 %
12.11.2015 10:53 9,7 C 86 % 1029,5 hPa 0,0 l/m 5,4 km/h (1 Bft) S 185 0 min 0,000 mm 0,8 UV-I 159 W/m 7,5 C 9,7 C 9,7 km/h (2 Bft) 96,15 %
12.11.2015 10:54 9,7 C 86 % 1029,5 hPa 0,0 l/m 6,4 km/h (2 Bft) SW 218 0 min 0,000 mm 0,8 UV-I 165 W/m 7,5 C 9,7 C 8,0 km/h (2 Bft) 100,00 %
12.11.2015 10:55 9,7 C 86 % 1029,5 hPa 0,0 l/m 6,1 km/h (2 Bft) SW 229 0 min 0,000 mm 0,8 UV-I 171 W/m 7,5 C 9,7 C 8,0 km/h (2 Bft) 100,00 %
12.11.2015 10:56 9,7 C 86 % 1029,5 hPa 0,0 l/m 5,4 km/h (1 Bft) SW 234 0 min 0,000 mm 0,8 UV-I 175 W/m 7,5 C 9,7 C 8,0 km/h (2 Bft) 100,00 %
12.11.2015 10:57 9,7 C 86 % 1029,5 hPa 0,0 l/m 4,2 km/h (1 Bft) S-SW 213 0 min 0,000 mm 0,8 UV-I 173 W/m 7,5 C 9,7 C 6,4 km/h (2 Bft) 100,00 %
12.11.2015 10:58 9,8 C 87 % 1029,5 hPa 0,0 l/m 3,8 km/h (1 Bft) SW 218 0 min 0,000 mm 0,8 UV-I 170 W/m 7,7 C 9,8 C 4,8 km/h (1 Bft) 100,00 %
12.11.2015 10:59 9,8 C 86 % 1029,5 hPa 0,0 l/m 4,2 km/h (1 Bft) S 190 0 min 0,000 mm 0,8 UV-I 174 W/m 7,6 C 9,8 C 6,4 km/h (2 Bft) 95,65 %
12.11.2015 11:00 9,8 C 86 % 1029,4 hPa 0,0 l/m 6,1 km/h (2 Bft) S-SW 192 0 min 0,076 mm 0,8 UV-I 181 W/m 7,6 C 9,8 C 9,7 km/h (2 Bft) 100,00 %
12.11.2015 11:02 9,8 C 85 % 1029,4 hPa 0,0 l/m 7,0 km/h (2 Bft) S-SW 198 0 min 0,000 mm 0,8 UV-I 189 W/m 7,4 C 9,4 C 11,3 km/h (2 Bft) 100,00 %
12.11.2015 11:03 9,9 C 85 % 1029,4 hPa 0,0 l/m 7,1 km/h (2 Bft) SW 218 0 min 0,000 mm 0,9 UV-I 200 W/m 7,5 C 9,4 C 11,3 km/h (2 Bft) 100,00 %
12.11.2015 11:04 9,9 C 85 % 1029,5 hPa 0,0 l/m 6,4 km/h (2 Bft) W-SW 248 0 min 0,000 mm 0,9 UV-I 199 W/m 7,5 C 9,9 C 9,7 km/h (2 Bft) 100,00 %
12.11.2015 11:05 9,9 C 85 % 1029,4 hPa 0,0 l/m 5,6 km/h (1 Bft) W-SW 242 0 min 0,000 mm 0,9 UV-I 200 W/m 7,5 C 9,9 C 8,0 km/h (2 Bft) 100,00 %
12.11.2015 11:06 9,9 C 85 % 1029,4 hPa 0,0 l/m 3,7 km/h (1 Bft) W-SW 245 0 min 0,000 mm 0,9 UV-I 201 W/m 7,5 C 9,9 C 8,0 km/h (2 Bft) 100,00 %
12.11.2015 11:07 10,0 C 86 % 1029,4 hPa 0,0 l/m 3,8 km/h (1 Bft) SW 226 0 min 0,000 mm 0,9 UV-I 196 W/m 7,8 C 10,0 C 4,8 km/h (1 Bft) 100,00 %
12.11.2015 11:08 10,1 C 86 % 1029,5 hPa 0,0 l/m 3,4 km/h (1 Bft) SW 234 0 min 0,000 mm 0,9 UV-I 186 W/m 7,9 C 10,1 C 8,0 km/h (2 Bft) 100,00 %
12.11.2015 11:09 10,1 C 84 % 1029,5 hPa 0,0 l/m 6,8 km/h (2 Bft) W-SW 252 0 min 0,000 mm 0,8 UV-I 180 W/m 7,5 C 9,8 C 11,3 km/h (2 Bft) 96,15 %
12.11.2015 11:10 10,1 C 84 % 1029,4 hPa 0,0 l/m 8,9 km/h (2 Bft) SW 219 0 min 0,000 mm 0,8 UV-I 177 W/m 7,5 C 8,4 C 12,9 km/h (3 Bft) 100,00 %
12.11.2015 11:11 10,1 C 84 % 1029,4 hPa 0,0 l/m 8,9 km/h (2 Bft) SW 234 0 min 0,000 mm 0,8 UV-I 175 W/m 7,5 C 8,4 C 12,9 km/h (3 Bft) 100,00 %
12.11.2015 11:12 10,0 C 84 % 1029,4 hPa 0,0 l/m 7,6 km/h (2 Bft) S-SW 213 0 min 0,000 mm 0,8 UV-I 173 W/m 7,4 C 9,1 C 9,7 km/h (2 Bft) 100,00 %
12.11.2015 11:13 10,0 C 84 % 1029,4 hPa 0,0 l/m 7,1 km/h (2 Bft) S-SW 206 0 min 0,000 mm 0,9 UV-I 177 W/m 7,4 C 9,5 C 9,7 km/h (2 Bft) 91,67 %
12.11.2015 11:14 10,0 C 84 % 1029,4 hPa 0,0 l/m 8,1 km/h (2 Bft) S-SW 213 0 min 0,000 mm 0,9 UV-I 183 W/m 7,4 C 8,8 C 12,9 km/h (3 Bft) 100,00 %
12.11.2015 11:15 10,0 C 84 % 1029,4 hPa 0,0 l/m 6,7 km/h (2 Bft) W-SW 243 0 min 0,000 mm 0,9 UV-I 184 W/m 7,4 C 9,8 C 9,7 km/h (2 Bft) 100,00 %
12.11.2015 11:16 10,0 C 84 % 1029,4 hPa 0,0 l/m 7,1 km/h (2 Bft) SW 225 0 min 0,000 mm 0,9 UV-I 188 W/m 7,4 C 9,5 C 11,3 km/h (2 Bft) 100,00 %
12.11.2015 11:17 10,1 C 84 % 1029,4 hPa 0,0 l/m 4,3 km/h (1 Bft) SW 232 0 min 0,000 mm 0,9 UV-I 188 W/m 7,5 C 10,1 C 8,0 km/h (2 Bft) 100,00 %
12.11.2015 11:18 10,1 C 84 % 1029,4 hPa 0,0 l/m 5,3 km/h (1 Bft) W-SW 238 0 min 0,000 mm 0,8 UV-I 189 W/m 7,5 C 10,1 C 8,0 km/h (2 Bft) 100,00 %
12.11.2015 11:19 10,1 C 84 % 1029,4 hPa 0,0 l/m 6,3 km/h (2 Bft) S-SW 196 0 min 0,000 mm 0,9 UV-I 193 W/m 7,5 C 10,1 C 9,7 km/h (2 Bft) 100,00 %
12.11.2015 11:20 10,2 C 84 % 1029,4 hPa 0,0 l/m 4,2 km/h (1 Bft) W-NW 284 0 min 0,000 mm 0,9 UV-I 201 W/m 7,6 C 10,2 C 8,0 km/h (2 Bft) 100,00 %
12.11.2015 11:21 10,2 C 85 % 1029,4 hPa 0,0 l/m 3,2 km/h (1 Bft) S 190 0 min 0,000 mm 0,9 UV-I 205 W/m 7,8 C 10,2 C 4,8 km/h (1 Bft) 100,00 %
12.11.2015 11:22 10,2 C 85 % 1029,4 hPa 0,0 l/m 3,8 km/h (1 Bft) W-SW 240 0 min 0,000 mm 0,9 UV-I 201 W/m 7,8 C 10,2 C 4,8 km/h (1 Bft) 100,00 %
12.11.2015 11:23 10,3 C 84 % 1029,4 hPa 0,0 l/m 5,0 km/h (1 Bft) W 259 0 min 0,000 mm 0,8 UV-I 191 W/m 7,7 C 10,3 C 9,7 km/h (2 Bft) 100,00 %
12.11.2015 11:24 10,3 C 83 % 1029,3 hPa 0,0 l/m 9,1 km/h (2 Bft) SW 234 0 min 0,000 mm 0,8 UV-I 187 W/m 7,5 C 8,5 C 14,5 km/h (3 Bft) 100,00 %
12.11.2015 11:25 10,3 C 83 % 1029,3 hPa 0,0 l/m 6,4 km/h (2 Bft) S-SW 198 0 min 0,000 mm 0,9 UV-I 186 W/m 7,5 C 10,3 C 9,7 km/h (2 Bft) 91,67 %
12.11.2015 11:26 10,3 C 83 % 1029,3 hPa 0,0 l/m 7,0 km/h (2 Bft) W 263 0 min 0,000 mm 0,9 UV-I 186 W/m 7,5 C 9,9 C 11,3 km/h (2 Bft) 100,00 %
12.11.2015 11:27 10,3 C 83 % 1029,3 hPa 0,0 l/m 6,1 km/h (2 Bft) SW 231 0 min 0,000 mm 0,9 UV-I 186 W/m 7,5 C 10,3 C 8,0 km/h (2 Bft) 100,00 %
12.11.2015 11:28 10,3 C 83 % 1029,3 hPa 0,0 l/m 7,5 km/h (2 Bft) S-SW 211 0 min 0,000 mm 0,8 UV-I 186 W/m 7,5 C 9,5 C 12,9 km/h (3 Bft) 96,15 %
12.11.2015 11:29 10,3 C 83 % 1029,3 hPa 0,0 l/m 5,8 km/h (2 Bft) S-SW 205 0 min 0,000 mm 0,8 UV-I 185 W/m 7,5 C 10,3 C 8,0 km/h (2 Bft) 100,00 %
12.11.2015 11:30 10,3 C 84 % 1029,3 hPa 0,0 l/m 5,1 km/h (1 Bft) SW 221 0 min 0,000 mm 0,8 UV-I 186 W/m 7,7 C 10,3 C 8,0 km/h (2 Bft) 100,00 %
12.11.2015 11:31 10,3 C 84 % 1029,3 hPa 0,0 l/m 3,9 km/h (1 Bft) S 171 0 min 0,000 mm 0,9 UV-I 183 W/m 7,7 C 10,3 C 6,4 km/h (2 Bft) 100,00 %
12.11.2015 11:32 10,3 C 84 % 1029,3 hPa 0,0 l/m 5,4 km/h (1 Bft) SW 225 0 min 0,000 mm 0,9 UV-I 187 W/m 7,7 C 10,3 C 6,4 km/h (2 Bft) 100,00 %
12.11.2015 11:33 10,3 C 84 % 1029,4 hPa 0,0 l/m 7,0 km/h (2 Bft) SW 221 0 min 0,000 mm 0,9 UV-I 192 W/m 7,7 C 9,9 C 12,9 km/h (3 Bft) 100,00 %
12.11.2015 11:34 10,3 C 84 % 1029,3 hPa 0,0 l/m 7,0 km/h (2 Bft) SW 217 0 min 0,000 mm 0,9 UV-I 191 W/m 7,7 C 9,9 C 14,5 km/h (3 Bft) 100,00 %
12.11.2015 11:35 10,3 C 83 % 1029,3 hPa 0,0 l/m 7,4 km/h (2 Bft) S-SW 208 0 min 0,000 mm 0,9 UV-I 193 W/m 7,5 C 9,6 C 9,7 km/h (2 Bft) 100,00 %
12.11.2015 11:36 10,4 C 83 % 1029,3 hPa 0,0 l/m 6,3 km/h (2 Bft) SW 236 0 min 0,000 mm 0,9 UV-I 199 W/m 7,6 C 10,4 C 9,7 km/h (2 Bft) 100,00 %
12.11.2015 11:37 10,3 C 83 % 1029,3 hPa 0,0 l/m 8,3 km/h (2 Bft) SW 223 0 min 0,000 mm 1,0 UV-I 206 W/m 7,5 C 9,0 C 9,7 km/h (2 Bft) 96,15 %
12.11.2015 11:38 10,3 C 83 % 1029,3 hPa 0,0 l/m 4,8 km/h (1 Bft) S-SW 202 0 min 0,000 mm 1,0 UV-I 206 W/m 7,5 C 10,3 C 8,0 km/h (2 Bft) 100,00 %
12.11.2015 11:39 10,3 C 83 % 1029,3 hPa 0,0 l/m 5,9 km/h (2 Bft) S-SO 156 0 min 0,000 mm 1,0 UV-I 211 W/m 7,5 C 10,3 C 9,7 km/h (2 Bft) 100,00 %
12.11.2015 11:40 10,3 C 83 % 1029,3 hPa 0,0 l/m 7,2 km/h (2 Bft) SW 225 0 min 0,000 mm 1,0 UV-I 212 W/m 7,5 C 9,7 C 11,3 km/h (2 Bft) 100,00 %
12.11.2015 11:41 10,4 C 84 % 1029,3 hPa 0,0 l/m 6,7 km/h (2 Bft) S 188 0 min 0,000 mm 1,0 UV-I 214 W/m 7,8 C 10,2 C 11,3 km/h (2 Bft) 100,00 %
12.11.2015 11:42 10,4 C 83 % 1029,3 hPa 0,0 l/m 4,7 km/h (1 Bft) SW 224 0 min 0,000 mm 1,1 UV-I 224 W/m 7,6 C 10,4 C 8,0 km/h (2 Bft) 100,00 %
12.11.2015 11:43 10,4 C 84 % 1029,3 hPa 0,0 l/m 6,4 km/h (2 Bft) SW 214 1 min 0,000 mm 1,1 UV-I 237 W/m 7,8 C 10,4 C 9,7 km/h (2 Bft) 100,00 %
12.11.2015 11:44 10,4 C 82 % 1029,3 hPa 0,0 l/m 9,5 km/h (2 Bft) S 191 1 min 0,000 mm 1,1 UV-I 267 W/m 7,5 C 8,3 C 12,9 km/h (3 Bft) 100,00 %
12.11.2015 11:45 10,4 C 82 % 1029,3 hPa 0,0 l/m 6,9 km/h (2 Bft) SW 235 1 min 0,000 mm 1,1 UV-I 288 W/m 7,5 C 10,0 C 9,7 km/h (2 Bft) 100,00 %
12.11.2015 11:46 10,5 C 83 % 1029,3 hPa 0,0 l/m 5,5 km/h (1 Bft) S-SW 211 1 min 0,000 mm 1,1 UV-I 280 W/m 7,7 C 10,5 C 8,0 km/h (2 Bft) 91,67 %
12.11.2015 11:47 10,6 C 85 % 1029,3 hPa 0,0 l/m 4,4 km/h (1 Bft) S-SW 199 1 min 0,000 mm 1,1 UV-I 294 W/m 8,2 C 10,6 C 8,0 km/h (2 Bft) 100,00 %
12.11.2015 11:48 10,7 C 83 % 1029,3 hPa 0,0 l/m 3,3 km/h (1 Bft) SW 233 1 min 0,000 mm 1,2 UV-I 318 W/m 7,9 C 10,7 C 6,4 km/h (2 Bft) 100,00 %
12.11.2015 11:49 10,7 C 83 % 1029,3 hPa 0,0 l/m 6,7 km/h (2 Bft) S-SW 205 1 min 0,000 mm 1,1 UV-I 301 W/m 7,9 C 10,5 C 8,0 km/h (2 Bft) 100,00 %
12.11.2015 11:50 10,8 C 83 % 1029,3 hPa 0,0 l/m 4,6 km/h (1 Bft) SW 217 1 min 0,000 mm 1,0 UV-I 332 W/m 8,0 C 10,8 C 6,4 km/h (2 Bft) 100,00 %
12.11.2015 11:51 10,8 C 83 % 1029,2 hPa 0,0 l/m 5,6 km/h (1 Bft) SW 227 1 min 0,000 mm 1,0 UV-I 312 W/m 8,0 C 10,8 C 9,7 km/h (2 Bft) 100,00 %
12.11.2015 11:52 10,8 C 84 % 1029,2 hPa 0,0 l/m 6,4 km/h (2 Bft) S-SW 194 1 min 0,000 mm 1,1 UV-I 364 W/m 8,2 C 10,8 C 11,3 km/h (2 Bft) 100,00 %
12.11.2015 11:53 10,9 C 82 % 1029,2 hPa 0,0 l/m 6,2 km/h (2 Bft) S-SW 196 1 min 0,000 mm 1,2 UV-I 364 W/m 7,9 C 10,9 C 9,7 km/h (2 Bft) 100,00 %
12.11.2015 11:54 10,9 C 82 % 1029,2 hPa 0,0 l/m 6,6 km/h (2 Bft) W 262 1 min 0,000 mm 1,1 UV-I 324 W/m 7,9 C 10,8 C 11,3 km/h (2 Bft) 100,00 %
12.11.2015 11:55 11,0 C 83 % 1029,2 hPa 0,0 l/m 5,6 km/h (1 Bft) S 179 1 min 0,000 mm 1,2 UV-I 313 W/m 8,2 C 11,0 C 9,7 km/h (2 Bft) 95,83 %
12.11.2015 11:56 11,2 C 83 % 1029,2 hPa 0,0 l/m 5,3 km/h (1 Bft) S-SW 196 1 min 0,000 mm 1,1 UV-I 338 W/m 8,4 C 11,2 C 9,7 km/h (2 Bft) 100,00 %
12.11.2015 11:57 11,2 C 83 % 1029,2 hPa 0,0 l/m 3,1 km/h (1 Bft) SW 216 1 min 0,000 mm 1,1 UV-I 411 W/m 8,4 C 11,2 C 4,8 km/h (1 Bft) 100,00 %
12.11.2015 11:58 11,3 C 83 % 1029,2 hPa 0,0 l/m 4,2 km/h (1 Bft) S 186 1 min 0,000 mm 0,9 UV-I 321 W/m 8,5 C 11,3 C 4,8 km/h (1 Bft) 100,00 %
12.11.2015 11:59 11,3 C 81 % 1029,2 hPa 0,0 l/m 5,2 km/h (1 Bft) SW 215 1 min 0,000 mm 0,9 UV-I 253 W/m 8,2 C 11,3 C 6,4 km/h (2 Bft) 100,00 %
12.11.2015 12:00 11,3 C 81 % 1029,2 hPa 0,0 l/m 6,8 km/h (2 Bft) SW 222 1 min 0,000 mm 0,9 UV-I 277 W/m 8,2 C 11,0 C 11,3 km/h (2 Bft) 100,00 %
12.11.2015 12:01 11,2 C 80 % 1029,2 hPa 0,0 l/m 6,6 km/h (2 Bft) SW 227 1 min 0,127 mm 0,9 UV-I 251 W/m 7,9 C 11,1 C 11,3 km/h (2 Bft) 100,00 %
12.11.2015 12:02 11,2 C 81 % 1029,1 hPa 0,0 l/m 6,4 km/h (2 Bft) S-SW 198 1 min 0,000 mm 0,9 UV-I 252 W/m 8,1 C 11,2 C 8,0 km/h (2 Bft) 100,00 %
12.11.2015 12:03 11,2 C 81 % 1029,1 hPa 0,0 l/m 6,4 km/h (2 Bft) S 188 1 min 0,000 mm 1,0 UV-I 285 W/m 8,1 C 11,2 C 9,7 km/h (2 Bft) 100,00 %
12.11.2015 12:04 11,1 C 81 % 1029,1 hPa 0,0 l/m 8,0 km/h (2 Bft) S-SW 194 1 min 0,000 mm 1,1 UV-I 326 W/m 8,0 C 10,0 C 11,3 km/h (2 Bft) 93,10 %
12.11.2015 12:05 11,1 C 81 % 1029,1 hPa 0,0 l/m 7,2 km/h (2 Bft) S 175 1 min 0,000 mm 1,1 UV-I 341 W/m 8,0 C 10,5 C 12,9 km/h (3 Bft) 100,00 %
12.11.2015 12:06 11,2 C 82 % 1029,1 hPa 0,0 l/m 4,8 km/h (1 Bft) W 280 1 min 0,000 mm 1,1 UV-I 405 W/m 8,2 C 11,2 C 8,0 km/h (2 Bft) 92,86 %
12.11.2015 12:07 11,3 C 82 % 1029,1 hPa 0,0 l/m 6,4 km/h (2 Bft) S-SW 211 1 min 0,000 mm 1,1 UV-I 374 W/m 8,3 C 11,3 C 12,9 km/h (3 Bft) 100,00 %
12.11.2015 12:08 11,3 C 81 % 1029,1 hPa 0,0 l/m 6,7 km/h (2 Bft) S-SW 207 1 min 0,000 mm 1,1 UV-I 381 W/m 8,2 C 11,1 C 9,7 km/h (2 Bft) 96,15 %
12.11.2015 12:09 11,3 C 81 % 1029,1 hPa 0,0 l/m 7,1 km/h (2 Bft) S-SW 204 1 min 0,000 mm 1,0 UV-I 441 W/m 8,2 C 10,8 C 9,7 km/h (2 Bft) 95,83 %
12.11.2015 12:10 11,3 C 80 % 1029,1 hPa 0,0 l/m 10,0 km/h (2 Bft) W-SW 238 1 min 0,000 mm 0,9 UV-I 347 W/m 8,0 C 9,0 C 12,9 km/h (3 Bft) 100,00 %
12.11.2015 12:11 11,2 C 79 % 1029,1 hPa 0,0 l/m 7,3 km/h (2 Bft) SW 223 1 min 0,000 mm 0,9 UV-I 243 W/m 7,7 C 10,6 C 11,3 km/h (2 Bft) 100,00 %
12.11.2015 12:12 11,1 C 80 % 1029,1 hPa 0,0 l/m 6,4 km/h (2 Bft) SW 217 0 min 0,000 mm 0,8 UV-I 218 W/m 7,8 C 11,1 C 9,7 km/h (2 Bft) 100,00 %
12.11.2015 12:13 11,1 C 80 % 1029,1 hPa 0,0 l/m 5,9 km/h (2 Bft) S 171 0 min 0,000 mm 0,8 UV-I 196 W/m 7,8 C 11,1 C 8,0 km/h (2 Bft) 100,00 %
12.11.2015 12:14 11,0 C 80 % 1029,1 hPa 0,0 l/m 5,3 km/h (1 Bft) S-SW 208 0 min 0,000 mm 0,8 UV-I 194 W/m 7,7 C 11,0 C 6,4 km/h (2 Bft) 100,00 %
12.11.2015 12:15 11,0 C 81 % 1029,1 hPa 0,0 l/m 6,9 km/h (2 Bft) SW 219 0 min 0,000 mm 0,8 UV-I 195 W/m 7,9 C 10,7 C 11,3 km/h (2 Bft) 100,00 %
12.11.2015 12:16 10,9 C 81 % 1029,1 hPa 0,0 l/m 6,3 km/h (2 Bft) S 184 0 min 0,000 mm 0,8 UV-I 193 W/m 7,8 C 10,9 C 8,0 km/h (2 Bft) 100,00 %
12.11.2015 12:17 11,0 C 81 % 1029,0 hPa 0,0 l/m 5,7 km/h (1 Bft) SW 230 1 min 0,000 mm 0,9 UV-I 251 W/m 7,9 C 11,0 C 6,4 km/h (2 Bft) 100,00 %
12.11.2015 12:18 11,0 C 82 % 1029,0 hPa 0,0 l/m 5,6 km/h (1 Bft) SW 227 0 min 0,000 mm 0,9 UV-I 208 W/m 8,0 C 11,0 C 9,7 km/h (2 Bft) 100,00 %
12.11.2015 12:19 11,1 C 82 % 1029,0 hPa 0,0 l/m 6,4 km/h (2 Bft) S-SW 202 0 min 0,000 mm 0,9 UV-I 194 W/m 8,1 C 11,1 C 9,7 km/h (2 Bft) 100,00 %
12.11.2015 12:20 11,1 C 81 % 1029,0 hPa 0,0 l/m 7,8 km/h (2 Bft) SW 217 0 min 0,000 mm 0,9 UV-I 185 W/m 8,0 C 10,1 C 12,9 km/h (3 Bft) 100,00 %
12.11.2015 12:21 11,1 C 80 % 1028,9 hPa 0,0 l/m 5,7 km/h (1 Bft) SW 236 0 min 0,000 mm 0,9 UV-I 176 W/m 7,8 C 11,1 C 9,7 km/h (2 Bft) 100,00 %
12.11.2015 12:22 11,1 C 79 % 1028,9 hPa 0,0 l/m 6,2 km/h (2 Bft) W 269 0 min 0,000 mm 0,9 UV-I 175 W/m 7,6 C 11,1 C 9,7 km/h (2 Bft) 100,00 %
12.11.2015 12:23 11,1 C 80 % 1028,9 hPa 0,0 l/m 6,5 km/h (2 Bft) SW 217 0 min 0,000 mm 0,9 UV-I 178 W/m 7,8 C 11,1 C 9,7 km/h (2 Bft) 100,00 %
12.11.2015 12:24 11,1 C 80 % 1028,9 hPa 0,0 l/m 8,4 km/h (2 Bft) S-SW 209 0 min 0,000 mm 0,9 UV-I 183 W/m 7,8 C 9,8 C 14,5 km/h (3 Bft) 100,00 %
12.11.2015 12:25 11,0 C 79 % 1028,9 hPa 0,0 l/m 6,4 km/h (2 Bft) W-SW 249 0 min 0,000 mm 0,9 UV-I 189 W/m 7,5 C 11,0 C 11,3 km/h (2 Bft) 100,00 %
12.11.2015 12:26 11,0 C 80 % 1028,9 hPa 0,0 l/m 9,1 km/h (2 Bft) SW 215 0 min 0,000 mm 0,9 UV-I 202 W/m 7,7 C 9,2 C 14,5 km/h (3 Bft) 91,67 %
12.11.2015 12:27 11,0 C 80 % 1028,8 hPa 0,0 l/m 9,3 km/h (2 Bft) SW 226 0 min 0,000 mm 0,9 UV-I 204 W/m 7,7 C 9,1 C 14,5 km/h (3 Bft) 100,00 %
12.11.2015 12:28 11,0 C 79 % 1028,8 hPa 0,0 l/m 9,4 km/h (2 Bft) SW 224 0 min 0,000 mm 0,9 UV-I 199 W/m 7,5 C 9,0 C 11,3 km/h (2 Bft) 100,00 %
12.11.2015 12:29 11,0 C 79 % 1028,8 hPa 0,0 l/m 10,9 km/h (2 Bft) SW 234 0 min 0,000 mm 0,9 UV-I 191 W/m 7,5 C 8,2 C 16,1 km/h (3 Bft) 100,00 %
12.11.2015 12:30 11,0 C 79 % 1028,8 hPa 0,0 l/m 10,7 km/h (2 Bft) S-SW 198 0 min 0,000 mm 0,9 UV-I 180 W/m 7,5 C 8,3 C 14,5 km/h (3 Bft) 100,00 %
12.11.2015 12:31 11,0 C 80 % 1028,8 hPa 0,0 l/m 8,6 km/h (2 Bft) S-SW 200 0 min 0,000 mm 0,9 UV-I 165 W/m 7,7 C 9,5 C 12,9 km/h (3 Bft) 100,00 %
12.11.2015 12:32 11,0 C 79 % 1028,8 hPa 0,0 l/m 9,8 km/h (2 Bft) SW 217 0 min 0,000 mm 1,0 UV-I 161 W/m 7,5 C 8,8 C 12,9 km/h (3 Bft) 96,15 %
12.11.2015 12:33 11,0 C 79 % 1028,7 hPa 0,0 l/m 5,9 km/h (2 Bft) SW 226 0 min 0,000 mm 1,0 UV-I 163 W/m 7,5 C 11,0 C 8,0 km/h (2 Bft) 100,00 %
12.11.2015 12:34 11,1 C 79 % 1028,8 hPa 0,0 l/m 6,3 km/h (2 Bft) SW 231 0 min 0,000 mm 1,0 UV-I 163 W/m 7,6 C 11,1 C 9,7 km/h (2 Bft) 100,00 %
12.11.2015 12:35 11,1 C 79 % 1028,7 hPa 0,0 l/m 6,2 km/h (2 Bft) W-SW 251 0 min 0,000 mm 1,0 UV-I 174 W/m 7,6 C 11,1 C 11,3 km/h (2 Bft) 100,00 %
12.11.2015 12:36 11,1 C 79 % 1028,7 hPa 0,0 l/m 4,3 km/h (1 Bft) W-SW 242 0 min 0,000 mm 1,0 UV-I 183 W/m 7,6 C 11,1 C 8,0 km/h (2 Bft) 100,00 %
12.11.2015 12:37 11,1 C 78 % 1028,7 hPa 0,0 l/m 5,6 km/h (1 Bft) W-SW 255 0 min 0,000 mm 1,1 UV-I 185 W/m 7,4 C 11,1 C 8,0 km/h (2 Bft) 100,00 %
12.11.2015 12:38 11,1 C 79 % 1028,7 hPa 0,0 l/m 4,8 km/h (1 Bft) W 275 0 min 0,000 mm 1,2 UV-I 185 W/m 7,6 C 11,1 C 6,4 km/h (2 Bft) 95,65 %
12.11.2015 12:39 11,2 C 79 % 1028,7 hPa 0,0 l/m 6,6 km/h (2 Bft) W 273 0 min 0,000 mm 1,1 UV-I 157 W/m 7,7 C 11,1 C 9,7 km/h (2 Bft) 100,00 %
12.11.2015 12:40 11,2 C 79 % 1028,7 hPa 0,0 l/m 5,0 km/h (1 Bft) W-SW 254 0 min 0,000 mm 1,0 UV-I 127 W/m 7,7 C 11,2 C 9,7 km/h (2 Bft) 100,00 %
12.11.2015 12:41 11,2 C 79 % 1028,7 hPa 0,0 l/m 3,8 km/h (1 Bft) W-SW 252 0 min 0,000 mm 1,0 UV-I 113 W/m 7,7 C 11,2 C 6,4 km/h (2 Bft) 100,00 %
12.11.2015 12:42 11,2 C 79 % 1028,6 hPa 0,0 l/m 4,4 km/h (1 Bft) W-SW 249 0 min 0,000 mm 1,0 UV-I 113 W/m 7,7 C 11,2 C 8,0 km/h (2 Bft) 100,00 %
12.11.2015 12:43 11,2 C 79 % 1028,6 hPa 0,0 l/m 4,8 km/h (1 Bft) SW 232 0 min 0,000 mm 1,0 UV-I 135 W/m 7,7 C 11,2 C 8,0 km/h (2 Bft) 100,00 %
12.11.2015 12:44 11,2 C 80 % 1028,6 hPa 0,0 l/m 5,1 km/h (1 Bft) S-SW 193 0 min 0,000 mm 1,2 UV-I 151 W/m 7,9 C 11,2 C 6,4 km/h (2 Bft) 96,15 %
12.11.2015 12:45 11,3 C 79 % 1028,6 hPa 0,0 l/m 4,6 km/h (1 Bft) W 279 1 min 0,000 mm 1,2 UV-I 291 W/m 7,8 C 11,3 C 6,4 km/h (2 Bft) 100,00 %
12.11.2015 12:46 11,3 C 78 % 1028,6 hPa 0,0 l/m 5,5 km/h (1 Bft) W 273 1 min 0,000 mm 1,2 UV-I 410 W/m 7,6 C 11,3 C 8,0 km/h (2 Bft) 100,00 %
12.11.2015 12:47 11,4 C 79 % 1028,6 hPa 0,0 l/m 5,6 km/h (1 Bft) W-SW 244 0 min 0,000 mm 1,1 UV-I 211 W/m 7,9 C 11,4 C 9,7 km/h (2 Bft) 100,00 %
12.11.2015 12:48 11,4 C 78 % 1028,6 hPa 0,0 l/m 3,8 km/h (1 Bft) W 271 0 min 0,000 mm 1,2 UV-I 171 W/m 7,7 C 11,4 C 6,4 km/h (2 Bft) 100,00 %
12.11.2015 12:49 11,5 C 79 % 1028,6 hPa 0,0 l/m 4,6 km/h (1 Bft) W-NW 286 0 min 0,000 mm 1,2 UV-I 182 W/m 8,0 C 11,5 C 9,7 km/h (2 Bft) 100,00 %
12.11.2015 12:50 11,6 C 79 % 1028,6 hPa 0,0 l/m 5,6 km/h (1 Bft) SW 218 0 min 0,000 mm 1,1 UV-I 202 W/m 8,1 C 11,6 C 11,3 km/h (2 Bft) 100,00 %
12.11.2015 12:51 11,6 C 78 % 1028,6 hPa 0,0 l/m 5,7 km/h (1 Bft) W-SW 255 1 min 0,000 mm 1,1 UV-I 219 W/m 7,9 C 11,6 C 8,0 km/h (2 Bft) 100,00 %
12.11.2015 12:52 11,6 C 79 % 1028,6 hPa 0,0 l/m 4,0 km/h (1 Bft) W-SW 250 1 min 0,000 mm 1,2 UV-I 223 W/m 8,1 C 11,6 C 8,0 km/h (2 Bft) 100,00 %
12.11.2015 12:53 11,7 C 79 % 1028,5 hPa 0,0 l/m 5,8 km/h (2 Bft) S-SW 205 1 min 0,000 mm 1,2 UV-I 225 W/m 8,2 C 11,7 C 9,7 km/h (2 Bft) 100,00 %
12.11.2015 12:54 11,7 C 79 % 1028,5 hPa 0,0 l/m 4,7 km/h (1 Bft) W-SW 257 1 min 0,000 mm 1,2 UV-I 345 W/m 8,2 C 11,7 C 8,0 km/h (2 Bft) 100,00 %
12.11.2015 12:55 11,8 C 77 % 1028,5 hPa 0,0 l/m 6,9 km/h (2 Bft) W 269 1 min 0,000 mm 1,2 UV-I 363 W/m 7,9 C 11,5 C 12,9 km/h (3 Bft) 100,00 %
12.11.2015 12:56 11,9 C 77 % 1028,5 hPa 0,0 l/m 4,0 km/h (1 Bft) SW 234 1 min 0,000 mm 1,2 UV-I 376 W/m 8,0 C 11,9 C 6,4 km/h (2 Bft) 100,00 %
12.11.2015 12:57 11,9 C 77 % 1028,5 hPa 0,0 l/m 6,4 km/h (2 Bft) W 264 1 min 0,000 mm 1,2 UV-I 327 W/m 8,0 C 11,9 C 9,7 km/h (2 Bft) 95,65 %
12.11.2015 12:58 12,0 C 76 % 1028,5 hPa 0,0 l/m 4,1 km/h (1 Bft) W-SW 240 1 min 0,000 mm 1,1 UV-I 364 W/m 7,9 C 12,0 C 6,4 km/h (2 Bft) 96,30 %
12.11.2015 12:59 12,0 C 76 % 1028,5 hPa 0,0 l/m 4,6 km/h (1 Bft) S 183 1 min 0,000 mm 1,1 UV-I 287 W/m 7,9 C 12,0 C 4,8 km/h (1 Bft) 100,00 %
12.11.2015 13:00 11,9 C 76 % 1028,5 hPa 0,0 l/m 4,4 km/h (1 Bft) SW 229 1 min 0,127 mm 1,1 UV-I 287 W/m 7,8 C 11,9 C 6,4 km/h (2 Bft) 100,00 %
12.11.2015 13:01 12,0 C 76 % 1028,4 hPa 0,0 l/m 5,0 km/h (1 Bft) SW 218 1 min 0,000 mm 1,1 UV-I 287 W/m 7,9 C 12,0 C 8,0 km/h (2 Bft) 100,00 %
12.11.2015 13:02 12,0 C 76 % 1028,5 hPa 0,0 l/m 5,6 km/h (1 Bft) W-NW 292 1 min 0,000 mm 1,1 UV-I 332 W/m 7,9 C 12,0 C 9,7 km/h (2 Bft) 100,00 %
12.11.2015 13:03 12,0 C 76 % 1028,4 hPa 0,0 l/m 4,2 km/h (1 Bft) SW 226 1 min 0,000 mm 1,1 UV-I 385 W/m 7,9 C 12,0 C 6,4 km/h (2 Bft) 95,65 %
12.11.2015 13:04 12,0 C 76 % 1028,4 hPa 0,0 l/m 8,5 km/h (2 Bft) W 273 1 min 0,000 mm 1,1 UV-I 385 W/m 7,9 C 10,6 C 11,3 km/h (2 Bft) 100,00 %
12.11.2015 13:05 12,0 C 76 % 1028,4 hPa 0,0 l/m 6,2 km/h (2 Bft) W 267 1 min 0,000 mm 1,1 UV-I 418 W/m 7,9 C 12,0 C 9,7 km/h (2 Bft) 100,00 %
12.11.2015 13:06 12,1 C 77 % 1028,4 hPa 0,0 l/m 4,8 km/h (1 Bft) W-SW 237 1 min 0,000 mm 1,1 UV-I 413 W/m 8,2 C 12,1 C 6,4 km/h (2 Bft) 100,00 %
12.11.2015 13:07 12,2 C 77 % 1028,4 hPa 0,0 l/m 4,6 km/h (1 Bft) W-SW 249 1 min 0,000 mm 1,1 UV-I 377 W/m 8,3 C 12,2 C 6,4 km/h (2 Bft) 100,00 %
12.11.2015 13:08 12,3 C 77 % 1028,4 hPa 0,0 l/m 4,9 km/h (1 Bft) W 269 1 min 0,000 mm 1,1 UV-I 308 W/m 8,4 C 12,3 C 6,4 km/h (2 Bft) 100,00 %
12.11.2015 13:09 12,3 C 75 % 1028,4 hPa 0,0 l/m 4,2 km/h (1 Bft) W-SW 242 1 min 0,000 mm 1,1 UV-I 320 W/m 8,0 C 12,3 C 8,0 km/h (2 Bft) 95,65 %
12.11.2015 13:10 12,3 C 76 % 1028,4 hPa 0,0 l/m 4,4 km/h (1 Bft) SW 227 1 min 0,000 mm 1,0 UV-I 336 W/m 8,2 C 12,3 C 6,4 km/h (2 Bft) 100,00 %
12.11.2015 13:11 12,2 C 75 % 1028,4 hPa 0,0 l/m 6,3 km/h (2 Bft) W 273 1 min 0,000 mm 1,0 UV-I 235 W/m 7,9 C 12,2 C 9,7 km/h (2 Bft) 100,00 %
12.11.2015 13:12 12,2 C 75 % 1028,4 hPa 0,0 l/m 5,8 km/h (2 Bft) W-NW 290 1 min 0,000 mm 1,0 UV-I 246 W/m 7,9 C 12,2 C 11,3 km/h (2 Bft) 100,00 %
12.11.2015 13:13 12,2 C 75 % 1028,4 hPa 0,0 l/m 5,9 km/h (2 Bft) W-NW 290 1 min 0,000 mm 1,0 UV-I 285 W/m 7,9 C 12,2 C 11,3 km/h (2 Bft) 100,00 %
12.11.2015 13:14 12,2 C 74 % 1028,4 hPa 0,0 l/m 4,8 km/h (1 Bft) W 271 1 min 0,000 mm 1,1 UV-I 345 W/m 7,7 C 12,2 C 9,7 km/h (2 Bft) 100,00 %
12.11.2015 13:15 12,2 C 75 % 1028,5 hPa 0,0 l/m 6,0 km/h (2 Bft) W-SW 256 1 min 0,000 mm 1,0 UV-I 405 W/m 7,9 C 12,2 C 9,7 km/h (2 Bft) 100,00 %
12.11.2015 13:16 12,2 C 74 % 1028,4 hPa 0,0 l/m 4,0 km/h (1 Bft) W-SW 238 1 min 0,000 mm 0,9 UV-I 387 W/m 7,7 C 12,2 C 6,4 km/h (2 Bft) 100,00 %
12.11.2015 13:17 12,1 C 74 % 1028,4 hPa 0,0 l/m 2,5 km/h (1 Bft) W-NW 282 1 min 0,000 mm 0,9 UV-I 227 W/m 7,6 C 12,1 C 3,2 km/h (1 Bft) 100,00 %
12.11.2015 13:18 12,1 C 74 % 1028,4 hPa 0,0 l/m 5,2 km/h (1 Bft) W 275 1 min 0,000 mm 0,8 UV-I 219 W/m 7,6 C 12,1 C 8,0 km/h (2 Bft) 100,00 %
12.11.2015 13:19 12,1 C 75 % 1028,4 hPa 0,0 l/m 4,1 km/h (1 Bft) SW 232 1 min 0,000 mm 0,8 UV-I 211 W/m 7,8 C 12,1 C 6,4 km/h (2 Bft) 100,00 %
12.11.2015 13:20 12,1 C 75 % 1028,4 hPa 0,0 l/m 3,5 km/h (1 Bft) W-SW 258 1 min 0,000 mm 0,8 UV-I 240 W/m 7,8 C 12,1 C 4,8 km/h (1 Bft) 100,00 %
12.11.2015 13:21 12,1 C 75 % 1028,4 hPa 0,0 l/m 6,5 km/h (2 Bft) W-SW 251 1 min 0,000 mm 0,8 UV-I 285 W/m 7,8 C 12,1 C 16,1 km/h (3 Bft) 100,00 %
12.11.2015 13:22 12,1 C 75 % 1028,4 hPa 0,0 l/m 8,4 km/h (2 Bft) SW 221 1 min 0,000 mm 0,9 UV-I 340 W/m 7,8 C 10,8 C 12,9 km/h (3 Bft) 100,00 %
12.11.2015 13:23 12,1 C 75 % 1028,3 hPa 0,0 l/m 6,0 km/h (2 Bft) W-NW 286 1 min 0,000 mm 0,9 UV-I 346 W/m 7,8 C 12,1 C 11,3 km/h (2 Bft) 100,00 %
12.11.2015 13:24 12,2 C 75 % 1028,3 hPa 0,0 l/m 2,9 km/h (1 Bft) W-SW 254 1 min 0,000 mm 0,9 UV-I 360 W/m 7,9 C 12,2 C 4,8 km/h (1 Bft) 100,00 %
12.11.2015 13:25 12,3 C 76 % 1028,3 hPa 0,0 l/m 4,7 km/h (1 Bft) S-SW 213 1 min 0,000 mm 0,9 UV-I 382 W/m 8,2 C 12,3 C 9,7 km/h (2 Bft) 100,00 %
12.11.2015 13:26 12,3 C 74 % 1028,3 hPa 0,0 l/m 7,0 km/h (2 Bft) S-SW 202 1 min 0,000 mm 0,9 UV-I 395 W/m 7,8 C 11,9 C 11,3 km/h (2 Bft) 100,00 %
12.11.2015 13:27 12,3 C 74 % 1028,3 hPa 0,0 l/m 6,5 km/h (2 Bft) SW 236 1 min 0,000 mm 0,8 UV-I 392 W/m 7,8 C 12,3 C 9,7 km/h (2 Bft) 100,00 %
12.11.2015 13:28 12,3 C 75 % 1028,3 hPa 0,0 l/m 3,5 km/h (1 Bft) W 274 1 min 0,000 mm 0,9 UV-I 392 W/m 8,0 C 12,3 C 4,8 km/h (1 Bft) 100,00 %
12.11.2015 13:29 12,4 C 76 % 1028,3 hPa 0,0 l/m 4,8 km/h (1 Bft) SW 220 1 min 0,000 mm 0,9 UV-I 435 W/m 8,3 C 12,4 C 9,7 km/h (2 Bft) 95,83 %
12.11.2015 13:30 12,5 C 74 % 1028,3 hPa 0,0 l/m 4,9 km/h (1 Bft) W-NW 292 1 min 0,000 mm 0,9 UV-I 358 W/m 8,0 C 12,5 C 11,3 km/h (2 Bft) 100,00 %
12.11.2015 13:31 12,5 C 73 % 1028,3 hPa 0,0 l/m 4,1 km/h (1 Bft) SW 224 1 min 0,000 mm 0,8 UV-I 271 W/m 7,8 C 12,5 C 6,4 km/h (2 Bft) 100,00 %
12.11.2015 13:32 12,5 C 74 % 1028,2 hPa 0,0 l/m 3,9 km/h (1 Bft) W 271 1 min 0,000 mm 0,8 UV-I 216 W/m 8,0 C 12,5 C 4,8 km/h (1 Bft) 96,15 %
12.11.2015 13:33 12,4 C 73 % 1028,2 hPa 0,0 l/m 6,2 km/h (2 Bft) W 267 1 min 0,000 mm 0,7 UV-I 208 W/m 7,7 C 12,4 C 9,7 km/h (2 Bft) 100,00 %
12.11.2015 13:34 12,3 C 73 % 1028,3 hPa 0,0 l/m 5,6 km/h (1 Bft) W-NW 284 1 min 0,000 mm 0,8 UV-I 227 W/m 7,6 C 12,3 C 9,7 km/h (2 Bft) 100,00 %
12.11.2015 13:35 12,3 C 73 % 1028,3 hPa 0,0 l/m 4,7 km/h (1 Bft) NW 310 1 min 0,000 mm 0,8 UV-I 262 W/m 7,6 C 12,3 C 6,4 km/h (2 Bft) 96,55 %
12.11.2015 13:36 12,3 C 74 % 1028,3 hPa 0,0 l/m 3,0 km/h (1 Bft) W 275 1 min 0,000 mm 0,8 UV-I 401 W/m 7,8 C 12,3 C 4,8 km/h (1 Bft) 100,00 %
12.11.2015 13:37 12,3 C 75 % 1028,3 hPa 0,0 l/m 2,3 km/h (1 Bft) W-NW 298 1 min 0,000 mm 0,8 UV-I 417 W/m 8,0 C 12,3 C 4,8 km/h (1 Bft) 100,00 %
12.11.2015 13:38 12,5 C 74 % 1028,3 hPa 0,0 l/m 2,1 km/h (1 Bft) W 260 1 min 0,000 mm 0,8 UV-I 406 W/m 8,0 C 12,5 C 3,2 km/h (1 Bft) 100,00 %
12.11.2015 13:39 12,6 C 74 % 1028,3 hPa 0,0 l/m 2,3 km/h (1 Bft) W 279 1 min 0,000 mm 0,7 UV-I 371 W/m 8,1 C 12,6 C 3,2 km/h (1 Bft) 100,00 %
12.11.2015 13:40 12,6 C 73 % 1028,3 hPa 0,0 l/m 2,8 km/h (1 Bft) W 276 1 min 0,000 mm 0,7 UV-I 298 W/m 7,9 C 12,6 C 4,8 km/h (1 Bft) 100,00 %
12.11.2015 13:41 12,6 C 74 % 1028,3 hPa 0,0 l/m 2,9 km/h (1 Bft) W 273 1 min 0,000 mm 0,7 UV-I 275 W/m 8,1 C 12,6 C 4,8 km/h (1 Bft) 100,00 %
12.11.2015 13:42 12,6 C 73 % 1028,3 hPa 0,0 l/m 4,6 km/h (1 Bft) SW 224 1 min 0,000 mm 0,7 UV-I 243 W/m 7,9 C 12,6 C 6,4 km/h (2 Bft) 100,00 %
12.11.2015 13:43 12,6 C 72 % 1028,3 hPa 0,0 l/m 4,2 km/h (1 Bft) W 271 1 min 0,000 mm 0,6 UV-I 235 W/m 7,7 C 12,6 C 9,7 km/h (2 Bft) 100,00 %
12.11.2015 13:44 12,4 C 72 % 1028,2 hPa 0,0 l/m 5,6 km/h (1 Bft) W-NW 298 1 min 0,000 mm 0,6 UV-I 277 W/m 7,5 C 12,4 C 9,7 km/h (2 Bft) 100,00 %
12.11.2015 13:45 12,4 C 74 % 1028,2 hPa 0,0 l/m 3,9 km/h (1 Bft) W-SW 242 1 min 0,000 mm 0,6 UV-I 273 W/m 7,9 C 12,4 C 6,4 km/h (2 Bft) 100,00 %
12.11.2015 13:46 12,4 C 73 % 1028,2 hPa 0,0 l/m 3,9 km/h (1 Bft) W-NW 290 1 min 0,000 mm 0,7 UV-I 276 W/m 7,7 C 12,4 C 6,4 km/h (2 Bft) 100,00 %
12.11.2015 13:47 12,4 C 74 % 1028,2 hPa 0,0 l/m 3,8 km/h (1 Bft) W 269 1 min 0,000 mm 0,7 UV-I 338 W/m 7,9 C 12,4 C 6,4 km/h (2 Bft) 100,00 %
12.11.2015 13:48 12,4 C 74 % 1028,2 hPa 0,0 l/m 4,6 km/h (1 Bft) N-NW 342 1 min 0,000 mm 0,6 UV-I 310 W/m 7,9 C 12,4 C 6,4 km/h (2 Bft) 100,00 %
12.11.2015 13:49 12,3 C 76 % 1028,2 hPa 0,0 l/m 2,5 km/h (1 Bft) N 349 1 min 0,000 mm 0,6 UV-I 275 W/m 8,2 C 12,3 C 3,2 km/h (1 Bft) 100,00 %
12.11.2015 13:50 12,3 C 79 % 1028,2 hPa 0,0 l/m 1,8 km/h (1 Bft) N 355 1 min 0,000 mm 0,7 UV-I 322 W/m 8,8 C 12,3 C 3,2 km/h (1 Bft) 100,00 %
12.11.2015 13:51 12,3 C 78 % 1028,2 hPa 0,0 l/m 0,9 km/h (0 Bft) N 355 1 min 0,000 mm 0,7 UV-I 336 W/m 8,6 C 12,3 C 3,2 km/h (1 Bft) 100,00 %
12.11.2015 13:52 12,2 C 77 % 1028,1 hPa 0,0 l/m 2,1 km/h (1 Bft) N-NO 23 1 min 0,000 mm 0,7 UV-I 331 W/m 8,3 C 12,2 C 4,8 km/h (1 Bft) 100,00 %
12.11.2015 13:53 12,2 C 76 % 1028,2 hPa 0,0 l/m 3,8 km/h (1 Bft) N 5 1 min 0,000 mm 0,7 UV-I 324 W/m 8,1 C 12,2 C 8,0 km/h (2 Bft) 100,00 %
12.11.2015 13:54 12,2 C 77 % 1028,1 hPa 0,0 l/m 3,1 km/h (1 Bft) W-NW 300 1 min 0,000 mm 0,7 UV-I 349 W/m 8,3 C 12,2 C 4,8 km/h (1 Bft) 100,00 %
12.11.2015 13:55 12,2 C 75 % 1028,1 hPa 0,0 l/m 1,7 km/h (1 Bft) W-NW 299 1 min 0,000 mm 0,7 UV-I 331 W/m 7,9 C 12,2 C 3,2 km/h (1 Bft) 100,00 %
12.11.2015 13:56 12,2 C 76 % 1028,1 hPa 0,0 l/m 2,0 km/h (1 Bft) NW 315 1 min 0,000 mm 0,7 UV-I 331 W/m 8,1 C 12,2 C 4,8 km/h (1 Bft) 95,65 %
12.11.2015 13:57 12,3 C 77 % 1028,1 hPa 0,0 l/m 2,7 km/h (1 Bft) N-NO 20 1 min 0,000 mm 0,7 UV-I 337 W/m 8,4 C 12,3 C 4,8 km/h (1 Bft) 100,00 %
12.11.2015 13:58 12,2 C 75 % 1028,2 hPa 0,0 l/m 2,1 km/h (1 Bft) N-NO 21 1 min 0,000 mm 0,7 UV-I 314 W/m 7,9 C 12,2 C 3,2 km/h (1 Bft) 100,00 %
12.11.2015 13:59 12,2 C 80 % 1028,1 hPa 0,0 l/m 2,5 km/h (1 Bft) N-NO 17 1 min 0,000 mm 0,7 UV-I 302 W/m 8,9 C 12,2 C 4,8 km/h (1 Bft) 100,00 %
12.11.2015 14:00 12,2 C 79 % 1028,1 hPa 0,0 l/m 3,3 km/h (1 Bft) N-NO 24 1 min 0,178 mm 0,7 UV-I 279 W/m 8,7 C 12,2 C 4,8 km/h (1 Bft) 100,00 %
12.11.2015 14:01 12,2 C 78 % 1028,1 hPa 0,0 l/m 1,6 km/h (1 Bft) N-NO 22 1 min 0,000 mm 0,7 UV-I 272 W/m 8,5 C 12,2 C 3,2 km/h (1 Bft) 100,00 %
12.11.2015 14:02 12,2 C 77 % 1028,2 hPa 0,0 l/m 1,9 km/h (1 Bft) N-NO 17 1 min 0,000 mm 0,6 UV-I 257 W/m 8,3 C 12,2 C 3,2 km/h (1 Bft) 100,00 %
12.11.2015 14:03 12,2 C 76 % 1028,1 hPa 0,0 l/m 0,9 km/h (0 Bft) N-NO 17 1 min 0,000 mm 0,6 UV-I 275 W/m 8,1 C 12,2 C 1,6 km/h (1 Bft) 100,00 %
12.11.2015 14:04 12,2 C 78 % 1028,1 hPa 0,0 l/m 0,6 km/h (0 Bft) NO 38 1 min 0,000 mm 0,6 UV-I 276 W/m 8,5 C 12,2 C 1,6 km/h (1 Bft) 100,00 %
12.11.2015 14:05 12,2 C 77 % 1028,1 hPa 0,0 l/m 1,3 km/h (1 Bft) N 11 1 min 0,000 mm 0,6 UV-I 257 W/m 8,3 C 12,2 C 3,2 km/h (1 Bft) 100,00 %
12.11.2015 14:06 12,2 C 77 % 1028,2 hPa 0,0 l/m 3,1 km/h (1 Bft) N-NO 12 1 min 0,000 mm 0,6 UV-I 223 W/m 8,3 C 12,2 C 4,8 km/h (1 Bft) 96,15 %
12.11.2015 14:07 12,2 C 77 % 1028,2 hPa 0,0 l/m 2,6 km/h (1 Bft) N 355 1 min 0,000 mm 0,6 UV-I 204 W/m 8,3 C 12,2 C 4,8 km/h (1 Bft) 100,00 %
12.11.2015 14:08 12,1 C 77 % 1028,2 hPa 0,0 l/m 3,0 km/h (1 Bft) N 360 1 min 0,000 mm 0,6 UV-I 226 W/m 8,2 C 12,1 C 6,4 km/h (2 Bft) 100,00 %
12.11.2015 14:09 12,0 C 74 % 1028,2 hPa 0,0 l/m 2,3 km/h (1 Bft) N 360 1 min 0,000 mm 0,6 UV-I 214 W/m 7,5 C 12,0 C 4,8 km/h (1 Bft) 100,00 %
12.11.2015 14:10 11,9 C 77 % 1028,2 hPa 0,0 l/m 2,5 km/h (1 Bft) N-NO 13 1 min 0,000 mm 0,6 UV-I 210 W/m 8,0 C 11,9 C 3,2 km/h (1 Bft) 100,00 %
12.11.2015 14:11 12,0 C 77 % 1028,2 hPa 0,0 l/m 0,7 km/h (0 Bft) N-NO 13 1 min 0,000 mm 0,6 UV-I 216 W/m 8,1 C 12,0 C 1,6 km/h (1 Bft) 100,00 %
12.11.2015 14:12 12,0 C 76 % 1028,2 hPa 0,0 l/m 0,9 km/h (0 Bft) N 11 1 min 0,000 mm 0,6 UV-I 259 W/m 7,9 C 12,0 C 3,2 km/h (1 Bft) 100,00 %
12.11.2015 14:13 12,0 C 76 % 1028,2 hPa 0,0 l/m 2,3 km/h (1 Bft) N 5 1 min 0,000 mm 0,6 UV-I 309 W/m 7,9 C 12,0 C 4,8 km/h (1 Bft) 100,00 %
12.11.2015 14:14 12,1 C 78 % 1028,2 hPa 0,0 l/m 1,4 km/h (1 Bft) N 5 1 min 0,000 mm 0,6 UV-I 316 W/m 8,4 C 12,1 C 3,2 km/h (1 Bft) 100,00 %
12.11.2015 14:15 12,1 C 76 % 1028,2 hPa 0,0 l/m 1,4 km/h (1 Bft) N 5 1 min 0,000 mm 0,5 UV-I 263 W/m 8,0 C 12,1 C 3,2 km/h (1 Bft) 95,65 %
12.11.2015 14:16 12,1 C 77 % 1028,2 hPa 0,0 l/m 2,3 km/h (1 Bft) N 9 1 min 0,000 mm 0,5 UV-I 235 W/m 8,2 C 12,1 C 4,8 km/h (1 Bft) 100,00 %
12.11.2015 14:17 12,1 C 77 % 1028,2 hPa 0,0 l/m 0,8 km/h (0 Bft) N-NO 12 0 min 0,000 mm 0,5 UV-I 133 W/m 8,2 C 12,1 C 3,2 km/h (1 Bft) 100,00 %
12.11.2015 14:18 11,9 C 76 % 1028,2 hPa 0,0 l/m 1,5 km/h (1 Bft) N 9 0 min 0,000 mm 0,5 UV-I 146 W/m 7,8 C 11,9 C 3,2 km/h (1 Bft) 100,00 %
12.11.2015 14:19 11,9 C 78 % 1028,2 hPa 0,0 l/m 2,7 km/h (1 Bft) N 11 1 min 0,000 mm 0,5 UV-I 173 W/m 8,2 C 11,9 C 3,2 km/h (1 Bft) 100,00 %
12.11.2015 14:20 11,9 C 78 % 1028,2 hPa 0,0 l/m 1,4 km/h (1 Bft) N-NO 17 1 min 0,000 mm 0,5 UV-I 171 W/m 8,2 C 11,9 C 3,2 km/h (1 Bft) 100,00 %
12.11.2015 14:21 11,9 C 76 % 1028,2 hPa 0,0 l/m 1,3 km/h (1 Bft) N-NO 22 1 min 0,000 mm 0,5 UV-I 180 W/m 7,8 C 11,9 C 3,2 km/h (1 Bft) 100,00 %
12.11.2015 14:22 11,9 C 76 % 1028,2 hPa 0,0 l/m 1,4 km/h (1 Bft) N-NO 19 1 min 0,000 mm 0,5 UV-I 245 W/m 7,8 C 11,9 C 4,8 km/h (1 Bft) 100,00 %
12.11.2015 14:23 11,9 C 77 % 1028,2 hPa 0,0 l/m 2,6 km/h (1 Bft) N 355 1 min 0,000 mm 0,4 UV-I 291 W/m 8,0 C 11,9 C 6,4 km/h (2 Bft) 100,00 %
12.11.2015 14:24 12,0 C 77 % 1028,2 hPa 0,0 l/m 1,4 km/h (1 Bft) N-NO 30 1 min 0,000 mm 0,0 UV-I 300 W/m 8,1 C 12,0 C 3,2 km/h (1 Bft) 100,00 %
12.11.2015 14:25 12,1 C 78 % 1028,2 hPa 0,0 l/m 3,5 km/h (1 Bft) N-NO 23 1 min 0,000 mm 0,0 UV-I 268 W/m 8,4 C 12,1 C 6,4 km/h (2 Bft) 99,32 %
12.11.2015 14:26 12,1 C 77 % 1028,2 hPa 0,0 l/m 2,6 km/h (1 Bft) N 9 1 min 0,000 mm 0,0 UV-I 248 W/m 8,2 C 12,1 C 4,8 km/h (1 Bft) 100,00 %
12.11.2015 14:27 12,2 C 77 % 1028,2 hPa 0,0 l/m 1,8 km/h (1 Bft) N 9 0 min 0,000 mm 0,0 UV-I 93 W/m 8,3 C 12,2 C 3,2 km/h (1 Bft) 100,00 %
12.11.2015 14:28 12,1 C 76 % 1028,3 hPa 0,0 l/m 2,3 km/h (1 Bft) W-NW 296 0 min 0,000 mm 0,0 UV-I 87 W/m 8,0 C 12,1 C 4,8 km/h (1 Bft) 100,00 %
12.11.2015 14:29 12,1 C 76 % 1028,2 hPa 0,0 l/m 3,4 km/h (1 Bft) N 355 0 min 0,000 mm 0,0 UV-I 100 W/m 8,0 C 12,1 C 6,4 km/h (2 Bft) 100,00 %
12.11.2015 14:30 12,1 C 76 % 1028,2 hPa 0,0 l/m 2,3 km/h (1 Bft) N-NW 346 0 min 0,000 mm 0,0 UV-I 98 W/m 8,0 C 12,1 C 3,2 km/h (1 Bft) 100,00 %
12.11.2015 14:31 12,0 C 77 % 1028,2 hPa 0,0 l/m 2,8 km/h (1 Bft) N-NO 28 0 min 0,000 mm 0,0 UV-I 99 W/m 8,1 C 12,0 C 3,2 km/h (1 Bft) 100,00 %
12.11.2015 14:32 12,0 C 78 % 1028,2 hPa 0,0 l/m 4,5 km/h (1 Bft) N-NO 14 0 min 0,000 mm 0,0 UV-I 95 W/m 8,3 C 12,0 C 6,4 km/h (2 Bft) 100,00 %
12.11.2015 14:33 11,9 C 78 % 1028,2 hPa 0,0 l/m 2,8 km/h (1 Bft) N-NO 22 0 min 0,000 mm 0,0 UV-I 90 W/m 8,2 C 11,9 C 4,8 km/h (1 Bft) 100,00 %
12.11.2015 14:34 11,9 C 78 % 1028,2 hPa 0,0 l/m 3,4 km/h (1 Bft) N-NO 20 0 min 0,000 mm 0,0 UV-I 100 W/m 8,2 C 11,9 C 6,4 km/h (2 Bft) 100,00 %
12.11.2015 14:35 11,8 C 78 % 1028,2 hPa 0,0 l/m 2,5 km/h (1 Bft) N-NO 19 0 min 0,000 mm 0,0 UV-I 96 W/m 8,1 C 11,8 C 3,2 km/h (1 Bft) 100,00 %
12.11.2015 14:36 11,8 C 78 % 1028,2 hPa 0,0 l/m 2,3 km/h (1 Bft) N 9 0 min 0,000 mm 0,0 UV-I 92 W/m 8,1 C 11,8 C 3,2 km/h (1 Bft) 100,00 %
12.11.2015 14:37 11,8 C 78 % 1028,2 hPa 0,0 l/m 3,3 km/h (1 Bft) N 5 0 min 0,000 mm 0,0 UV-I 91 W/m 8,1 C 11,8 C 6,4 km/h (2 Bft) 100,00 %
12.11.2015 14:38 11,8 C 79 % 1028,2 hPa 0,0 l/m 2,8 km/h (1 Bft) N 9 0 min 0,000 mm 0,0 UV-I 86 W/m 8,3 C 11,8 C 6,4 km/h (2 Bft) 100,00 %
12.11.2015 14:39 11,8 C 79 % 1028,2 hPa 0,0 l/m 1,9 km/h (1 Bft) N-NO 13 0 min 0,000 mm 0,0 UV-I 82 W/m 8,3 C 11,8 C 3,2 km/h (1 Bft) 100,00 %
12.11.2015 14:40 11,7 C 79 % 1028,2 hPa 0,0 l/m 2,5 km/h (1 Bft) N 360 0 min 0,000 mm 0,0 UV-I 89 W/m 8,2 C 11,7 C 3,2 km/h (1 Bft) 100,00 %
12.11.2015 14:41 11,7 C 77 % 1028,2 hPa 0,0 l/m 2,0 km/h (1 Bft) N-NO 13 0 min 0,000 mm 0,0 UV-I 97 W/m 7,8 C 11,7 C 6,4 km/h (2 Bft) 100,00 %
12.11.2015 14:42 11,7 C 77 % 1028,2 hPa 0,0 l/m 2,9 km/h (1 Bft) N-NO 13 0 min 0,000 mm 0,0 UV-I 95 W/m 7,8 C 11,7 C 4,8 km/h (1 Bft) 100,00 %
12.11.2015 14:43 11,7 C 77 % 1028,2 hPa 0,0 l/m 2,7 km/h (1 Bft) N 360 0 min 0,000 mm 0,0 UV-I 87 W/m 7,8 C 11,7 C 4,8 km/h (1 Bft) 100,00 %
12.11.2015 14:44 11,6 C 77 % 1028,2 hPa 0,0 l/m 2,4 km/h (1 Bft) N-NO 31 0 min 0,000 mm 0,0 UV-I 80 W/m 7,7 C 11,6 C 3,2 km/h (1 Bft) 100,00 %
12.11.2015 14:45 11,6 C 78 % 1028,2 hPa 0,0 l/m 2,3 km/h (1 Bft) N-NO 22 0 min 0,000 mm 0,0 UV-I 76 W/m 7,9 C 11,6 C 3,2 km/h (1 Bft) 100,00 %
12.11.2015 14:46 11,6 C 78 % 1028,2 hPa 0,0 l/m 1,3 km/h (1 Bft) N-NO 22 0 min 0,000 mm 0,0 UV-I 78 W/m 7,9 C 11,6 C 1,6 km/h (1 Bft) 100,00 %
12.11.2015 14:47 11,6 C 79 % 1028,2 hPa 0,0 l/m 1,9 km/h (1 Bft) N-NO 22 0 min 0,000 mm 0,0 UV-I 82 W/m 8,1 C 11,6 C 3,2 km/h (1 Bft) 100,00 %
12.11.2015 14:48 11,6 C 79 % 1028,2 hPa 0,0 l/m 2,7 km/h (1 Bft) N-NO 22 0 min 0,000 mm 0,0 UV-I 80 W/m 8,1 C 11,6 C 3,2 km/h (1 Bft) 100,00 %
12.11.2015 14:49 11,6 C 79 % 1028,2 hPa 0,0 l/m 1,2 km/h (1 Bft) N-NO 22 0 min 0,000 mm 0,0 UV-I 77 W/m 8,1 C 11,6 C 1,6 km/h (1 Bft) 100,00 %
12.11.2015 14:50 11,6 C 77 % 1028,3 hPa 0,0 l/m 1,7 km/h (1 Bft) N-NO 15 0 min 0,000 mm 0,0 UV-I 83 W/m 7,7 C 11,6 C 3,2 km/h (1 Bft) 100,00 %
12.11.2015 14:51 11,6 C 77 % 1028,2 hPa 0,0 l/m 0,5 km/h (0 Bft) N-NO 15 0 min 0,000 mm 0,0 UV-I 83 W/m 7,7 C 11,6 C 1,6 km/h (1 Bft) 100,00 %
12.11.2015 14:52 11,7 C 77 % 1028,2 hPa 0,0 l/m 0,8 km/h (0 Bft) N-NO 15 0 min 0,000 mm 0,0 UV-I 84 W/m 7,8 C 11,7 C 1,6 km/h (1 Bft) 100,00 %
12.11.2015 14:53 11,6 C 77 % 1028,2 hPa 0,0 l/m 2,0 km/h (1 Bft) N-NO 15 0 min 0,000 mm 0,0 UV-I 83 W/m 7,7 C 11,6 C 3,2 km/h (1 Bft) 100,00 %
12.11.2015 14:54 11,7 C 77 % 1028,2 hPa 0,0 l/m 1,0 km/h (0 Bft) N-NO 15 0 min 0,000 mm 0,0 UV-I 85 W/m 7,8 C 11,7 C 1,6 km/h (1 Bft) 100,00 %
12.11.2015 14:55 11,6 C 78 % 1028,2 hPa 0,0 l/m 0,4 km/h (0 Bft) N-NO 15 0 min 0,000 mm 0,0 UV-I 88 W/m 7,9 C 11,6 C 1,6 km/h (1 Bft) 100,00 %
12.11.2015 14:56 11,7 C 78 % 1028,2 hPa 0,0 l/m 0,1 km/h (0 Bft) N-NO 15 0 min 0,000 mm 0,0 UV-I 86 W/m 8,0 C 11,7 C 1,6 km/h (1 Bft) 100,00 %
12.11.2015 14:57 11,7 C 78 % 1028,2 hPa 0,0 l/m 1,0 km/h (0 Bft) N-NO 15 0 min 0,000 mm 0,0 UV-I 84 W/m 8,0 C 11,7 C 3,2 km/h (1 Bft) 100,00 %
12.11.2015 14:58 11,7 C 77 % 1028,2 hPa 0,0 l/m 1,4 km/h (1 Bft) N-NO 15 0 min 0,000 mm 0,0 UV-I 82 W/m 7,8 C 11,7 C 3,2 km/h (1 Bft) 100,00 %
12.11.2015 14:59 11,7 C 76 % 1028,3 hPa 0,0 l/m 0,1 km/h (0 Bft) N-NO 15 0 min 0,000 mm 0,0 UV-I 81 W/m 7,6 C 11,7 C 1,6 km/h (1 Bft) 96,15 %
12.11.2015 15:00 11,7 C 76 % 1028,2 hPa 0,0 l/m 0,0 km/h (0 Bft) N-NO 15 0 min 0,000 mm 0,0 UV-I 81 W/m 7,6 C 11,7 C 0,0 km/h (0 Bft) 100,00 %
12.11.2015 15:01 11,7 C 76 % 1028,3 hPa 0,0 l/m 0,0 km/h (0 Bft) N-NO 15 0 min 0,076 mm 0,0 UV-I 80 W/m 7,6 C 11,7 C 0,0 km/h (0 Bft) 100,00 %
12.11.2015 15:02 11,7 C 77 % 1028,2 hPa 0,0 l/m 0,3 km/h (0 Bft) N-NO 15 0 min 0,000 mm 0,0 UV-I 74 W/m 7,8 C 11,7 C 1,6 km/h (1 Bft) 100,00 %
12.11.2015 15:03 11,7 C 75 % 1028,2 hPa 0,0 l/m 0,3 km/h (0 Bft) N-NO 13 0 min 0,000 mm 0,0 UV-I 59 W/m 7,4 C 11,7 C 1,6 km/h (1 Bft) 100,00 %
12.11.2015 15:04 11,7 C 75 % 1028,2 hPa 0,0 l/m 1,3 km/h (1 Bft) N-NO 13 0 min 0,000 mm 0,0 UV-I 60 W/m 7,4 C 11,7 C 1,6 km/h (1 Bft) 100,00 %
12.11.2015 15:05 11,7 C 75 % 1028,3 hPa 0,0 l/m 0,2 km/h (0 Bft) N-NO 13 0 min 0,000 mm 0,0 UV-I 69 W/m 7,4 C 11,7 C 1,6 km/h (1 Bft) 100,00 %
12.11.2015 15:06 11,7 C 77 % 1028,3 hPa 0,0 l/m 1,3 km/h (1 Bft) N-NO 16 0 min 0,000 mm 0,0 UV-I 65 W/m 7,8 C 11,7 C 3,2 km/h (1 Bft) 100,00 %
12.11.2015 15:07 11,7 C 75 % 1028,3 hPa 0,0 l/m 0,4 km/h (0 Bft) N-NO 16 0 min 0,000 mm 0,0 UV-I 58 W/m 7,4 C 11,7 C 1,6 km/h (1 Bft) 96,30 %
12.11.2015 15:08 11,7 C 77 % 1028,2 hPa 0,0 l/m 0,6 km/h (0 Bft) N-NO 16 0 min 0,000 mm 0,0 UV-I 56 W/m 7,8 C 11,7 C 1,6 km/h (1 Bft) 100,00 %
12.11.2015 15:09 11,7 C 78 % 1028,2 hPa 0,0 l/m 0,9 km/h (0 Bft) N-NO 16 0 min 0,000 mm 0,0 UV-I 57 W/m 8,0 C 11,7 C 1,6 km/h (1 Bft) 100,00 %
12.11.2015 15:10 11,7 C 77 % 1028,2 hPa 0,0 l/m 0,4 km/h (0 Bft) N-NO 16 0 min 0,000 mm 0,0 UV-I 54 W/m 7,8 C 11,7 C 1,6 km/h (1 Bft) 95,65 %
12.11.2015 15:11 11,7 C 77 % 1028,2 hPa 0,0 l/m 0,1 km/h (0 Bft) N-NO 16 0 min 0,000 mm 0,0 UV-I 51 W/m 7,8 C 11,7 C 1,6 km/h (1 Bft) 100,00 %
12.11.2015 15:12 11,7 C 77 % 1028,2 hPa 0,0 l/m 0,1 km/h (0 Bft) N-NO 16 0 min 0,000 mm 0,0 UV-I 47 W/m 7,8 C 11,7 C 1,6 km/h (1 Bft) 100,00 %
12.11.2015 15:13 11,7 C 75 % 1028,3 hPa 0,0 l/m 0,9 km/h (0 Bft) N-NO 16 0 min 0,000 mm 0,0 UV-I 46 W/m 7,4 C 11,7 C 1,6 km/h (1 Bft) 91,67 %
12.11.2015 15:14 11,7 C 75 % 1028,2 hPa 0,0 l/m 0,6 km/h (0 Bft) N-NO 16 0 min 0,000 mm 0,0 UV-I 40 W/m 7,4 C 11,7 C 1,6 km/h (1 Bft) 100,00 %
12.11.2015 15:15 11,7 C 77 % 1028,3 hPa 0,0 l/m 0,9 km/h (0 Bft) N-NO 16 0 min 0,000 mm 0,0 UV-I 43 W/m 7,8 C 11,7 C 1,6 km/h (1 Bft) 100,00 %
12.11.2015 15:16 11,7 C 76 % 1028,2 hPa 0,0 l/m 0,4 km/h (0 Bft) N-NO 16 0 min 0,000 mm 0,0 UV-I 48 W/m 7,6 C 11,7 C 1,6 km/h (1 Bft) 95,65 %
12.11.2015 15:17 11,7 C 76 % 1028,2 hPa 0,0 l/m 0,2 km/h (0 Bft) N-NO 16 0 min 0,000 mm 0,0 UV-I 52 W/m 7,6 C 11,7 C 1,6 km/h (1 Bft) 100,00 %
12.11.2015 15:18 11,6 C 76 % 1028,3 hPa 0,0 l/m 0,4 km/h (0 Bft) N-NO 16 0 min 0,000 mm 0,0 UV-I 58 W/m 7,5 C 11,6 C 1,6 km/h (1 Bft) 100,00 %
12.11.2015 15:19 11,6 C 75 % 1028,2 hPa 0,0 l/m 1,0 km/h (0 Bft) N-NO 16 0 min 0,000 mm 0,0 UV-I 64 W/m 7,3 C 11,6 C 1,6 km/h (1 Bft) 100,00 %
12.11.2015 15:20 11,6 C 75 % 1028,2 hPa 0,0 l/m 1,6 km/h (1 Bft) N 355 0 min 0,000 mm 0,0 UV-I 65 W/m 7,3 C 11,6 C 3,2 km/h (1 Bft) 100,00 %
12.11.2015 15:21 11,6 C 75 % 1028,2 hPa 0,0 l/m 0,0 km/h (0 Bft) N 355 0 min 0,000 mm 0,0 UV-I 63 W/m 7,3 C 11,6 C 0,0 km/h (0 Bft) 96,30 %
12.11.2015 15:22 11,6 C 75 % 1028,2 hPa 0,0 l/m 0,0 km/h (0 Bft) N 355 0 min 0,000 mm 0,0 UV-I 66 W/m 7,3 C 11,6 C 0,0 km/h (0 Bft) 100,00 %
12.11.2015 15:23 11,6 C 75 % 1028,2 hPa 0,0 l/m 0,0 km/h (0 Bft) N 355 0 min 0,000 mm 0,0 UV-I 61 W/m 7,3 C 11,6 C 0,0 km/h (0 Bft) 100,00 %
12.11.2015 15:24 11,6 C 75 % 1028,3 hPa 0,0 l/m 0,0 km/h (0 Bft) N 355 0 min 0,000 mm 0,0 UV-I 55 W/m 7,3 C 11,6 C 0,0 km/h (0 Bft) 100,00 %
12.11.2015 15:25 11,6 C 75 % 1028,2 hPa 0,0 l/m 0,1 km/h (0 Bft) N 355 0 min 0,000 mm 0,0 UV-I 63 W/m 7,3 C 11,6 C 1,6 km/h (1 Bft) 100,00 %
12.11.2015 15:26 11,6 C 78 % 1028,2 hPa 0,0 l/m 0,1 km/h (0 Bft) N 355 0 min 0,000 mm 0,0 UV-I 60 W/m 7,9 C 11,6 C 1,6 km/h (1 Bft) 100,00 %
12.11.2015 15:27 11,6 C 77 % 1028,2 hPa 0,0 l/m 1,9 km/h (1 Bft) N-NO 25 0 min 0,000 mm 0,0 UV-I 60 W/m 7,7 C 11,6 C 3,2 km/h (1 Bft) 100,00 %
12.11.2015 15:28 11,6 C 77 % 1028,2 hPa 0,0 l/m 1,8 km/h (1 Bft) N-NO 25 0 min 0,000 mm 0,0 UV-I 62 W/m 7,7 C 11,6 C 3,2 km/h (1 Bft) 95,65 %
12.11.2015 15:29 11,6 C 76 % 1028,2 hPa 0,0 l/m 1,5 km/h (1 Bft) N-NO 25 0 min 0,000 mm 0,0 UV-I 61 W/m 7,5 C 11,6 C 1,6 km/h (1 Bft) 95,83 %
12.11.2015 15:30 11,6 C 76 % 1028,2 hPa 0,0 l/m 1,4 km/h (1 Bft) N-NO 25 0 min 0,000 mm 0,0 UV-I 56 W/m 7,5 C 11,6 C 3,2 km/h (1 Bft) 100,00 %
12.11.2015 15:31 11,6 C 77 % 1028,2 hPa 0,0 l/m 3,0 km/h (1 Bft) N-NO 23 0 min 0,000 mm 0,0 UV-I 52 W/m 7,7 C 11,6 C 4,8 km/h (1 Bft) 100,00 %
12.11.2015 15:32 11,6 C 77 % 1028,2 hPa 0,0 l/m 1,5 km/h (1 Bft) N-NO 19 0 min 0,000 mm 0,0 UV-I 51 W/m 7,7 C 11,6 C 3,2 km/h (1 Bft) 100,00 %
12.11.2015 15:33 11,6 C 77 % 1028,2 hPa 0,0 l/m 3,2 km/h (1 Bft) N 10 0 min 0,000 mm 0,0 UV-I 53 W/m 7,7 C 11,6 C 4,8 km/h (1 Bft) 100,00 %
12.11.2015 15:34 11,6 C 77 % 1028,2 hPa 0,0 l/m 1,3 km/h (1 Bft) N 11 0 min 0,000 mm 0,0 UV-I 53 W/m 7,7 C 11,6 C 3,2 km/h (1 Bft) 100,00 %
12.11.2015 15:35 11,5 C 79 % 1028,2 hPa 0,0 l/m 1,5 km/h (1 Bft) N 11 0 min 0,000 mm 0,0 UV-I 52 W/m 8,0 C 11,5 C 3,2 km/h (1 Bft) 100,00 %
12.11.2015 15:36 11,5 C 77 % 1028,2 hPa 0,0 l/m 3,8 km/h (1 Bft) N-NO 30 0 min 0,000 mm 0,0 UV-I 50 W/m 7,6 C 11,5 C 6,4 km/h (2 Bft) 95,83 %
12.11.2015 15:37 11,4 C 78 % 1028,2 hPa 0,0 l/m 2,0 km/h (1 Bft) N-NO 15 0 min 0,000 mm 0,0 UV-I 46 W/m 7,7 C 11,4 C 4,8 km/h (1 Bft) 100,00 %
12.11.2015 15:38 11,4 C 78 % 1028,2 hPa 0,0 l/m 2,7 km/h (1 Bft) N-NO 28 0 min 0,000 mm 0,0 UV-I 44 W/m 7,7 C 11,4 C 4,8 km/h (1 Bft) 100,00 %
12.11.2015 15:39 11,4 C 79 % 1028,2 hPa 0,0 l/m 2,4 km/h (1 Bft) N-NO 24 0 min 0,000 mm 0,0 UV-I 41 W/m 7,9 C 11,4 C 3,2 km/h (1 Bft) 100,00 %
12.11.2015 15:40 11,3 C 78 % 1028,2 hPa 0,0 l/m 2,3 km/h (1 Bft) N-NO 24 0 min 0,000 mm 0,0 UV-I 40 W/m 7,6 C 11,3 C 3,2 km/h (1 Bft) 95,83 %
12.11.2015 15:41 11,3 C 79 % 1028,2 hPa 0,0 l/m 1,6 km/h (1 Bft) N-NO 23 0 min 0,000 mm 0,0 UV-I 42 W/m 7,8 C 11,3 C 3,2 km/h (1 Bft) 95,65 %
12.11.2015 15:42 11,3 C 78 % 1028,3 hPa 0,0 l/m 3,1 km/h (1 Bft) N-NO 24 0 min 0,000 mm 0,0 UV-I 46 W/m 7,6 C 11,3 C 4,8 km/h (1 Bft) 100,00 %
12.11.2015 15:43 11,3 C 79 % 1028,3 hPa 0,0 l/m 1,6 km/h (1 Bft) NO 53 0 min 0,000 mm 0,0 UV-I 46 W/m 7,8 C 11,3 C 4,8 km/h (1 Bft) 100,00 %
12.11.2015 15:44 11,3 C 79 % 1028,3 hPa 0,0 l/m 2,8 km/h (1 Bft) N-NO 23 0 min 0,000 mm 0,0 UV-I 47 W/m 7,8 C 11,3 C 4,8 km/h (1 Bft) 100,00 %
12.11.2015 15:45 11,2 C 79 % 1028,3 hPa 0,0 l/m 2,4 km/h (1 Bft) NO 36 0 min 0,000 mm 0,0 UV-I 50 W/m 7,7 C 11,2 C 3,2 km/h (1 Bft) 100,00 %
12.11.2015 15:46 11,2 C 80 % 1028,3 hPa 0,0 l/m 2,3 km/h (1 Bft) NO 44 1 min 0,000 mm 0,0 UV-I 54 W/m 7,9 C 11,2 C 3,2 km/h (1 Bft) 100,00 %
12.11.2015 15:47 11,2 C 79 % 1028,3 hPa 0,0 l/m 2,3 km/h (1 Bft) N-NO 31 1 min 0,000 mm 0,0 UV-I 54 W/m 7,7 C 11,2 C 3,2 km/h (1 Bft) 100,00 %
12.11.2015 15:48 11,2 C 79 % 1028,3 hPa 0,0 l/m 1,4 km/h (1 Bft) N-NO 31 0 min 0,000 mm 0,0 UV-I 48 W/m 7,7 C 11,2 C 3,2 km/h (1 Bft) 95,65 %
12.11.2015 15:49 11,2 C 80 % 1028,3 hPa 0,0 l/m 1,3 km/h (1 Bft) N-NO 31 0 min 0,000 mm 0,0 UV-I 44 W/m 7,9 C 11,2 C 1,6 km/h (1 Bft) 100,00 %
12.11.2015 15:50 11,2 C 79 % 1028,3 hPa 0,0 l/m 3,3 km/h (1 Bft) N 355 0 min 0,000 mm 0,0 UV-I 38 W/m 7,7 C 11,2 C 4,8 km/h (1 Bft) 100,00 %
12.11.2015 15:51 11,2 C 79 % 1028,3 hPa 0,0 l/m 3,7 km/h (1 Bft) N-NO 15 0 min 0,000 mm 0,0 UV-I 35 W/m 7,7 C 11,2 C 4,8 km/h (1 Bft) 95,83 %
12.11.2015 15:52 11,2 C 79 % 1028,3 hPa 0,0 l/m 3,0 km/h (1 Bft) N-NO 13 0 min 0,000 mm 0,0 UV-I 34 W/m 7,7 C 11,2 C 4,8 km/h (1 Bft) 100,00 %
12.11.2015 15:53 11,1 C 79 % 1028,3 hPa 0,0 l/m 3,0 km/h (1 Bft) N-NO 23 0 min 0,000 mm 0,0 UV-I 33 W/m 7,6 C 11,1 C 4,8 km/h (1 Bft) 95,83 %
12.11.2015 15:54 11,1 C 79 % 1028,3 hPa 0,0 l/m 2,0 km/h (1 Bft) N-NO 29 0 min 0,000 mm 0,0 UV-I 32 W/m 7,6 C 11,1 C 3,2 km/h (1 Bft) 100,00 %
12.11.2015 15:55 11,1 C 79 % 1028,3 hPa 0,0 l/m 2,1 km/h (1 Bft) N-NO 24 0 min 0,000 mm 0,0 UV-I 30 W/m 7,6 C 11,1 C 4,8 km/h (1 Bft) 100,00 %
12.11.2015 15:56 11,1 C 79 % 1028,3 hPa 0,0 l/m 1,9 km/h (1 Bft) N-NO 22 0 min 0,000 mm 0,0 UV-I 30 W/m 7,6 C 11,1 C 4,8 km/h (1 Bft) 100,00 %
12.11.2015 15:57 11,1 C 80 % 1028,3 hPa 0,0 l/m 2,2 km/h (1 Bft) NO 49 0 min 0,000 mm 0,0 UV-I 30 W/m 7,8 C 11,1 C 3,2 km/h (1 Bft) 91,67 %
12.11.2015 15:58 11,0 C 79 % 1028,3 hPa 0,0 l/m 2,0 km/h (1 Bft) NO 42 0 min 0,000 mm 0,0 UV-I 30 W/m 7,5 C 11,0 C 3,2 km/h (1 Bft) 100,00 %
12.11.2015 15:59 11,0 C 79 % 1028,3 hPa 0,0 l/m 3,0 km/h (1 Bft) N-NO 27 0 min 0,000 mm 0,0 UV-I 29 W/m 7,5 C 11,0 C 4,8 km/h (1 Bft) 100,00 %
12.11.2015 16:00 11,0 C 80 % 1028,3 hPa 0,0 l/m 2,5 km/h (1 Bft) N-NO 26 0 min 0,026 mm 0,0 UV-I 28 W/m 7,7 C 11,0 C 3,2 km/h (1 Bft) 95,65 %
12.11.2015 16:01 11,0 C 80 % 1028,3 hPa 0,0 l/m 1,5 km/h (1 Bft) N-NO 26 0 min 0,000 mm 0,0 UV-I 26 W/m 7,7 C 11,0 C 3,2 km/h (1 Bft) 95,83 %
12.11.2015 16:02 10,9 C 80 % 1028,3 hPa 0,0 l/m 1,5 km/h (1 Bft) N-NO 26 0 min 0,000 mm 0,0 UV-I 26 W/m 7,6 C 10,9 C 3,2 km/h (1 Bft) 100,00 %
12.11.2015 16:03 10,9 C 80 % 1028,3 hPa 0,0 l/m 2,4 km/h (1 Bft) N-NO 27 0 min 0,000 mm 0,0 UV-I 26 W/m 7,6 C 10,9 C 4,8 km/h (1 Bft) 100,00 %
12.11.2015 16:04 10,9 C 80 % 1028,3 hPa 0,0 l/m 1,0 km/h (0 Bft) N-NO 27 0 min 0,000 mm 0,0 UV-I 26 W/m 7,6 C 10,9 C 1,6 km/h (1 Bft) 100,00 %
12.11.2015 16:05 10,9 C 79 % 1028,3 hPa 0,0 l/m 3,1 km/h (1 Bft) N-NO 25 0 min 0,000 mm 0,0 UV-I 24 W/m 7,4 C 10,9 C 4,8 km/h (1 Bft) 100,00 %
12.11.2015 16:06 10,9 C 79 % 1028,2 hPa 0,0 l/m 1,7 km/h (1 Bft) N-NO 25 0 min 0,000 mm 0,0 UV-I 21 W/m 7,4 C 10,9 C 3,2 km/h (1 Bft) 100,00 %
12.11.2015 16:07 10,8 C 80 % 1028,2 hPa 0,0 l/m 1,7 km/h (1 Bft) N-NO 25 0 min 0,000 mm 0,0 UV-I 19 W/m 7,5 C 10,8 C 3,2 km/h (1 Bft) 100,00 %
12.11.2015 16:08 10,8 C 79 % 1028,2 hPa 0,0 l/m 2,7 km/h (1 Bft) N-NO 25 0 min 0,000 mm 0,0 UV-I 18 W/m 7,3 C 10,8 C 3,2 km/h (1 Bft) 100,00 %
12.11.2015 16:09 10,8 C 79 % 1028,2 hPa 0,0 l/m 0,9 km/h (0 Bft) N-NO 25 0 min 0,000 mm 0,0 UV-I 18 W/m 7,3 C 10,8 C 1,6 km/h (1 Bft) 100,00 %
12.11.2015 16:10 10,8 C 79 % 1028,2 hPa 0,0 l/m 0,7 km/h (0 Bft) N-NO 25 0 min 0,000 mm 0,0 UV-I 20 W/m 7,3 C 10,8 C 1,6 km/h (1 Bft) 100,00 %
12.11.2015 16:11 10,8 C 79 % 1028,2 hPa 0,0 l/m 0,2 km/h (0 Bft) N-NO 25 1 min 0,000 mm 0,0 UV-I 22 W/m 7,3 C 10,8 C 1,6 km/h (1 Bft) 96,15 %
12.11.2015 16:12 10,8 C 79 % 1028,2 hPa 0,0 l/m 0,1 km/h (0 Bft) N-NO 25 1 min 0,000 mm 0,0 UV-I 25 W/m 7,3 C 10,8 C 1,6 km/h (1 Bft) 100,00 %
12.11.2015 16:13 10,7 C 79 % 1028,2 hPa 0,0 l/m 0,0 km/h (0 Bft) N-NO 25 1 min 0,000 mm 0,0 UV-I 25 W/m 7,2 C 10,7 C 0,0 km/h (0 Bft) 100,00 %
12.11.2015 16:14 10,7 C 79 % 1028,2 hPa 0,0 l/m 0,0 km/h (0 Bft) N-NO 25 1 min 0,000 mm 0,0 UV-I 22 W/m 7,2 C 10,7 C 0,0 km/h (0 Bft) 100,00 %
12.11.2015 16:15 10,7 C 79 % 1028,2 hPa 0,0 l/m 0,2 km/h (0 Bft) N-NO 25 1 min 0,000 mm 0,0 UV-I 20 W/m 7,2 C 10,7 C 1,6 km/h (1 Bft) 100,00 %
12.11.2015 16:16 10,7 C 79 % 1028,1 hPa 0,0 l/m 0,7 km/h (0 Bft) N-NO 25 1 min 0,000 mm 0,0 UV-I 18 W/m 7,2 C 10,7 C 1,6 km/h (1 Bft) 100,00 %
12.11.2015 16:17 10,7 C 79 % 1028,2 hPa 0,0 l/m 0,8 km/h (0 Bft) N-NO 25 1 min 0,000 mm 0,0 UV-I 16 W/m 7,2 C 10,7 C 1,6 km/h (1 Bft) 100,00 %
12.11.2015 16:18 10,7 C 79 % 1028,2 hPa 0,0 l/m 0,4 km/h (0 Bft) N-NO 25 1 min 0,000 mm 0,0 UV-I 16 W/m 7,2 C 10,7 C 1,6 km/h (1 Bft) 100,00 %
12.11.2015 16:19 10,6 C 79 % 1028,2 hPa 0,0 l/m 1,0 km/h (0 Bft) N-NO 25 0 min 0,000 mm 0,0 UV-I 14 W/m 7,1 C 10,6 C 1,6 km/h (1 Bft) 100,00 %
12.11.2015 16:20 10,6 C 79 % 1028,2 hPa 0,0 l/m 0,6 km/h (0 Bft) N-NO 25 0 min 0,000 mm 0,0 UV-I 13 W/m 7,1 C 10,6 C 1,6 km/h (1 Bft) 100,00 %
12.11.2015 16:21 10,6 C 80 % 1028,2 hPa 0,0 l/m 0,8 km/h (0 Bft) N-NO 25 0 min 0,000 mm 0,0 UV-I 12 W/m 7,3 C 10,6 C 1,6 km/h (1 Bft) 100,00 %
12.11.2015 16:22 10,5 C 80 % 1028,2 hPa 0,0 l/m 0,8 km/h (0 Bft) N-NO 25 0 min 0,000 mm 0,0 UV-I 11 W/m 7,2 C 10,5 C 1,6 km/h (1 Bft) 100,00 %
12.11.2015 16:23 10,5 C 80 % 1028,2 hPa 0,0 l/m 0,2 km/h (0 Bft) N-NO 25 0 min 0,000 mm 0,0 UV-I 10 W/m 7,2 C 10,5 C 1,6 km/h (1 Bft) 100,00 %
12.11.2015 16:24 10,4 C 80 % 1028,2 hPa 0,0 l/m 0,0 km/h (0 Bft) N-NO 25 0 min 0,000 mm 0,0 UV-I 9 W/m 7,1 C 10,4 C 0,0 km/h (0 Bft) 100,00 %
12.11.2015 16:25 10,3 C 81 % 1028,2 hPa 0,0 l/m 0,2 km/h (0 Bft) N-NO 25 0 min 0,000 mm 0,0 UV-I 9 W/m 7,2 C 10,3 C 1,6 km/h (1 Bft) 100,00 %
12.11.2015 16:26 10,3 C 81 % 1028,2 hPa 0,0 l/m 0,2 km/h (0 Bft) N-NO 25 0 min 0,000 mm 0,0 UV-I 7 W/m 7,2 C 10,3 C 1,6 km/h (1 Bft) 100,00 %
12.11.2015 16:27 10,3 C 81 % 1028,2 hPa 0,0 l/m 0,0 km/h (0 Bft) N-NO 25 0 min 0,000 mm 0,0 UV-I 7 W/m 7,2 C 10,3 C 0,0 km/h (0 Bft) 100,00 %
12.11.2015 16:28 10,2 C 81 % 1028,3 hPa 0,0 l/m 0,0 km/h (0 Bft) N-NO 25 0 min 0,000 mm 0,0 UV-I 7 W/m 7,1 C 10,2 C 0,0 km/h (0 Bft) 100,00 %
12.11.2015 16:29 10,2 C 81 % 1028,2 hPa 0,0 l/m 0,0 km/h (0 Bft) N-NO 25 0 min 0,000 mm 0,0 UV-I 5 W/m 7,1 C 10,2 C 0,0 km/h (0 Bft) 100,00 %
12.11.2015 16:30 10,2 C 81 % 1028,3 hPa 0,0 l/m 0,0 km/h (0 Bft) N-NO 25 0 min 0,000 mm 0,0 UV-I 5 W/m 7,1 C 10,2 C 0,0 km/h (0 Bft) 100,00 %
12.11.2015 16:31 10,2 C 81 % 1028,3 hPa 0,0 l/m 0,1 km/h (0 Bft) N-NO 25 0 min 0,000 mm 0,0 UV-I 5 W/m 7,1 C 10,2 C 1,6 km/h (1 Bft) 100,00 %
12.11.2015 16:32 10,2 C 81 % 1028,3 hPa 0,0 l/m 0,0 km/h (0 Bft) N-NO 25 0 min 0,000 mm 0,0 UV-I 5 W/m 7,1 C 10,2 C 0,0 km/h (0 Bft) 100,00 %
12.11.2015 16:33 10,1 C 81 % 1028,2 hPa 0,0 l/m 0,0 km/h (0 Bft) N-NO 25 0 min 0,000 mm 0,0 UV-I 2 W/m 7,0 C 10,1 C 0,0 km/h (0 Bft) 100,00 %
12.11.2015 16:34 10,1 C 81 % 1028,3 hPa 0,0 l/m 0,1 km/h (0 Bft) N-NO 25 0 min 0,000 mm 0,0 UV-I 0 W/m 7,0 C 10,1 C 1,6 km/h (1 Bft) 100,00 %
12.11.2015 16:35 10,0 C 81 % 1028,2 hPa 0,0 l/m 0,7 km/h (0 Bft) N-NO 25 0 min 0,000 mm 0,0 UV-I 0 W/m 6,9 C 10,0 C 1,6 km/h (1 Bft) 95,83 %
12.11.2015 16:36 9,9 C 81 % 1028,2 hPa 0,0 l/m 1,1 km/h (1 Bft) N-NO 25 0 min 0,000 mm 0,0 UV-I 0 W/m 6,8 C 9,9 C 3,2 km/h (1 Bft) 100,00 %
12.11.2015 16:37 9,9 C 81 % 1028,2 hPa 0,0 l/m 0,7 km/h (0 Bft) N-NO 25 0 min 0,000 mm 0,0 UV-I 0 W/m 6,8 C 9,9 C 1,6 km/h (1 Bft) 100,00 %
12.11.2015 16:38 9,8 C 82 % 1028,2 hPa 0,0 l/m 0,1 km/h (0 Bft) N-NO 25 0 min 0,000 mm 0,0 UV-I 0 W/m 6,9 C 9,8 C 1,6 km/h (1 Bft) 100,00 %
12.11.2015 16:39 9,7 C 82 % 1028,2 hPa 0,0 l/m 0,3 km/h (0 Bft) N-NO 25 0 min 0,000 mm 0,0 UV-I 0 W/m 6,8 C 9,7 C 1,6 km/h (1 Bft) 100,00 %
12.11.2015 16:40 9,7 C 83 % 1028,2 hPa 0,0 l/m 0,8 km/h (0 Bft) N-NO 25 0 min 0,000 mm 0,0 UV-I 0 W/m 7,0 C 9,7 C 1,6 km/h (1 Bft) 100,00 %
12.11.2015 16:41 9,6 C 83 % 1028,2 hPa 0,0 l/m 1,7 km/h (1 Bft) N-NO 25 0 min 0,000 mm 0,0 UV-I 0 W/m 6,9 C 9,6 C 3,2 km/h (1 Bft) 100,00 %
12.11.2015 16:42 9,6 C 83 % 1028,3 hPa 0,0 l/m 0,3 km/h (0 Bft) N-NO 25 0 min 0,000 mm 0,0 UV-I 0 W/m 6,9 C 9,6 C 1,6 km/h (1 Bft) 100,00 %
12.11.2015 16:43 9,5 C 83 % 1028,2 hPa 0,0 l/m 0,1 km/h (0 Bft) N-NO 25 0 min 0,000 mm 0,0 UV-I 0 W/m 6,8 C 9,5 C 1,6 km/h (1 Bft) 100,00 %
12.11.2015 16:44 9,5 C 83 % 1028,3 hPa 0,0 l/m 0,1 km/h (0 Bft) N-NO 25 0 min 0,000 mm 0,0 UV-I 0 W/m 6,8 C 9,5 C 1,6 km/h (1 Bft) 100,00 %
12.11.2015 16:45 9,4 C 83 % 1028,3 hPa 0,0 l/m 0,1 km/h (0 Bft) N-NO 25 0 min 0,000 mm 0,0 UV-I 0 W/m 6,7 C 9,4 C 1,6 km/h (1 Bft) 100,00 %
12.11.2015 16:46 9,4 C 83 % 1028,3 hPa 0,0 l/m 0,2 km/h (0 Bft) N-NO 25 0 min 0,000 mm 0,0 UV-I 0 W/m 6,7 C 9,4 C 1,6 km/h (1 Bft) 100,00 %
12.11.2015 16:47 9,4 C 83 % 1028,3 hPa 0,0 l/m 0,0 km/h (0 Bft) N-NO 25 0 min 0,000 mm 0,0 UV-I 0 W/m 6,7 C 9,4 C 0,0 km/h (0 Bft) 100,00 %
12.11.2015 16:48 9,3 C 83 % 1028,3 hPa 0,0 l/m 0,0 km/h (0 Bft) N-NO 25 0 min 0,000 mm 0,0 UV-I 0 W/m 6,6 C 9,3 C 0,0 km/h (0 Bft) 100,00 %
12.11.2015 16:49 9,3 C 83 % 1028,3 hPa 0,0 l/m 0,0 km/h (0 Bft) N-NO 25 0 min 0,000 mm 0,0 UV-I 0 W/m 6,6 C 9,3 C 0,0 km/h (0 Bft) 100,00 %
12.11.2015 16:50 9,3 C 83 % 1028,3 hPa 0,0 l/m 0,0 km/h (0 Bft) N-NO 25 0 min 0,000 mm 0,0 UV-I 0 W/m 6,6 C 9,3 C 0,0 km/h (0 Bft) 100,00 %
12.11.2015 16:51 9,3 C 83 % 1028,3 hPa 0,0 l/m 0,0 km/h (0 Bft) N-NO 25 0 min 0,000 mm 0,0 UV-I 0 W/m 6,6 C 9,3 C 0,0 km/h (0 Bft) 100,00 %
12.11.2015 16:52 9,3 C 83 % 1028,3 hPa 0,0 l/m 0,0 km/h (0 Bft) N-NO 25 0 min 0,000 mm 0,0 UV-I 0 W/m 6,6 C 9,3 C 0,0 km/h (0 Bft) 95,83 %
12.11.2015 16:53 9,3 C 83 % 1028,3 hPa 0,0 l/m 0,0 km/h (0 Bft) N-NO 25 0 min 0,000 mm 0,0 UV-I 0 W/m 6,6 C 9,3 C 0,0 km/h (0 Bft) 100,00 %
12.11.2015 16:54 9,3 C 83 % 1028,3 hPa 0,0 l/m 0,0 km/h (0 Bft) N-NO 25 0 min 0,000 mm 0,0 UV-I 0 W/m 6,6 C 9,3 C 0,0 km/h (0 Bft) 100,00 %
12.11.2015 16:55 9,3 C 83 % 1028,3 hPa 0,0 l/m 0,1 km/h (0 Bft) N-NO 25 0 min 0,000 mm 0,0 UV-I 0 W/m 6,6 C 9,3 C 1,6 km/h (1 Bft) 100,00 %
12.11.2015 16:56 9,3 C 83 % 1028,3 hPa 0,0 l/m 1,4 km/h (1 Bft) O-SO 115 0 min 0,000 mm 0,0 UV-I 0 W/m 6,6 C 9,3 C 3,2 km/h (1 Bft) 100,00 %
12.11.2015 16:57 9,2 C 84 % 1028,3 hPa 0,0 l/m 3,4 km/h (1 Bft) SO 127 0 min 0,000 mm 0,0 UV-I 0 W/m 6,6 C 9,2 C 4,8 km/h (1 Bft) 95,65 %
12.11.2015 16:58 9,1 C 85 % 1028,3 hPa 0,0 l/m 3,2 km/h (1 Bft) SO 124 0 min 0,000 mm 0,0 UV-I 0 W/m 6,7 C 9,1 C 4,8 km/h (1 Bft) 100,00 %
12.11.2015 16:59 9,0 C 85 % 1028,3 hPa 0,0 l/m 2,8 km/h (1 Bft) SO 130 0 min 0,000 mm 0,0 UV-I 0 W/m 6,6 C 9,0 C 4,8 km/h (1 Bft) 92,86 %
12.11.2015 17:00 8,9 C 86 % 1028,3 hPa 0,0 l/m 1,7 km/h (1 Bft) SO 130 0 min 0,000 mm 0,0 UV-I 0 W/m 6,7 C 8,9 C 3,2 km/h (1 Bft) 100,00 %
12.11.2015 17:01 8,8 C 86 % 1028,2 hPa 0,0 l/m 2,0 km/h (1 Bft) SO 130 0 min 0,000 mm 0,0 UV-I 0 W/m 6,6 C 8,8 C 3,2 km/h (1 Bft) 95,65 %
12.11.2015 17:02 8,6 C 86 % 1028,3 hPa 0,0 l/m 1,6 km/h (1 Bft) SO 130 0 min 0,000 mm 0,0 UV-I 0 W/m 6,4 C 8,6 C 3,2 km/h (1 Bft) 100,00 %
12.11.2015 17:03 8,4 C 86 % 1028,3 hPa 0,0 l/m 1,4 km/h (1 Bft) SO 130 0 min 0,000 mm 0,0 UV-I 0 W/m 6,2 C 8,4 C 1,6 km/h (1 Bft) 100,00 %
12.11.2015 17:04 8,3 C 86 % 1028,3 hPa 0,0 l/m 1,7 km/h (1 Bft) SO 130 0 min 0,000 mm 0,0 UV-I 0 W/m 6,1 C 8,3 C 3,2 km/h (1 Bft) 100,00 %
12.11.2015 17:05 8,2 C 86 % 1028,3 hPa 0,0 l/m 2,1 km/h (1 Bft) SO 130 0 min 0,000 mm 0,0 UV-I 0 W/m 6,0 C 8,2 C 3,2 km/h (1 Bft) 100,00 %
12.11.2015 17:06 8,1 C 87 % 1028,2 hPa 0,0 l/m 2,2 km/h (1 Bft) SO 130 0 min 0,000 mm 0,0 UV-I 0 W/m 6,1 C 8,1 C 3,2 km/h (1 Bft) 100,00 %
12.11.2015 17:07 7,9 C 87 % 1028,3 hPa 0,0 l/m 2,5 km/h (1 Bft) SO 130 0 min 0,000 mm 0,0 UV-I 0 W/m 5,9 C 7,9 C 3,2 km/h (1 Bft) 100,00 %
12.11.2015 17:08 7,8 C 87 % 1028,3 hPa 0,0 l/m 2,2 km/h (1 Bft) SO 130 0 min 0,000 mm 0,0 UV-I 0 W/m 5,8 C 7,8 C 3,2 km/h (1 Bft) 95,83 %
12.11.2015 17:09 7,8 C 88 % 1028,3 hPa 0,0 l/m 1,9 km/h (1 Bft) SO 130 0 min 0,000 mm 0,0 UV-I 0 W/m 5,9 C 7,8 C 3,2 km/h (1 Bft) 100,00 %
12.11.2015 17:10 7,8 C 89 % 1028,3 hPa 0,0 l/m 1,5 km/h (1 Bft) SO 130 0 min 0,000 mm 0,0 UV-I 0 W/m 6,1 C 7,8 C 1,6 km/h (1 Bft) 100,00 %
12.11.2015 17:11 7,8 C 89 % 1028,3 hPa 0,0 l/m 1,2 km/h (1 Bft) SO 130 0 min 0,000 mm 0,0 UV-I 0 W/m 6,1 C 7,8 C 1,6 km/h (1 Bft) 100,00 %
12.11.2015 17:12 7,9 C 89 % 1028,3 hPa 0,0 l/m 0,9 km/h (0 Bft) SO 130 0 min 0,000 mm 0,0 UV-I 0 W/m 6,2 C 7,9 C 1,6 km/h (1 Bft) 100,00 %
12.11.2015 17:13 8,0 C 88 % 1028,3 hPa 0,0 l/m 1,1 km/h (1 Bft) SO 130 0 min 0,000 mm 0,0 UV-I 0 W/m 6,1 C 8,0 C 1,6 km/h (1 Bft) 100,00 %
12.11.2015 17:14 8,1 C 88 % 1028,3 hPa 0,0 l/m 0,9 km/h (0 Bft) SO 130 0 min 0,000 mm 0,0 UV-I 0 W/m 6,2 C 8,1 C 1,6 km/h (1 Bft) 100,00 %
12.11.2015 17:15 8,2 C 88 % 1028,3 hPa 0,0 l/m 1,5 km/h (1 Bft) SO 130 0 min 0,000 mm 0,0 UV-I 0 W/m 6,3 C 8,2 C 3,2 km/h (1 Bft) 97,22 %
12.11.2015 17:16 8,2 C 88 % 1028,3 hPa 0,0 l/m 1,0 km/h (0 Bft) SO 130 0 min 0,000 mm 0,0 UV-I 0 W/m 6,3 C 8,2 C 1,6 km/h (1 Bft) 100,00 %
12.11.2015 17:17 8,3 C 87 % 1028,3 hPa 0,0 l/m 0,8 km/h (0 Bft) SO 130 0 min 0,000 mm 0,0 UV-I 0 W/m 6,3 C 8,3 C 1,6 km/h (1 Bft) 100,00 %
12.11.2015 17:18 8,3 C 87 % 1028,3 hPa 0,0 l/m 0,5 km/h (0 Bft) SO 130 0 min 0,000 mm 0,0 UV-I 0 W/m 6,3 C 8,3 C 1,6 km/h (1 Bft) 100,00 %
12.11.2015 17:19 8,3 C 87 % 1028,3 hPa 0,0 l/m 0,0 km/h (0 Bft) SO 130 0 min 0,000 mm 0,0 UV-I 0 W/m 6,3 C 8,3 C 0,0 km/h (0 Bft) 100,00 %
12.11.2015 17:20 8,2 C 87 % 1028,3 hPa 0,0 l/m 0,0 km/h (0 Bft) SO 130 0 min 0,000 mm 0,0 UV-I 0 W/m 6,2 C 8,2 C 0,0 km/h (0 Bft) 100,00 %
12.11.2015 17:21 8,2 C 87 % 1028,3 hPa 0,0 l/m 0,0 km/h (0 Bft) SO 130 0 min 0,000 mm 0,0 UV-I 0 W/m 6,2 C 8,2 C 0,0 km/h (0 Bft) 100,00 %
12.11.2015 17:22 8,2 C 87 % 1028,3 hPa 0,0 l/m 0,0 km/h (0 Bft) SO 130 0 min 0,000 mm 0,0 UV-I 0 W/m 6,2 C 8,2 C 0,0 km/h (0 Bft) 100,00 %
12.11.2015 17:23 8,1 C 87 % 1028,3 hPa 0,0 l/m 0,7 km/h (0 Bft) SO 130 0 min 0,000 mm 0,0 UV-I 0 W/m 6,1 C 8,1 C 1,6 km/h (1 Bft) 100,00 %
12.11.2015 17:24 8,1 C 87 % 1028,3 hPa 0,0 l/m 0,6 km/h (0 Bft) SO 130 0 min 0,000 mm 0,0 UV-I 0 W/m 6,1 C 8,1 C 1,6 km/h (1 Bft) 100,00 %
12.11.2015 17:25 7,9 C 87 % 1028,3 hPa 0,0 l/m 0,5 km/h (0 Bft) SO 130 0 min 0,000 mm 0,0 UV-I 0 W/m 5,9 C 7,9 C 1,6 km/h (1 Bft) 100,00 %
12.11.2015 17:26 7,9 C 87 % 1028,3 hPa 0,0 l/m 0,0 km/h (0 Bft) SO 130 0 min 0,000 mm 0,0 UV-I 0 W/m 5,9 C 7,9 C 0,0 km/h (0 Bft) 95,83 %
12.11.2015 17:27 7,8 C 88 % 1028,3 hPa 0,0 l/m 0,3 km/h (0 Bft) SO 130 0 min 0,000 mm 0,0 UV-I 0 W/m 5,9 C 7,8 C 1,6 km/h (1 Bft) 100,00 %
12.11.2015 17:28 7,7 C 89 % 1028,2 hPa 0,0 l/m 1,1 km/h (1 Bft) SO 130 0 min 0,000 mm 0,0 UV-I 0 W/m 6,0 C 7,7 C 1,6 km/h (1 Bft) 100,00 %
12.11.2015 17:29 7,7 C 89 % 1028,3 hPa 0,0 l/m 0,9 km/h (0 Bft) SO 130 0 min 0,000 mm 0,0 UV-I 0 W/m 6,0 C 7,7 C 1,6 km/h (1 Bft) 95,65 %
12.11.2015 17:30 7,6 C 89 % 1028,3 hPa 0,0 l/m 0,8 km/h (0 Bft) SO 130 0 min 0,000 mm 0,0 UV-I 0 W/m 5,9 C 7,6 C 1,6 km/h (1 Bft) 95,83 %
12.11.2015 17:31 7,6 C 89 % 1028,3 hPa 0,0 l/m 0,1 km/h (0 Bft) SO 130 0 min 0,000 mm 0,0 UV-I 0 W/m 5,9 C 7,6 C 1,6 km/h (1 Bft) 96,15 %
12.11.2015 17:32 7,5 C 89 % 1028,3 hPa 0,0 l/m 0,0 km/h (0 Bft) SO 130 0 min 0,000 mm 0,0 UV-I 0 W/m 5,8 C 7,5 C 0,0 km/h (0 Bft) 95,83 %
12.11.2015 17:33 7,4 C 90 % 1028,3 hPa 0,0 l/m 0,0 km/h (0 Bft) SO 130 0 min 0,000 mm 0,0 UV-I 0 W/m 5,9 C 7,4 C 0,0 km/h (0 Bft) 95,65 %
12.11.2015 17:34 7,4 C 90 % 1028,2 hPa 0,0 l/m 0,0 km/h (0 Bft) SO 130 0 min 0,000 mm 0,0 UV-I 0 W/m 5,9 C 7,4 C 0,0 km/h (0 Bft) 100,00 %
12.11.2015 17:35 7,4 C 90 % 1028,2 hPa 0,0 l/m 0,5 km/h (0 Bft) SO 130 0 min 0,000 mm 0,0 UV-I 0 W/m 5,9 C 7,4 C 1,6 km/h (1 Bft) 95,65 %
12.11.2015 17:36 7,4 C 90 % 1028,2 hPa 0,0 l/m 0,0 km/h (0 Bft) SO 130 0 min 0,000 mm 0,0 UV-I 0 W/m 5,9 C 7,4 C 0,0 km/h (0 Bft) 95,83 %
12.11.2015 17:37 7,4 C 90 % 1028,2 hPa 0,0 l/m 0,1 km/h (0 Bft) SO 130 0 min 0,000 mm 0,0 UV-I 0 W/m 5,9 C 7,4 C 1,6 km/h (1 Bft) 100,00 %
12.11.2015 17:38 7,4 C 89 % 1028,2 hPa 0,0 l/m 0,5 km/h (0 Bft) SO 130 0 min 0,000 mm 0,0 UV-I 0 W/m 5,7 C 7,4 C 1,6 km/h (1 Bft) 100,00 %
12.11.2015 17:39 7,4 C 89 % 1028,3 hPa 0,0 l/m 0,7 km/h (0 Bft) SO 130 0 min 0,000 mm 0,0 UV-I 0 W/m 5,7 C 7,4 C 1,6 km/h (1 Bft) 100,00 %
12.11.2015 17:40 7,4 C 90 % 1028,3 hPa 0,0 l/m 0,5 km/h (0 Bft) SO 130 0 min 0,000 mm 0,0 UV-I 0 W/m 5,9 C 7,4 C 1,6 km/h (1 Bft) 100,00 %
12.11.2015 17:41 7,3 C 89 % 1028,2 hPa 0,0 l/m 1,2 km/h (1 Bft) SO 130 0 min 0,000 mm 0,0 UV-I 0 W/m 5,6 C 7,3 C 1,6 km/h (1 Bft) 91,30 %
12.11.2015 17:42 7,3 C 90 % 1028,3 hPa 0,0 l/m 0,5 km/h (0 Bft) SO 130 0 min 0,000 mm 0,0 UV-I 0 W/m 5,8 C 7,3 C 1,6 km/h (1 Bft) 100,00 %
12.11.2015 17:43 7,3 C 90 % 1028,2 hPa 0,0 l/m 0,3 km/h (0 Bft) SO 130 0 min 0,000 mm 0,0 UV-I 0 W/m 5,8 C 7,3 C 1,6 km/h (1 Bft) 100,00 %
12.11.2015 17:44 7,3 C 90 % 1028,2 hPa 0,0 l/m 1,3 km/h (1 Bft) SO 130 0 min 0,000 mm 0,0 UV-I 0 W/m 5,8 C 7,3 C 3,2 km/h (1 Bft) 96,43 %
12.11.2015 17:45 7,3 C 90 % 1028,2 hPa 0,0 l/m 1,6 km/h (1 Bft) SO 130 0 min 0,000 mm 0,0 UV-I 0 W/m 5,8 C 7,3 C 3,2 km/h (1 Bft) 100,00 %
12.11.2015 17:46 7,4 C 90 % 1028,2 hPa 0,0 l/m 0,9 km/h (0 Bft) SO 130 0 min 0,000 mm 0,0 UV-I 0 W/m 5,9 C 7,4 C 1,6 km/h (1 Bft) 100,00 %
12.11.2015 17:47 7,4 C 90 % 1028,2 hPa 0,0 l/m 1,9 km/h (1 Bft) SO 130 0 min 0,000 mm 0,0 UV-I 0 W/m 5,9 C 7,4 C 3,2 km/h (1 Bft) 100,00 %
12.11.2015 17:48 7,5 C 90 % 1028,2 hPa 0,0 l/m 1,7 km/h (1 Bft) SO 130 0 min 0,000 mm 0,0 UV-I 0 W/m 6,0 C 7,5 C 3,2 km/h (1 Bft) 100,00 %
12.11.2015 17:49 7,6 C 90 % 1028,2 hPa 0,0 l/m 1,3 km/h (1 Bft) SO 130 0 min 0,000 mm 0,0 UV-I 0 W/m 6,1 C 7,6 C 1,6 km/h (1 Bft) 100,00 %
12.11.2015 17:50 7,6 C 90 % 1028,2 hPa 0,0 l/m 1,4 km/h (1 Bft) SO 130 0 min 0,000 mm 0,0 UV-I 0 W/m 6,1 C 7,6 C 1,6 km/h (1 Bft) 100,00 %
12.11.2015 17:51 7,6 C 89 % 1028,2 hPa 0,0 l/m 1,2 km/h (1 Bft) SO 130 0 min 0,000 mm 0,0 UV-I 0 W/m 5,9 C 7,6 C 1,6 km/h (1 Bft) 100,00 %
12.11.2015 17:52 7,6 C 89 % 1028,2 hPa 0,0 l/m 1,1 km/h (1 Bft) SO 130 0 min 0,000 mm 0,0 UV-I 0 W/m 5,9 C 7,6 C 1,6 km/h (1 Bft) 100,00 %
12.11.2015 17:53 7,6 C 89 % 1028,2 hPa 0,0 l/m 0,6 km/h (0 Bft) SO 130 0 min 0,000 mm 0,0 UV-I 0 W/m 5,9 C 7,6 C 1,6 km/h (1 Bft) 100,00 %
12.11.2015 17:54 7,6 C 89 % 1028,2 hPa 0,0 l/m 0,8 km/h (0 Bft) SO 130 0 min 0,000 mm 0,0 UV-I 0 W/m 5,9 C 7,6 C 1,6 km/h (1 Bft) 100,00 %
12.11.2015 17:55 7,6 C 89 % 1028,2 hPa 0,0 l/m 0,2 km/h (0 Bft) SO 130 0 min 0,000 mm 0,0 UV-I 0 W/m 5,9 C 7,6 C 1,6 km/h (1 Bft) 100,00 %
12.11.2015 17:56 7,6 C 89 % 1028,2 hPa 0,0 l/m 0,0 km/h (0 Bft) SO 130 0 min 0,000 mm 0,0 UV-I 0 W/m 5,9 C 7,6 C 0,0 km/h (0 Bft) 100,00 %
12.11.2015 17:57 7,6 C 89 % 1028,2 hPa 0,0 l/m 0,0 km/h (0 Bft) SO 130 0 min 0,000 mm 0,0 UV-I 0 W/m 5,9 C 7,6 C 0,0 km/h (0 Bft) 100,00 %
12.11.2015 17:58 7,6 C 89 % 1028,2 hPa 0,0 l/m 0,0 km/h (0 Bft) SO 130 0 min 0,000 mm 0,0 UV-I 0 W/m 5,9 C 7,6 C 0,0 km/h (0 Bft) 100,00 %
12.11.2015 17:59 7,6 C 89 % 1028,2 hPa 0,0 l/m 0,0 km/h (0 Bft) SO 130 0 min 0,000 mm 0,0 UV-I 0 W/m 5,9 C 7,6 C 0,0 km/h (0 Bft) 100,00 %
12.11.2015 18:00 7,6 C 89 % 1028,2 hPa 0,0 l/m 0,0 km/h (0 Bft) SO 130 0 min 0,000 mm 0,0 UV-I 0 W/m 5,9 C 7,6 C 0,0 km/h (0 Bft) 100,00 %
12.11.2015 18:01 7,5 C 89 % 1028,2 hPa 0,0 l/m 0,0 km/h (0 Bft) SO 130 0 min 0,000 mm 0,0 UV-I 0 W/m 5,8 C 7,5 C 0,0 km/h (0 Bft) 100,00 %
12.11.2015 18:02 7,4 C 89 % 1028,2 hPa 0,0 l/m 0,0 km/h (0 Bft) SO 130 0 min 0,000 mm 0,0 UV-I 0 W/m 5,7 C 7,4 C 0,0 km/h (0 Bft) 100,00 %
12.11.2015 18:03 7,4 C 89 % 1028,2 hPa 0,0 l/m 0,0 km/h (0 Bft) SO 130 0 min 0,000 mm 0,0 UV-I 0 W/m 5,7 C 7,4 C 0,0 km/h (0 Bft) 100,00 %
12.11.2015 18:04 7,3 C 89 % 1028,2 hPa 0,0 l/m 0,0 km/h (0 Bft) SO 130 0 min 0,000 mm 0,0 UV-I 0 W/m 5,6 C 7,3 C 0,0 km/h (0 Bft) 100,00 %
12.11.2015 18:05 7,3 C 90 % 1028,2 hPa 0,0 l/m 0,0 km/h (0 Bft) SO 130 0 min 0,000 mm 0,0 UV-I 0 W/m 5,8 C 7,3 C 0,0 km/h (0 Bft) 100,00 %
12.11.2015 18:06 7,2 C 90 % 1028,2 hPa 0,0 l/m 0,0 km/h (0 Bft) SO 130 0 min 0,000 mm 0,0 UV-I 0 W/m 5,7 C 7,2 C 0,0 km/h (0 Bft) 95,65 %
12.11.2015 18:07 7,2 C 90 % 1028,2 hPa 0,0 l/m 0,0 km/h (0 Bft) SO 130 0 min 0,000 mm 0,0 UV-I 0 W/m 5,7 C 7,2 C 0,0 km/h (0 Bft) 100,00 %
12.11.2015 18:08 7,1 C 90 % 1028,2 hPa 0,0 l/m 0,0 km/h (0 Bft) SO 130 0 min 0,000 mm 0,0 UV-I 0 W/m 5,6 C 7,1 C 0,0 km/h (0 Bft) 100,00 %
12.11.2015 18:09 7,1 C 90 % 1028,2 hPa 0,0 l/m 0,0 km/h (0 Bft) SO 130 0 min 0,000 mm 0,0 UV-I 0 W/m 5,6 C 7,1 C 0,0 km/h (0 Bft) 100,00 %
12.11.2015 18:10 7,1 C 90 % 1028,2 hPa 0,0 l/m 0,0 km/h (0 Bft) SO 130 0 min 0,000 mm 0,0 UV-I 0 W/m 5,6 C 7,1 C 0,0 km/h (0 Bft) 100,00 %
12.11.2015 18:11 7,0 C 90 % 1028,2 hPa 0,0 l/m 0,0 km/h (0 Bft) SO 130 0 min 0,000 mm 0,0 UV-I 0 W/m 5,5 C 7,0 C 0,0 km/h (0 Bft) 100,00 %
12.11.2015 18:12 6,9 C 90 % 1028,2 hPa 0,0 l/m 0,0 km/h (0 Bft) SO 130 0 min 0,000 mm 0,0 UV-I 0 W/m 5,4 C 6,9 C 0,0 km/h (0 Bft) 100,00 %
12.11.2015 18:13 6,8 C 90 % 1028,2 hPa 0,0 l/m 0,0 km/h (0 Bft) SO 130 0 min 0,000 mm 0,0 UV-I 0 W/m 5,3 C 6,8 C 0,0 km/h (0 Bft) 95,65 %
12.11.2015 18:14 6,8 C 90 % 1028,2 hPa 0,0 l/m 0,0 km/h (0 Bft) SO 130 0 min 0,000 mm 0,0 UV-I 0 W/m 5,3 C 6,8 C 0,0 km/h (0 Bft) 100,00 %
12.11.2015 18:15 6,7 C 90 % 1028,2 hPa 0,0 l/m 0,0 km/h (0 Bft) SO 130 0 min 0,000 mm 0,0 UV-I 0 W/m 5,2 C 6,7 C 0,0 km/h (0 Bft) 100,00 %
12.11.2015 18:16 6,7 C 91 % 1028,3 hPa 0,0 l/m 0,0 km/h (0 Bft) SO 130 0 min 0,000 mm 0,0 UV-I 0 W/m 5,3 C 6,7 C 0,0 km/h (0 Bft) 100,00 %
12.11.2015 18:17 6,6 C 91 % 1028,3 hPa 0,0 l/m 0,0 km/h (0 Bft) SO 130 0 min 0,000 mm 0,0 UV-I 0 W/m 5,2 C 6,6 C 0,0 km/h (0 Bft) 100,00 %
12.11.2015 18:18 6,6 C 91 % 1028,3 hPa 0,0 l/m 0,1 km/h (0 Bft) SO 130 0 min 0,000 mm 0,0 UV-I 0 W/m 5,2 C 6,6 C 1,6 km/h (1 Bft) 100,00 %
12.11.2015 18:19 6,6 C 92 % 1028,3 hPa 0,0 l/m 0,0 km/h (0 Bft) SO 130 0 min 0,000 mm 0,0 UV-I 0 W/m 5,4 C 6,6 C 0,0 km/h (0 Bft) 100,00 %
12.11.2015 18:20 6,6 C 92 % 1028,3 hPa 0,0 l/m 0,0 km/h (0 Bft) SO 130 0 min 0,000 mm 0,0 UV-I 0 W/m 5,4 C 6,6 C 0,0 km/h (0 Bft) 100,00 %
12.11.2015 18:21 6,7 C 92 % 1028,2 hPa 0,0 l/m 0,0 km/h (0 Bft) SO 130 0 min 0,000 mm 0,0 UV-I 0 W/m 5,5 C 6,7 C 0,0 km/h (0 Bft) 100,00 %
12.11.2015 18:22 6,7 C 92 % 1028,3 hPa 0,0 l/m 0,0 km/h (0 Bft) SO 130 0 min 0,000 mm 0,0 UV-I 0 W/m 5,5 C 6,7 C 0,0 km/h (0 Bft) 100,00 %
12.11.2015 18:23 6,7 C 93 % 1028,2 hPa 0,0 l/m 0,0 km/h (0 Bft) SO 130 0 min 0,000 mm 0,0 UV-I 0 W/m 5,6 C 6,7 C 0,0 km/h (0 Bft) 100,00 %
12.11.2015 18:24 6,8 C 92 % 1028,3 hPa 0,0 l/m 0,0 km/h (0 Bft) SO 130 0 min 0,000 mm 0,0 UV-I 0 W/m 5,6 C 6,8 C 0,0 km/h (0 Bft) 100,00 %
12.11.2015 18:25 6,8 C 93 % 1028,3 hPa 0,0 l/m 0,0 km/h (0 Bft) SO 130 0 min 0,000 mm 0,0 UV-I 0 W/m 5,7 C 6,8 C 0,0 km/h (0 Bft) 100,00 %
12.11.2015 18:26 6,9 C 92 % 1028,3 hPa 0,0 l/m 0,0 km/h (0 Bft) SO 130 0 min 0,000 mm 0,0 UV-I 0 W/m 5,7 C 6,9 C 0,0 km/h (0 Bft) 100,00 %
12.11.2015 18:27 7,0 C 92 % 1028,3 hPa 0,0 l/m 0,0 km/h (0 Bft) SO 130 0 min 0,000 mm 0,0 UV-I 0 W/m 5,8 C 7,0 C 0,0 km/h (0 Bft) 100,00 %
12.11.2015 18:28 7,0 C 92 % 1028,3 hPa 0,0 l/m 0,0 km/h (0 Bft) SO 130 0 min 0,000 mm 0,0 UV-I 0 W/m 5,8 C 7,0 C 0,0 km/h (0 Bft) 100,00 %
12.11.2015 18:29 7,0 C 91 % 1028,3 hPa 0,0 l/m 0,0 km/h (0 Bft) SO 130 0 min 0,000 mm 0,0 UV-I 0 W/m 5,6 C 7,0 C 0,0 km/h (0 Bft) 100,00 %
12.11.2015 18:30 6,9 C 91 % 1028,3 hPa 0,0 l/m 0,0 km/h (0 Bft) SO 130 0 min 0,000 mm 0,0 UV-I 0 W/m 5,5 C 6,9 C 0,0 km/h (0 Bft) 100,00 %
12.11.2015 18:31 6,9 C 91 % 1028,3 hPa 0,0 l/m 0,0 km/h (0 Bft) SO 130 0 min 0,000 mm 0,0 UV-I 0 W/m 5,5 C 6,9 C 0,0 km/h (0 Bft) 100,00 %
12.11.2015 18:32 6,9 C 91 % 1028,3 hPa 0,0 l/m 0,0 km/h (0 Bft) SO 130 0 min 0,000 mm 0,0 UV-I 0 W/m 5,5 C 6,9 C 0,0 km/h (0 Bft) 100,00 %
12.11.2015 18:33 6,8 C 91 % 1028,3 hPa 0,0 l/m 0,1 km/h (0 Bft) SO 130 0 min 0,000 mm 0,0 UV-I 0 W/m 5,4 C 6,8 C 1,6 km/h (1 Bft) 100,00 %
12.11.2015 18:34 6,8 C 91 % 1028,3 hPa 0,0 l/m 1,4 km/h (1 Bft) SO 130 0 min 0,000 mm 0,0 UV-I 0 W/m 5,4 C 6,8 C 1,6 km/h (1 Bft) 95,65 %
12.11.2015 18:35 6,7 C 91 % 1028,3 hPa 0,0 l/m 0,9 km/h (0 Bft) SO 130 0 min 0,000 mm 0,0 UV-I 0 W/m 5,3 C 6,7 C 1,6 km/h (1 Bft) 100,00 %
12.11.2015 18:36 6,7 C 91 % 1028,3 hPa 0,0 l/m 1,0 km/h (0 Bft) SO 130 0 min 0,000 mm 0,0 UV-I 0 W/m 5,3 C 6,7 C 1,6 km/h (1 Bft) 100,00 %
12.11.2015 18:37 6,6 C 92 % 1028,3 hPa 0,0 l/m 0,5 km/h (0 Bft) SO 130 0 min 0,000 mm 0,0 UV-I 0 W/m 5,4 C 6,6 C 1,6 km/h (1 Bft) 100,00 %
12.11.2015 18:38 6,6 C 92 % 1028,2 hPa 0,0 l/m 0,2 km/h (0 Bft) SO 130 0 min 0,000 mm 0,0 UV-I 0 W/m 5,4 C 6,6 C 1,6 km/h (1 Bft) 100,00 %
12.11.2015 18:39 6,5 C 92 % 1028,3 hPa 0,0 l/m 0,0 km/h (0 Bft) SO 130 0 min 0,000 mm 0,0 UV-I 0 W/m 5,3 C 6,5 C 0,0 km/h (0 Bft) 100,00 %
12.11.2015 18:40 6,4 C 92 % 1028,2 hPa 0,0 l/m 0,0 km/h (0 Bft) SO 130 0 min 0,000 mm 0,0 UV-I 0 W/m 5,2 C 6,4 C 0,0 km/h (0 Bft) 96,15 %
12.11.2015 18:41 6,4 C 92 % 1028,3 hPa 0,0 l/m 0,0 km/h (0 Bft) SO 130 0 min 0,000 mm 0,0 UV-I 0 W/m 5,2 C 6,4 C 0,0 km/h (0 Bft) 100,00 %
12.11.2015 18:42 6,4 C 93 % 1028,3 hPa 0,0 l/m 0,0 km/h (0 Bft) SO 130 0 min 0,000 mm 0,0 UV-I 0 W/m 5,4 C 6,4 C 0,0 km/h (0 Bft) 100,00 %
12.11.2015 18:43 6,5 C 93 % 1028,3 hPa 0,0 l/m 0,0 km/h (0 Bft) SO 130 0 min 0,000 mm 0,0 UV-I 0 W/m 5,5 C 6,5 C 0,0 km/h (0 Bft) 100,00 %
12.11.2015 18:44 6,6 C 93 % 1028,3 hPa 0,0 l/m 0,0 km/h (0 Bft) SO 130 0 min 0,000 mm 0,0 UV-I 0 W/m 5,6 C 6,6 C 0,0 km/h (0 Bft) 100,00 %
12.11.2015 18:45 6,6 C 93 % 1028,2 hPa 0,0 l/m 0,0 km/h (0 Bft) SO 130 0 min 0,000 mm 0,0 UV-I 0 W/m 5,6 C 6,6 C 0,0 km/h (0 Bft) 100,00 %
12.11.2015 18:46 6,6 C 92 % 1028,2 hPa 0,0 l/m 0,0 km/h (0 Bft) SO 130 0 min 0,000 mm 0,0 UV-I 0 W/m 5,4 C 6,6 C 0,0 km/h (0 Bft) 100,00 %
12.11.2015 18:47 6,6 C 92 % 1028,2 hPa 0,0 l/m 0,0 km/h (0 Bft) SO 130 0 min 0,000 mm 0,0 UV-I 0 W/m 5,4 C 6,6 C 0,0 km/h (0 Bft) 95,65 %
12.11.2015 18:48 6,6 C 92 % 1028,2 hPa 0,0 l/m 0,0 km/h (0 Bft) SO 130 0 min 0,000 mm 0,0 UV-I 0 W/m 5,4 C 6,6 C 0,0 km/h (0 Bft) 95,83 %
12.11.2015 18:49 6,6 C 92 % 1028,3 hPa 0,0 l/m 0,0 km/h (0 Bft) SO 130 0 min 0,000 mm 0,0 UV-I 0 W/m 5,4 C 6,6 C 0,0 km/h (0 Bft) 100,00 %
12.11.2015 18:50 6,5 C 92 % 1028,3 hPa 0,0 l/m 0,0 km/h (0 Bft) SO 130 0 min 0,000 mm 0,0 UV-I 0 W/m 5,3 C 6,5 C 0,0 km/h (0 Bft) 100,00 %
12.11.2015 18:51 6,5 C 92 % 1028,3 hPa 0,0 l/m 0,0 km/h (0 Bft) SO 130 0 min 0,000 mm 0,0 UV-I 0 W/m 5,3 C 6,5 C 0,0 km/h (0 Bft) 100,00 %
12.11.2015 18:52 6,5 C 93 % 1028,3 hPa 0,0 l/m 0,0 km/h (0 Bft) SO 130 0 min 0,000 mm 0,0 UV-I 0 W/m 5,5 C 6,5 C 0,0 km/h (0 Bft) 95,83 %
12.11.2015 18:53 6,5 C 92 % 1028,3 hPa 0,0 l/m 0,0 km/h (0 Bft) SO 130 0 min 0,000 mm 0,0 UV-I 0 W/m 5,3 C 6,5 C 0,0 km/h (0 Bft) 100,00 %
12.11.2015 18:54 6,4 C 92 % 1028,3 hPa 0,0 l/m 0,0 km/h (0 Bft) SO 130 0 min 0,000 mm 0,0 UV-I 0 W/m 5,2 C 6,4 C 0,0 km/h (0 Bft) 100,00 %
12.11.2015 18:55 6,4 C 92 % 1028,3 hPa 0,0 l/m 0,0 km/h (0 Bft) SO 130 0 min 0,000 mm 0,0 UV-I 0 W/m 5,2 C 6,4 C 0,0 km/h (0 Bft) 100,00 %
12.11.2015 18:56 6,4 C 92 % 1028,3 hPa 0,0 l/m 0,0 km/h (0 Bft) SO 130 0 min 0,000 mm 0,0 UV-I 0 W/m 5,2 C 6,4 C 0,0 km/h (0 Bft) 100,00 %
12.11.2015 18:57 6,3 C 92 % 1028,3 hPa 0,0 l/m 0,0 km/h (0 Bft) SO 130 0 min 0,000 mm 0,0 UV-I 0 W/m 5,1 C 6,3 C 0,0 km/h (0 Bft) 100,00 %
12.11.2015 18:58 6,3 C 92 % 1028,3 hPa 0,0 l/m 0,0 km/h (0 Bft) SO 130 0 min 0,000 mm 0,0 UV-I 0 W/m 5,1 C 6,3 C 0,0 km/h (0 Bft) 100,00 %
12.11.2015 18:59 6,2 C 92 % 1028,3 hPa 0,0 l/m 0,0 km/h (0 Bft) SO 130 0 min 0,000 mm 0,0 UV-I 0 W/m 5,0 C 6,2 C 0,0 km/h (0 Bft) 100,00 %
12.11.2015 19:00 6,2 C 92 % 1028,3 hPa 0,0 l/m 0,0 km/h (0 Bft) SO 130 0 min 0,000 mm 0,0 UV-I 0 W/m 5,0 C 6,2 C 0,0 km/h (0 Bft) 95,83 %
12.11.2015 19:01 6,2 C 92 % 1028,3 hPa 0,0 l/m 0,0 km/h (0 Bft) SO 130 0 min 0,000 mm 0,0 UV-I 0 W/m 5,0 C 6,2 C 0,0 km/h (0 Bft) 100,00 %
12.11.2015 19:02 6,2 C 93 % 1028,4 hPa 0,0 l/m 0,0 km/h (0 Bft) SO 130 0 min 0,000 mm 0,0 UV-I 0 W/m 5,2 C 6,2 C 0,0 km/h (0 Bft) 100,00 %
12.11.2015 19:03 6,2 C 93 % 1028,3 hPa 0,0 l/m 0,0 km/h (0 Bft) SO 130 0 min 0,000 mm 0,0 UV-I 0 W/m 5,2 C 6,2 C 0,0 km/h (0 Bft) 100,00 %
12.11.2015 19:04 6,2 C 93 % 1028,4 hPa 0,0 l/m 0,0 km/h (0 Bft) SO 130 0 min 0,000 mm 0,0 UV-I 0 W/m 5,2 C 6,2 C 0,0 km/h (0 Bft) 95,65 %
12.11.2015 19:05 6,2 C 93 % 1028,4 hPa 0,0 l/m 0,0 km/h (0 Bft) SO 130 0 min 0,000 mm 0,0 UV-I 0 W/m 5,2 C 6,2 C 0,0 km/h (0 Bft) 100,00 %
12.11.2015 19:06 6,2 C 93 % 1028,4 hPa 0,0 l/m 0,0 km/h (0 Bft) SO 130 0 min 0,000 mm 0,0 UV-I 0 W/m 5,2 C 6,2 C 0,0 km/h (0 Bft) 95,65 %
12.11.2015 19:07 6,2 C 93 % 1028,4 hPa 0,0 l/m 0,0 km/h (0 Bft) SO 130 0 min 0,000 mm 0,0 UV-I 0 W/m 5,2 C 6,2 C 0,0 km/h (0 Bft) 100,00 %
12.11.2015 19:08 6,2 C 93 % 1028,4 hPa 0,0 l/m 0,0 km/h (0 Bft) SO 130 0 min 0,000 mm 0,0 UV-I 0 W/m 5,2 C 6,2 C 0,0 km/h (0 Bft) 100,00 %
12.11.2015 19:09 6,2 C 93 % 1028,4 hPa 0,0 l/m 0,0 km/h (0 Bft) SO 130 0 min 0,000 mm 0,0 UV-I 0 W/m 5,2 C 6,2 C 0,0 km/h (0 Bft) 100,00 %
12.11.2015 19:10 6,2 C 92 % 1028,4 hPa 0,0 l/m 0,0 km/h (0 Bft) SO 130 0 min 0,000 mm 0,0 UV-I 0 W/m 5,0 C 6,2 C 0,0 km/h (0 Bft) 100,00 %
12.11.2015 19:11 6,2 C 93 % 1028,4 hPa 0,0 l/m 0,0 km/h (0 Bft) SO 130 0 min 0,000 mm 0,0 UV-I 0 W/m 5,2 C 6,2 C 0,0 km/h (0 Bft) 95,83 %
12.11.2015 19:12 6,2 C 92 % 1028,4 hPa 0,0 l/m 0,0 km/h (0 Bft) SO 130 0 min 0,000 mm 0,0 UV-I 0 W/m 5,0 C 6,2 C 0,0 km/h (0 Bft) 100,00 %
12.11.2015 19:13 6,1 C 93 % 1028,4 hPa 0,0 l/m 0,0 km/h (0 Bft) SO 130 0 min 0,000 mm 0,0 UV-I 0 W/m 5,1 C 6,1 C 0,0 km/h (0 Bft) 100,00 %
12.11.2015 19:14 6,1 C 93 % 1028,4 hPa 0,0 l/m 0,2 km/h (0 Bft) SO 130 0 min 0,000 mm 0,0 UV-I 0 W/m 5,1 C 6,1 C 1,6 km/h (1 Bft) 100,00 %
12.11.2015 19:15 6,1 C 92 % 1028,4 hPa 0,0 l/m 0,3 km/h (0 Bft) SO 130 0 min 0,000 mm 0,0 UV-I 0 W/m 4,9 C 6,1 C 1,6 km/h (1 Bft) 100,00 %
12.11.2015 19:16 6,0 C 93 % 1028,4 hPa 0,0 l/m 0,0 km/h (0 Bft) SO 130 0 min 0,000 mm 0,0 UV-I 0 W/m 5,0 C 6,0 C 0,0 km/h (0 Bft) 100,00 %
12.11.2015 19:17 6,0 C 93 % 1028,4 hPa 0,0 l/m 0,0 km/h (0 Bft) SO 130 0 min 0,000 mm 0,0 UV-I 0 W/m 5,0 C 6,0 C 0,0 km/h (0 Bft) 100,00 %
12.11.2015 19:18 6,0 C 93 % 1028,4 hPa 0,0 l/m 0,0 km/h (0 Bft) SO 130 0 min 0,000 mm 0,0 UV-I 0 W/m 5,0 C 6,0 C 0,0 km/h (0 Bft) 100,00 %
12.11.2015 19:19 6,0 C 93 % 1028,4 hPa 0,0 l/m 0,0 km/h (0 Bft) SO 130 0 min 0,000 mm 0,0 UV-I 0 W/m 5,0 C 6,0 C 0,0 km/h (0 Bft) 100,00 %
12.11.2015 19:20 6,0 C 93 % 1028,4 hPa 0,0 l/m 0,0 km/h (0 Bft) SO 130 0 min 0,000 mm 0,0 UV-I 0 W/m 5,0 C 6,0 C 0,0 km/h (0 Bft) 100,00 %
12.11.2015 19:21 6,1 C 93 % 1028,4 hPa 0,0 l/m 0,0 km/h (0 Bft) SO 130 0 min 0,000 mm 0,0 UV-I 0 W/m 5,1 C 6,1 C 0,0 km/h (0 Bft) 100,00 %
12.11.2015 19:22 6,1 C 94 % 1028,4 hPa 0,0 l/m 0,0 km/h (0 Bft) SO 130 0 min 0,000 mm 0,0 UV-I 0 W/m 5,2 C 6,1 C 0,0 km/h (0 Bft) 100,00 %
12.11.2015 19:23 6,1 C 94 % 1028,3 hPa 0,0 l/m 0,0 km/h (0 Bft) SO 130 0 min 0,000 mm 0,0 UV-I 0 W/m 5,2 C 6,1 C 0,0 km/h (0 Bft) 100,00 %
12.11.2015 19:24 6,1 C 93 % 1028,3 hPa 0,0 l/m 0,0 km/h (0 Bft) SO 130 0 min 0,000 mm 0,0 UV-I 0 W/m 5,1 C 6,1 C 0,0 km/h (0 Bft) 100,00 %
12.11.2015 19:25 6,1 C 94 % 1028,3 hPa 0,0 l/m 0,0 km/h (0 Bft) SO 130 0 min 0,000 mm 0,0 UV-I 0 W/m 5,2 C 6,1 C 0,0 km/h (0 Bft) 100,00 %
12.11.2015 19:26 6,2 C 93 % 1028,3 hPa 0,0 l/m 0,0 km/h (0 Bft) SO 130 0 min 0,000 mm 0,0 UV-I 0 W/m 5,2 C 6,2 C 0,0 km/h (0 Bft) 100,00 %
12.11.2015 19:27 6,2 C 93 % 1028,4 hPa 0,0 l/m 0,0 km/h (0 Bft) SO 130 0 min 0,000 mm 0,0 UV-I 0 W/m 5,2 C 6,2 C 0,0 km/h (0 Bft) 100,00 %
12.11.2015 19:28 6,2 C 93 % 1028,4 hPa 0,0 l/m 0,0 km/h (0 Bft) SO 130 0 min 0,000 mm 0,0 UV-I 0 W/m 5,2 C 6,2 C 0,0 km/h (0 Bft) 100,00 %
12.11.2015 19:29 6,1 C 93 % 1028,3 hPa 0,0 l/m 0,0 km/h (0 Bft) SO 130 0 min 0,000 mm 0,0 UV-I 0 W/m 5,1 C 6,1 C 0,0 km/h (0 Bft) 100,00 %
12.11.2015 19:30 6,1 C 93 % 1028,3 hPa 0,0 l/m 0,1 km/h (0 Bft) SO 130 0 min 0,000 mm 0,0 UV-I 0 W/m 5,1 C 6,1 C 1,6 km/h (1 Bft) 100,00 %
12.11.2015 19:31 6,1 C 93 % 1028,3 hPa 0,0 l/m 0,0 km/h (0 Bft) SO 130 0 min 0,000 mm 0,0 UV-I 0 W/m 5,1 C 6,1 C 0,0 km/h (0 Bft) 100,00 %
12.11.2015 19:32 6,0 C 93 % 1028,3 hPa 0,0 l/m 0,1 km/h (0 Bft) SO 130 0 min 0,000 mm 0,0 UV-I 0 W/m 5,0 C 6,0 C 1,6 km/h (1 Bft) 100,00 %
12.11.2015 19:33 5,9 C 93 % 1028,3 hPa 0,0 l/m 0,0 km/h (0 Bft) SO 130 0 min 0,000 mm 0,0 UV-I 0 W/m 4,9 C 5,9 C 0,0 km/h (0 Bft) 95,65 %
12.11.2015 19:34 5,9 C 94 % 1028,3 hPa 0,0 l/m 0,0 km/h (0 Bft) SO 130 0 min 0,000 mm 0,0 UV-I 0 W/m 5,0 C 5,9 C 0,0 km/h (0 Bft) 100,00 %
12.11.2015 19:35 5,9 C 94 % 1028,3 hPa 0,0 l/m 0,0 km/h (0 Bft) SO 130 0 min 0,000 mm 0,0 UV-I 0 W/m 5,0 C 5,9 C 0,0 km/h (0 Bft) 100,00 %
12.11.2015 19:36 5,9 C 94 % 1028,3 hPa 0,0 l/m 0,0 km/h (0 Bft) SO 130 0 min 0,000 mm 0,0 UV-I 0 W/m 5,0 C 5,9 C 0,0 km/h (0 Bft) 100,00 %
12.11.2015 19:37 5,9 C 94 % 1028,3 hPa 0,0 l/m 0,0 km/h (0 Bft) SO 130 0 min 0,000 mm 0,0 UV-I 0 W/m 5,0 C 5,9 C 0,0 km/h (0 Bft) 100,00 %
12.11.2015 19:38 5,9 C 94 % 1028,2 hPa 0,0 l/m 0,0 km/h (0 Bft) SO 130 0 min 0,000 mm 0,0 UV-I 0 W/m 5,0 C 5,9 C 0,0 km/h (0 Bft) 100,00 %
12.11.2015 19:39 5,9 C 94 % 1028,2 hPa 0,0 l/m 0,0 km/h (0 Bft) SO 130 0 min 0,000 mm 0,0 UV-I 0 W/m 5,0 C 5,9 C 0,0 km/h (0 Bft) 100,00 %
12.11.2015 19:40 5,9 C 93 % 1028,2 hPa 0,0 l/m 0,3 km/h (0 Bft) O-SO 103 0 min 0,000 mm 0,0 UV-I 0 W/m 4,9 C 5,9 C 1,6 km/h (1 Bft) 100,00 %
12.11.2015 19:41 5,9 C 94 % 1028,2 hPa 0,0 l/m 0,1 km/h (0 Bft) O-SO 103 0 min 0,000 mm 0,0 UV-I 0 W/m 5,0 C 5,9 C 1,6 km/h (1 Bft) 100,00 %
12.11.2015 19:42 6,1 C 94 % 1028,2 hPa 0,0 l/m 0,1 km/h (0 Bft) O-SO 103 0 min 0,000 mm 0,0 UV-I 0 W/m 5,2 C 6,1 C 1,6 km/h (1 Bft) 100,00 %
12.11.2015 19:43 6,1 C 94 % 1028,2 hPa 0,0 l/m 0,0 km/h (0 Bft) O-SO 103 0 min 0,000 mm 0,0 UV-I 0 W/m 5,2 C 6,1 C 0,0 km/h (0 Bft) 100,00 %
12.11.2015 19:44 6,2 C 94 % 1028,2 hPa 0,0 l/m 0,0 km/h (0 Bft) O-SO 103 0 min 0,000 mm 0,0 UV-I 0 W/m 5,3 C 6,2 C 0,0 km/h (0 Bft) 100,00 %
12.11.2015 19:45 6,2 C 94 % 1028,1 hPa 0,0 l/m 0,0 km/h (0 Bft) O-SO 103 0 min 0,000 mm 0,0 UV-I 0 W/m 5,3 C 6,2 C 0,0 km/h (0 Bft) 95,83 %
12.11.2015 19:46 6,2 C 94 % 1028,1 hPa 0,0 l/m 0,0 km/h (0 Bft) O-SO 103 0 min 0,000 mm 0,0 UV-I 0 W/m 5,3 C 6,2 C 0,0 km/h (0 Bft) 100,00 %
12.11.2015 19:47 6,2 C 93 % 1028,1 hPa 0,0 l/m 0,0 km/h (0 Bft) O-SO 103 0 min 0,000 mm 0,0 UV-I 0 W/m 5,2 C 6,2 C 0,0 km/h (0 Bft) 100,00 %
12.11.2015 19:48 6,2 C 93 % 1028,1 hPa 0,0 l/m 0,0 km/h (0 Bft) O-SO 103 0 min 0,000 mm 0,0 UV-I 0 W/m 5,2 C 6,2 C 0,0 km/h (0 Bft) 95,65 %
12.11.2015 19:49 6,1 C 93 % 1028,1 hPa 0,0 l/m 0,0 km/h (0 Bft) O-SO 103 0 min 0,000 mm 0,0 UV-I 0 W/m 5,1 C 6,1 C 0,0 km/h (0 Bft) 100,00 %
12.11.2015 19:50 6,1 C 93 % 1028,0 hPa 0,0 l/m 0,3 km/h (0 Bft) O-SO 103 0 min 0,000 mm 0,0 UV-I 0 W/m 5,1 C 6,1 C 1,6 km/h (1 Bft) 100,00 %
12.11.2015 19:51 5,9 C 92 % 1028,0 hPa 0,0 l/m 0,1 km/h (0 Bft) O-SO 103 0 min 0,000 mm 0,0 UV-I 0 W/m 4,7 C 5,9 C 1,6 km/h (1 Bft) 100,00 %
12.11.2015 19:52 5,9 C 92 % 1028,0 hPa 0,0 l/m 0,1 km/h (0 Bft) O-SO 103 0 min 0,000 mm 0,0 UV-I 0 W/m 4,7 C 5,9 C 1,6 km/h (1 Bft) 100,00 %
12.11.2015 19:53 5,8 C 93 % 1028,1 hPa 0,0 l/m 0,1 km/h (0 Bft) O-SO 103 0 min 0,000 mm 0,0 UV-I 0 W/m 4,8 C 5,8 C 1,6 km/h (1 Bft) 100,00 %
12.11.2015 19:54 5,8 C 93 % 1028,0 hPa 0,0 l/m 0,0 km/h (0 Bft) O-SO 103 0 min 0,000 mm 0,0 UV-I 0 W/m 4,8 C 5,8 C 0,0 km/h (0 Bft) 100,00 %
12.11.2015 19:55 5,8 C 93 % 1028,0 hPa 0,0 l/m 0,0 km/h (0 Bft) O-SO 103 0 min 0,000 mm 0,0 UV-I 0 W/m 4,8 C 5,8 C 0,0 km/h (0 Bft) 100,00 %
12.11.2015 19:56 5,8 C 93 % 1028,1 hPa 0,0 l/m 0,0 km/h (0 Bft) O-SO 103 0 min 0,000 mm 0,0 UV-I 0 W/m 4,8 C 5,8 C 0,0 km/h (0 Bft) 96,15 %
12.11.2015 19:57 5,8 C 93 % 1028,0 hPa 0,0 l/m 0,0 km/h (0 Bft) O-SO 103 0 min 0,000 mm 0,0 UV-I 0 W/m 4,8 C 5,8 C 0,0 km/h (0 Bft) 100,00 %
12.11.2015 19:58 5,9 C 93 % 1028,0 hPa 0,0 l/m 0,8 km/h (0 Bft) O-SO 103 0 min 0,000 mm 0,0 UV-I 0 W/m 4,9 C 5,9 C 1,6 km/h (1 Bft) 100,00 %
12.11.2015 19:59 6,0 C 94 % 1028,0 hPa 0,0 l/m 0,1 km/h (0 Bft) O-SO 103 0 min 0,000 mm 0,0 UV-I 0 W/m 5,1 C 6,0 C 1,6 km/h (1 Bft) 100,00 %
12.11.2015 20:00 6,1 C 94 % 1028,0 hPa 0,0 l/m 0,3 km/h (0 Bft) O-SO 103 0 min 0,000 mm 0,0 UV-I 0 W/m 5,2 C 6,1 C 1,6 km/h (1 Bft) 100,00 %
12.11.2015 20:01 6,2 C 93 % 1028,0 hPa 0,0 l/m 0,5 km/h (0 Bft) O-SO 107 0 min 0,000 mm 0,0 UV-I 0 W/m 5,2 C 6,2 C 1,6 km/h (1 Bft) 100,00 %
12.11.2015 20:02 6,3 C 94 % 1028,0 hPa 0,0 l/m 0,1 km/h (0 Bft) O-SO 107 0 min 0,000 mm 0,0 UV-I 0 W/m 5,4 C 6,3 C 1,6 km/h (1 Bft) 95,65 %
12.11.2015 20:03 6,4 C 93 % 1028,0 hPa 0,0 l/m 0,9 km/h (0 Bft) O 92 0 min 0,000 mm 0,0 UV-I 0 W/m 5,4 C 6,4 C 1,6 km/h (1 Bft) 100,00 %
12.11.2015 20:04 6,4 C 93 % 1028,0 hPa 0,0 l/m 1,5 km/h (1 Bft) O 86 0 min 0,000 mm 0,0 UV-I 0 W/m 5,4 C 6,4 C 1,6 km/h (1 Bft) 96,15 %
12.11.2015 20:05 6,5 C 93 % 1028,1 hPa 0,0 l/m 0,6 km/h (0 Bft) O 86 0 min 0,000 mm 0,0 UV-I 0 W/m 5,5 C 6,5 C 1,6 km/h (1 Bft) 100,00 %
12.11.2015 20:06 6,6 C 93 % 1028,0 hPa 0,0 l/m 0,7 km/h (0 Bft) O 86 0 min 0,000 mm 0,0 UV-I 0 W/m 5,6 C 6,6 C 1,6 km/h (1 Bft) 100,00 %
12.11.2015 20:07 6,7 C 93 % 1028,0 hPa 0,0 l/m 0,8 km/h (0 Bft) O 86 0 min 0,000 mm 0,0 UV-I 0 W/m 5,6 C 6,7 C 1,6 km/h (1 Bft) 95,65 %
12.11.2015 20:08 6,7 C 93 % 1028,0 hPa 0,0 l/m 0,6 km/h (0 Bft) O 86 0 min 0,000 mm 0,0 UV-I 0 W/m 5,6 C 6,7 C 1,6 km/h (1 Bft) 100,00 %
12.11.2015 20:09 6,8 C 93 % 1028,0 hPa 0,0 l/m 1,0 km/h (0 Bft) O 86 0 min 0,000 mm 0,0 UV-I 0 W/m 5,7 C 6,8 C 3,2 km/h (1 Bft) 100,00 %
12.11.2015 20:10 6,9 C 92 % 1028,0 hPa 0,0 l/m 0,3 km/h (0 Bft) O-SO 119 0 min 0,000 mm 0,0 UV-I 0 W/m 5,7 C 6,9 C 1,6 km/h (1 Bft) 100,00 %
12.11.2015 20:11 6,9 C 92 % 1028,0 hPa 0,0 l/m 0,3 km/h (0 Bft) O-SO 120 0 min 0,000 mm 0,0 UV-I 0 W/m 5,7 C 6,9 C 1,6 km/h (1 Bft) 100,00 %
12.11.2015 20:12 6,9 C 92 % 1028,0 hPa 0,0 l/m 2,2 km/h (1 Bft) O 101 0 min 0,000 mm 0,0 UV-I 0 W/m 5,7 C 6,9 C 4,8 km/h (1 Bft) 100,00 %
12.11.2015 20:13 7,0 C 92 % 1028,0 hPa 0,0 l/m 1,9 km/h (1 Bft) O 101 0 min 0,000 mm 0,0 UV-I 0 W/m 5,8 C 7,0 C 3,2 km/h (1 Bft) 92,86 %
12.11.2015 20:14 7,1 C 92 % 1028,0 hPa 0,0 l/m 0,5 km/h (0 Bft) O 101 0 min 0,000 mm 0,0 UV-I 0 W/m 5,9 C 7,1 C 1,6 km/h (1 Bft) 91,67 %
12.11.2015 20:15 7,1 C 92 % 1028,0 hPa 0,0 l/m 0,1 km/h (0 Bft) O 101 0 min 0,000 mm 0,0 UV-I 0 W/m 5,9 C 7,1 C 1,6 km/h (1 Bft) 100,00 %
12.11.2015 20:16 7,1 C 91 % 1028,1 hPa 0,0 l/m 0,1 km/h (0 Bft) O 101 0 min 0,000 mm 0,0 UV-I 0 W/m 5,7 C 7,1 C 1,6 km/h (1 Bft) 100,00 %
12.11.2015 20:17 6,9 C 90 % 1028,0 hPa 0,0 l/m 0,1 km/h (0 Bft) O 101 0 min 0,000 mm 0,0 UV-I 0 W/m 5,4 C 6,9 C 1,6 km/h (1 Bft) 100,00 %
12.11.2015 20:18 6,8 C 90 % 1028,0 hPa 0,0 l/m 0,0 km/h (0 Bft) O 101 0 min 0,000 mm 0,0 UV-I 0 W/m 5,3 C 6,8 C 0,0 km/h (0 Bft) 100,00 %
12.11.2015 20:19 6,7 C 90 % 1027,9 hPa 0,0 l/m 0,0 km/h (0 Bft) O 101 0 min 0,000 mm 0,0 UV-I 0 W/m 5,2 C 6,7 C 0,0 km/h (0 Bft) 95,65 %
12.11.2015 20:20 6,5 C 90 % 1027,9 hPa 0,0 l/m 0,0 km/h (0 Bft) O 101 0 min 0,000 mm 0,0 UV-I 0 W/m 5,0 C 6,5 C 0,0 km/h (0 Bft) 100,00 %
12.11.2015 20:21 6,4 C 91 % 1027,9 hPa 0,0 l/m 0,0 km/h (0 Bft) O 101 0 min 0,000 mm 0,0 UV-I 0 W/m 5,0 C 6,4 C 0,0 km/h (0 Bft) 100,00 %
12.11.2015 20:22 6,2 C 91 % 1027,9 hPa 0,0 l/m 0,0 km/h (0 Bft) O 101 0 min 0,000 mm 0,0 UV-I 0 W/m 4,8 C 6,2 C 0,0 km/h (0 Bft) 96,15 %
12.11.2015 20:23 6,0 C 91 % 1027,9 hPa 0,0 l/m 0,0 km/h (0 Bft) O 101 0 min 0,000 mm 0,0 UV-I 0 W/m 4,6 C 6,0 C 0,0 km/h (0 Bft) 100,00 %
12.11.2015 20:24 5,9 C 92 % 1027,9 hPa 0,0 l/m 0,0 km/h (0 Bft) O 101 0 min 0,000 mm 0,0 UV-I 0 W/m 4,7 C 5,9 C 0,0 km/h (0 Bft) 100,00 %
12.11.2015 20:25 5,8 C 92 % 1027,9 hPa 0,0 l/m 0,0 km/h (0 Bft) O 101 0 min 0,000 mm 0,0 UV-I 0 W/m 4,6 C 5,8 C 0,0 km/h (0 Bft) 95,65 %
12.11.2015 20:26 5,7 C 92 % 1027,9 hPa 0,0 l/m 0,0 km/h (0 Bft) O 101 0 min 0,000 mm 0,0 UV-I 0 W/m 4,5 C 5,7 C 0,0 km/h (0 Bft) 100,00 %
12.11.2015 20:27 5,7 C 93 % 1027,9 hPa 0,0 l/m 0,0 km/h (0 Bft) O 101 0 min 0,000 mm 0,0 UV-I 0 W/m 4,7 C 5,7 C 0,0 km/h (0 Bft) 100,00 %
12.11.2015 20:28 5,6 C 93 % 1027,9 hPa 0,0 l/m 0,0 km/h (0 Bft) O 101 0 min 0,000 mm 0,0 UV-I 0 W/m 4,6 C 5,6 C 0,0 km/h (0 Bft) 100,00 %
12.11.2015 20:29 5,6 C 93 % 1027,9 hPa 0,0 l/m 0,0 km/h (0 Bft) O 101 0 min 0,000 mm 0,0 UV-I 0 W/m 4,6 C 5,6 C 0,0 km/h (0 Bft) 100,00 %
12.11.2015 20:30 5,6 C 93 % 1027,9 hPa 0,0 l/m 0,0 km/h (0 Bft) O 101 0 min 0,000 mm 0,0 UV-I 0 W/m 4,6 C 5,6 C 0,0 km/h (0 Bft) 100,00 %
12.11.2015 20:31 5,5 C 93 % 1027,9 hPa 0,0 l/m 0,0 km/h (0 Bft) O 101 0 min 0,000 mm 0,0 UV-I 0 W/m 4,5 C 5,5 C 0,0 km/h (0 Bft) 100,00 %
12.11.2015 20:32 5,4 C 93 % 1027,8 hPa 0,0 l/m 0,0 km/h (0 Bft) O 101 0 min 0,000 mm 0,0 UV-I 0 W/m 4,4 C 5,4 C 0,0 km/h (0 Bft) 100,00 %
12.11.2015 20:33 5,4 C 93 % 1027,8 hPa 0,0 l/m 0,0 km/h (0 Bft) O 101 0 min 0,000 mm 0,0 UV-I 0 W/m 4,4 C 5,4 C 0,0 km/h (0 Bft) 95,83 %
12.11.2015 20:34 5,4 C 93 % 1027,8 hPa 0,0 l/m 0,0 km/h (0 Bft) O 101 0 min 0,000 mm 0,0 UV-I 0 W/m 4,4 C 5,4 C 0,0 km/h (0 Bft) 100,00 %
12.11.2015 20:35 5,3 C 93 % 1027,8 hPa 0,0 l/m 0,0 km/h (0 Bft) O 101 0 min 0,000 mm 0,0 UV-I 0 W/m 4,3 C 5,3 C 0,0 km/h (0 Bft) 100,00 %
12.11.2015 20:36 5,3 C 94 % 1027,8 hPa 0,0 l/m 0,0 km/h (0 Bft) O 101 0 min 0,000 mm 0,0 UV-I 0 W/m 4,4 C 5,3 C 0,0 km/h (0 Bft) 100,00 %
12.11.2015 20:37 5,3 C 94 % 1027,8 hPa 0,0 l/m 0,0 km/h (0 Bft) O 101 0 min 0,000 mm 0,0 UV-I 0 W/m 4,4 C 5,3 C 0,0 km/h (0 Bft) 100,00 %
12.11.2015 20:38 5,3 C 94 % 1027,8 hPa 0,0 l/m 0,0 km/h (0 Bft) O 101 0 min 0,000 mm 0,0 UV-I 0 W/m 4,4 C 5,3 C 0,0 km/h (0 Bft) 95,65 %
12.11.2015 20:39 5,3 C 95 % 1027,8 hPa 0,0 l/m 0,0 km/h (0 Bft) O 101 0 min 0,000 mm 0,0 UV-I 0 W/m 4,6 C 5,3 C 0,0 km/h (0 Bft) 100,00 %
12.11.2015 20:40 5,3 C 94 % 1027,8 hPa 0,0 l/m 0,0 km/h (0 Bft) O 101 0 min 0,000 mm 0,0 UV-I 0 W/m 4,4 C 5,3 C 0,0 km/h (0 Bft) 100,00 %
12.11.2015 20:41 5,3 C 94 % 1027,8 hPa 0,0 l/m 0,1 km/h (0 Bft) O 101 0 min 0,000 mm 0,0 UV-I 0 W/m 4,4 C 5,3 C 1,6 km/h (1 Bft) 100,00 %
12.11.2015 20:42 5,4 C 94 % 1027,8 hPa 0,0 l/m 0,0 km/h (0 Bft) O 101 0 min 0,000 mm 0,0 UV-I 0 W/m 4,5 C 5,4 C 0,0 km/h (0 Bft) 100,00 %
12.11.2015 20:43 5,4 C 95 % 1027,8 hPa 0,0 l/m 0,1 km/h (0 Bft) O 101 0 min 0,000 mm 0,0 UV-I 0 W/m 4,7 C 5,4 C 1,6 km/h (1 Bft) 100,00 %
12.11.2015 20:44 5,5 C 95 % 1027,8 hPa 0,0 l/m 0,0 km/h (0 Bft) O 101 0 min 0,000 mm 0,0 UV-I 0 W/m 4,8 C 5,5 C 0,0 km/h (0 Bft) 100,00 %
12.11.2015 20:45 5,5 C 95 % 1027,7 hPa 0,0 l/m 0,2 km/h (0 Bft) O 101 0 min 0,000 mm 0,0 UV-I 0 W/m 4,8 C 5,5 C 1,6 km/h (1 Bft) 100,00 %
12.11.2015 20:46 5,5 C 95 % 1027,8 hPa 0,0 l/m 1,1 km/h (1 Bft) O 101 0 min 0,000 mm 0,0 UV-I 0 W/m 4,8 C 5,5 C 1,6 km/h (1 Bft) 100,00 %
12.11.2015 20:47 5,5 C 95 % 1027,8 hPa 0,0 l/m 0,6 km/h (0 Bft) O 101 0 min 0,000 mm 0,0 UV-I 0 W/m 4,8 C 5,5 C 1,6 km/h (1 Bft) 95,65 %
12.11.2015 20:48 5,4 C 95 % 1027,8 hPa 0,0 l/m 0,8 km/h (0 Bft) O 101 0 min 0,000 mm 0,0 UV-I 0 W/m 4,7 C 5,4 C 1,6 km/h (1 Bft) 100,00 %
12.11.2015 20:49 5,4 C 94 % 1027,7 hPa 0,0 l/m 1,3 km/h (1 Bft) O 98 0 min 0,000 mm 0,0 UV-I 0 W/m 4,5 C 5,4 C 1,6 km/h (1 Bft) 96,55 %
12.11.2015 20:50 5,4 C 94 % 1027,7 hPa 0,0 l/m 0,8 km/h (0 Bft) O-NO 78 0 min 0,000 mm 0,0 UV-I 0 W/m 4,5 C 5,4 C 1,6 km/h (1 Bft) 100,00 %
12.11.2015 20:51 5,3 C 94 % 1027,8 hPa 0,0 l/m 0,9 km/h (0 Bft) O-NO 69 0 min 0,000 mm 0,0 UV-I 0 W/m 4,4 C 5,3 C 1,6 km/h (1 Bft) 100,00 %
12.11.2015 20:52 5,3 C 95 % 1027,7 hPa 0,0 l/m 0,6 km/h (0 Bft) O-NO 69 0 min 0,000 mm 0,0 UV-I 0 W/m 4,6 C 5,3 C 1,6 km/h (1 Bft) 100,00 %
12.11.2015 20:53 5,4 C 95 % 1027,8 hPa 0,0 l/m 1,0 km/h (0 Bft) O-NO 69 0 min 0,000 mm 0,0 UV-I 0 W/m 4,7 C 5,4 C 1,6 km/h (1 Bft) 100,00 %
12.11.2015 20:54 5,4 C 95 % 1027,7 hPa 0,0 l/m 0,7 km/h (0 Bft) O-NO 69 0 min 0,000 mm 0,0 UV-I 0 W/m 4,7 C 5,4 C 1,6 km/h (1 Bft) 100,00 %
12.11.2015 20:55 5,5 C 95 % 1027,7 hPa 0,0 l/m 1,1 km/h (1 Bft) O-NO 72 0 min 0,000 mm 0,0 UV-I 0 W/m 4,8 C 5,5 C 3,2 km/h (1 Bft) 100,00 %
12.11.2015 20:56 5,6 C 95 % 1027,7 hPa 0,0 l/m 1,1 km/h (1 Bft) O-NO 72 0 min 0,000 mm 0,0 UV-I 0 W/m 4,9 C 5,6 C 3,2 km/h (1 Bft) 100,00 %
12.11.2015 20:57 5,6 C 96 % 1027,7 hPa 0,0 l/m 0,5 km/h (0 Bft) O-NO 72 0 min 0,000 mm 0,0 UV-I 0 W/m 5,0 C 5,6 C 1,6 km/h (1 Bft) 100,00 %
12.11.2015 20:58 5,7 C 96 % 1027,7 hPa 0,0 l/m 0,4 km/h (0 Bft) O-NO 72 0 min 0,000 mm 0,0 UV-I 0 W/m 5,1 C 5,7 C 1,6 km/h (1 Bft) 100,00 %
12.11.2015 20:59 5,7 C 96 % 1027,7 hPa 0,0 l/m 0,0 km/h (0 Bft) O-NO 72 0 min 0,000 mm 0,0 UV-I 0 W/m 5,1 C 5,7 C 0,0 km/h (0 Bft) 95,65 %
12.11.2015 21:00 5,7 C 95 % 1027,7 hPa 0,0 l/m 0,0 km/h (0 Bft) O-NO 72 0 min 0,000 mm 0,0 UV-I 0 W/m 5,0 C 5,7 C 0,0 km/h (0 Bft) 100,00 %
12.11.2015 21:01 5,6 C 94 % 1027,6 hPa 0,0 l/m 0,0 km/h (0 Bft) O-NO 72 0 min 0,000 mm 0,0 UV-I 0 W/m 4,7 C 5,6 C 0,0 km/h (0 Bft) 100,00 %
12.11.2015 21:02 5,4 C 94 % 1027,7 hPa 0,0 l/m 0,0 km/h (0 Bft) O-NO 72 0 min 0,000 mm 0,0 UV-I 0 W/m 4,5 C 5,4 C 0,0 km/h (0 Bft) 100,00 %
12.11.2015 21:03 5,4 C 94 % 1027,7 hPa 0,0 l/m 0,0 km/h (0 Bft) O-NO 72 0 min 0,000 mm 0,0 UV-I 0 W/m 4,5 C 5,4 C 0,0 km/h (0 Bft) 100,00 %
12.11.2015 21:04 5,3 C 94 % 1027,7 hPa 0,0 l/m 0,0 km/h (0 Bft) O-NO 72 0 min 0,000 mm 0,0 UV-I 0 W/m 4,4 C 5,3 C 0,0 km/h (0 Bft) 100,00 %
12.11.2015 21:05 5,3 C 94 % 1027,8 hPa 0,0 l/m 0,0 km/h (0 Bft) O-NO 72 0 min 0,000 mm 0,0 UV-I 0 W/m 4,4 C 5,3 C 0,0 km/h (0 Bft) 100,00 %
12.11.2015 21:06 5,3 C 94 % 1027,7 hPa 0,0 l/m 0,0 km/h (0 Bft) O-NO 72 0 min 0,000 mm 0,0 UV-I 0 W/m 4,4 C 5,3 C 0,0 km/h (0 Bft) 100,00 %
12.11.2015 21:07 5,2 C 95 % 1027,7 hPa 0,0 l/m 0,0 km/h (0 Bft) O-NO 72 0 min 0,000 mm 0,0 UV-I 0 W/m 4,5 C 5,2 C 0,0 km/h (0 Bft) 100,00 %
12.11.2015 21:08 5,2 C 95 % 1027,7 hPa 0,0 l/m 0,0 km/h (0 Bft) O-NO 72 0 min 0,000 mm 0,0 UV-I 0 W/m 4,5 C 5,2 C 0,0 km/h (0 Bft) 100,00 %
12.11.2015 21:09 5,2 C 95 % 1027,7 hPa 0,0 l/m 0,0 km/h (0 Bft) O-NO 72 0 min 0,000 mm 0,0 UV-I 0 W/m 4,5 C 5,2 C 0,0 km/h (0 Bft) 100,00 %
12.11.2015 21:10 5,2 C 95 % 1027,7 hPa 0,0 l/m 0,0 km/h (0 Bft) O-NO 72 0 min 0,000 mm 0,0 UV-I 0 W/m 4,5 C 5,2 C 0,0 km/h (0 Bft) 95,65 %
12.11.2015 21:11 5,1 C 95 % 1027,7 hPa 0,0 l/m 0,0 km/h (0 Bft) O-NO 72 0 min 0,000 mm 0,0 UV-I 0 W/m 4,4 C 5,1 C 0,0 km/h (0 Bft) 95,83 %
12.11.2015 21:12 5,1 C 95 % 1027,7 hPa 0,0 l/m 0,0 km/h (0 Bft) O-NO 72 0 min 0,000 mm 0,0 UV-I 0 W/m 4,4 C 5,1 C 0,0 km/h (0 Bft) 95,65 %
12.11.2015 21:13 5,1 C 95 % 1027,7 hPa 0,0 l/m 0,0 km/h (0 Bft) O-NO 72 0 min 0,000 mm 0,0 UV-I 0 W/m 4,4 C 5,1 C 0,0 km/h (0 Bft) 96,30 %
12.11.2015 21:14 5,1 C 95 % 1027,7 hPa 0,0 l/m 0,1 km/h (0 Bft) O-NO 72 0 min 0,000 mm 0,0 UV-I 0 W/m 4,4 C 5,1 C 1,6 km/h (1 Bft) 100,00 %
12.11.2015 21:15 5,0 C 95 % 1027,7 hPa 0,0 l/m 0,7 km/h (0 Bft) O-NO 69 0 min 0,000 mm 0,0 UV-I 0 W/m 4,3 C 5,0 C 3,2 km/h (1 Bft) 100,00 %
12.11.2015 21:16 5,1 C 95 % 1027,7 hPa 0,0 l/m 0,4 km/h (0 Bft) O-NO 69 0 min 0,000 mm 0,0 UV-I 0 W/m 4,4 C 5,1 C 1,6 km/h (1 Bft) 100,00 %
12.11.2015 21:17 5,1 C 96 % 1027,7 hPa 0,0 l/m 0,3 km/h (0 Bft) O-NO 69 0 min 0,000 mm 0,0 UV-I 0 W/m 4,5 C 5,1 C 1,6 km/h (1 Bft) 100,00 %
12.11.2015 21:18 5,2 C 96 % 1027,7 hPa 0,0 l/m 0,1 km/h (0 Bft) O-NO 69 0 min 0,000 mm 0,0 UV-I 0 W/m 4,6 C 5,2 C 1,6 km/h (1 Bft) 100,00 %
12.11.2015 21:19 5,2 C 96 % 1027,6 hPa 0,0 l/m 1,1 km/h (1 Bft) O-NO 69 0 min 0,000 mm 0,0 UV-I 0 W/m 4,6 C 5,2 C 1,6 km/h (1 Bft) 100,00 %
12.11.2015 21:20 5,3 C 96 % 1027,7 hPa 0,0 l/m 2,3 km/h (1 Bft) O-NO 70 0 min 0,000 mm 0,0 UV-I 0 W/m 4,7 C 5,3 C 3,2 km/h (1 Bft) 91,67 %
12.11.2015 21:21 5,5 C 97 % 1027,7 hPa 0,0 l/m 2,3 km/h (1 Bft) O-NO 71 0 min 0,000 mm 0,0 UV-I 0 W/m 5,1 C 5,5 C 3,2 km/h (1 Bft) 100,00 %
12.11.2015 21:22 5,6 C 97 % 1027,7 hPa 0,0 l/m 0,4 km/h (0 Bft) O-NO 71 0 min 0,000 mm 0,0 UV-I 0 W/m 5,2 C 5,6 C 1,6 km/h (1 Bft) 100,00 %
12.11.2015 21:23 5,6 C 96 % 1027,7 hPa 0,0 l/m 0,1 km/h (0 Bft) O-NO 71 0 min 0,000 mm 0,0 UV-I 0 W/m 5,0 C 5,6 C 1,6 km/h (1 Bft) 100,00 %
12.11.2015 21:24 5,6 C 96 % 1027,7 hPa 0,0 l/m 1,0 km/h (0 Bft) O-NO 70 0 min 0,000 mm 0,0 UV-I 0 W/m 5,0 C 5,6 C 3,2 km/h (1 Bft) 100,00 %
12.11.2015 21:25 5,6 C 96 % 1027,7 hPa 0,0 l/m 1,0 km/h (0 Bft) O-NO 69 0 min 0,000 mm 0,0 UV-I 0 W/m 5,0 C 5,6 C 1,6 km/h (1 Bft) 100,00 %
12.11.2015 21:26 5,5 C 95 % 1027,7 hPa 0,0 l/m 0,3 km/h (0 Bft) O-NO 70 0 min 0,000 mm 0,0 UV-I 0 W/m 4,8 C 5,5 C 1,6 km/h (1 Bft) 100,00 %
12.11.2015 21:27 5,5 C 96 % 1027,7 hPa 0,0 l/m 1,4 km/h (1 Bft) O-NO 70 0 min 0,000 mm 0,0 UV-I 0 W/m 4,9 C 5,5 C 3,2 km/h (1 Bft) 100,00 %
12.11.2015 21:28 5,5 C 96 % 1027,6 hPa 0,0 l/m 1,8 km/h (1 Bft) O-NO 71 0 min 0,000 mm 0,0 UV-I 0 W/m 4,9 C 5,5 C 3,2 km/h (1 Bft) 95,83 %
12.11.2015 21:29 5,5 C 96 % 1027,7 hPa 0,0 l/m 2,3 km/h (1 Bft) O-NO 72 0 min 0,000 mm 0,0 UV-I 0 W/m 4,9 C 5,5 C 3,2 km/h (1 Bft) 100,00 %
12.11.2015 21:30 5,5 C 96 % 1027,6 hPa 0,0 l/m 2,0 km/h (1 Bft) O-NO 72 0 min 0,000 mm 0,0 UV-I 0 W/m 4,9 C 5,5 C 3,2 km/h (1 Bft) 95,83 %
12.11.2015 21:31 5,6 C 96 % 1027,7 hPa 0,0 l/m 2,2 km/h (1 Bft) O-NO 74 0 min 0,000 mm 0,0 UV-I 0 W/m 5,0 C 5,6 C 3,2 km/h (1 Bft) 100,00 %
12.11.2015 21:32 5,6 C 96 % 1027,7 hPa 0,0 l/m 2,0 km/h (1 Bft) O-NO 74 0 min 0,000 mm 0,0 UV-I 0 W/m 5,0 C 5,6 C 3,2 km/h (1 Bft) 100,00 %
12.11.2015 21:33 5,6 C 96 % 1027,6 hPa 0,0 l/m 2,1 km/h (1 Bft) O-NO 74 0 min 0,000 mm 0,0 UV-I 0 W/m 5,0 C 5,6 C 3,2 km/h (1 Bft) 95,65 %
12.11.2015 21:34 5,7 C 96 % 1027,6 hPa 0,0 l/m 1,6 km/h (1 Bft) O-NO 74 0 min 0,000 mm 0,0 UV-I 0 W/m 5,1 C 5,7 C 1,6 km/h (1 Bft) 100,00 %
12.11.2015 21:35 5,7 C 96 % 1027,6 hPa 0,0 l/m 1,5 km/h (1 Bft) O-NO 74 0 min 0,000 mm 0,0 UV-I 0 W/m 5,1 C 5,7 C 3,2 km/h (1 Bft) 100,00 %
12.11.2015 21:36 5,7 C 96 % 1027,6 hPa 0,0 l/m 2,1 km/h (1 Bft) O-NO 74 0 min 0,000 mm 0,0 UV-I 0 W/m 5,1 C 5,7 C 3,2 km/h (1 Bft) 100,00 %
12.11.2015 21:37 5,7 C 96 % 1027,5 hPa 0,0 l/m 2,0 km/h (1 Bft) O-NO 74 0 min 0,000 mm 0,0 UV-I 0 W/m 5,1 C 5,7 C 3,2 km/h (1 Bft) 100,00 %
12.11.2015 21:38 5,7 C 96 % 1027,5 hPa 0,0 l/m 2,7 km/h (1 Bft) O-NO 76 0 min 0,000 mm 0,0 UV-I 0 W/m 5,1 C 5,7 C 3,2 km/h (1 Bft) 100,00 %
12.11.2015 21:39 5,7 C 96 % 1027,5 hPa 0,0 l/m 1,6 km/h (1 Bft) O-NO 76 0 min 0,000 mm 0,0 UV-I 0 W/m 5,1 C 5,7 C 3,2 km/h (1 Bft) 100,00 %
12.11.2015 21:40 5,7 C 96 % 1027,5 hPa 0,0 l/m 1,1 km/h (1 Bft) O-NO 76 0 min 0,000 mm 0,0 UV-I 0 W/m 5,1 C 5,7 C 1,6 km/h (1 Bft) 100,00 %
12.11.2015 21:41 5,8 C 96 % 1027,5 hPa 0,0 l/m 0,8 km/h (0 Bft) O-NO 76 0 min 0,000 mm 0,0 UV-I 0 W/m 5,2 C 5,8 C 1,6 km/h (1 Bft) 100,00 %
12.11.2015 21:42 5,8 C 96 % 1027,5 hPa 0,0 l/m 0,9 km/h (0 Bft) O-NO 76 0 min 0,000 mm 0,0 UV-I 0 W/m 5,2 C 5,8 C 3,2 km/h (1 Bft) 100,00 %
12.11.2015 21:43 5,7 C 96 % 1027,5 hPa 0,0 l/m 1,0 km/h (0 Bft) O-NO 76 0 min 0,000 mm 0,0 UV-I 0 W/m 5,1 C 5,7 C 1,6 km/h (1 Bft) 96,15 %
12.11.2015 21:44 5,8 C 96 % 1027,4 hPa 0,0 l/m 1,7 km/h (1 Bft) O-NO 76 0 min 0,000 mm 0,0 UV-I 0 W/m 5,2 C 5,8 C 3,2 km/h (1 Bft) 100,00 %
12.11.2015 21:45 5,8 C 96 % 1027,5 hPa 0,0 l/m 1,4 km/h (1 Bft) O-NO 76 0 min 0,000 mm 0,0 UV-I 0 W/m 5,2 C 5,8 C 3,2 km/h (1 Bft) 100,00 %
12.11.2015 21:46 5,8 C 96 % 1027,4 hPa 0,0 l/m 1,1 km/h (1 Bft) O-NO 76 0 min 0,000 mm 0,0 UV-I 0 W/m 5,2 C 5,8 C 1,6 km/h (1 Bft) 100,00 %
12.11.2015 21:47 5,8 C 96 % 1027,5 hPa 0,0 l/m 0,1 km/h (0 Bft) O-NO 76 0 min 0,000 mm 0,0 UV-I 0 W/m 5,2 C 5,8 C 1,6 km/h (1 Bft) 100,00 %
12.11.2015 21:48 5,8 C 95 % 1027,4 hPa 0,0 l/m 0,0 km/h (0 Bft) O-NO 76 0 min 0,000 mm 0,0 UV-I 0 W/m 5,1 C 5,8 C 0,0 km/h (0 Bft) 100,00 %
12.11.2015 21:49 5,8 C 95 % 1027,3 hPa 0,0 l/m 0,0 km/h (0 Bft) O-NO 76 0 min 0,000 mm 0,0 UV-I 0 W/m 5,1 C 5,8 C 0,0 km/h (0 Bft) 100,00 %
12.11.2015 21:50 5,7 C 95 % 1027,4 hPa 0,0 l/m 0,0 km/h (0 Bft) O-NO 76 0 min 0,000 mm 0,0 UV-I 0 W/m 5,0 C 5,7 C 0,0 km/h (0 Bft) 100,00 %
12.11.2015 21:51 5,7 C 95 % 1027,4 hPa 0,0 l/m 0,0 km/h (0 Bft) O-NO 76 0 min 0,000 mm 0,0 UV-I 0 W/m 5,0 C 5,7 C 0,0 km/h (0 Bft) 95,83 %
12.11.2015 21:52 5,7 C 95 % 1027,4 hPa 0,0 l/m 0,3 km/h (0 Bft) O-NO 76 0 min 0,000 mm 0,0 UV-I 0 W/m 5,0 C 5,7 C 1,6 km/h (1 Bft) 100,00 %
12.11.2015 21:53 5,7 C 95 % 1027,3 hPa 0,0 l/m 0,7 km/h (0 Bft) O-NO 76 0 min 0,000 mm 0,0 UV-I 0 W/m 5,0 C 5,7 C 1,6 km/h (1 Bft) 100,00 %
12.11.2015 21:54 5,7 C 95 % 1027,4 hPa 0,0 l/m 1,4 km/h (1 Bft) O-NO 76 0 min 0,000 mm 0,0 UV-I 0 W/m 5,0 C 5,7 C 1,6 km/h (1 Bft) 100,00 %
12.11.2015 21:55 5,7 C 95 % 1027,4 hPa 0,0 l/m 1,7 km/h (1 Bft) O-NO 76 0 min 0,000 mm 0,0 UV-I 0 W/m 5,0 C 5,7 C 3,2 km/h (1 Bft) 100,00 %
12.11.2015 21:56 5,8 C 96 % 1027,4 hPa 0,0 l/m 2,2 km/h (1 Bft) O-NO 76 0 min 0,000 mm 0,0 UV-I 0 W/m 5,2 C 5,8 C 4,8 km/h (1 Bft) 100,00 %
12.11.2015 21:57 5,8 C 96 % 1027,4 hPa 0,0 l/m 2,3 km/h (1 Bft) O-NO 78 0 min 0,000 mm 0,0 UV-I 0 W/m 5,2 C 5,8 C 3,2 km/h (1 Bft) 100,00 %
12.11.2015 21:58 5,8 C 96 % 1027,5 hPa 0,0 l/m 1,9 km/h (1 Bft) O 84 0 min 0,000 mm 0,0 UV-I 0 W/m 5,2 C 5,8 C 3,2 km/h (1 Bft) 100,00 %
12.11.2015 21:59 5,8 C 96 % 1027,5 hPa 0,0 l/m 2,3 km/h (1 Bft) O 82 0 min 0,000 mm 0,0 UV-I 0 W/m 5,2 C 5,8 C 3,2 km/h (1 Bft) 100,00 %
12.11.2015 22:00 5,8 C 96 % 1027,4 hPa 0,0 l/m 1,9 km/h (1 Bft) O 95 0 min 0,000 mm 0,0 UV-I 0 W/m 5,2 C 5,8 C 3,2 km/h (1 Bft) 100,00 %
12.11.2015 22:01 5,8 C 95 % 1027,4 hPa 0,0 l/m 2,3 km/h (1 Bft) O-NO 77 0 min 0,000 mm 0,0 UV-I 0 W/m 5,1 C 5,8 C 4,8 km/h (1 Bft) 100,00 %
12.11.2015 22:02 5,8 C 95 % 1027,4 hPa 0,0 l/m 2,3 km/h (1 Bft) O 80 0 min 0,000 mm 0,0 UV-I 0 W/m 5,1 C 5,8 C 4,8 km/h (1 Bft) 100,00 %
12.11.2015 22:03 5,8 C 95 % 1027,4 hPa 0,0 l/m 2,3 km/h (1 Bft) O 95 0 min 0,000 mm 0,0 UV-I 0 W/m 5,1 C 5,8 C 4,8 km/h (1 Bft) 100,00 %
12.11.2015 22:04 5,8 C 95 % 1027,5 hPa 0,0 l/m 2,3 km/h (1 Bft) O 81 0 min 0,000 mm 0,0 UV-I 0 W/m 5,1 C 5,8 C 3,2 km/h (1 Bft) 96,30 %
12.11.2015 22:05 5,8 C 95 % 1027,4 hPa 0,0 l/m 1,1 km/h (1 Bft) O 81 0 min 0,000 mm 0,0 UV-I 0 W/m 5,1 C 5,8 C 3,2 km/h (1 Bft) 100,00 %
12.11.2015 22:06 5,8 C 95 % 1027,4 hPa 0,0 l/m 0,4 km/h (0 Bft) O 81 0 min 0,000 mm 0,0 UV-I 0 W/m 5,1 C 5,8 C 1,6 km/h (1 Bft) 100,00 %
12.11.2015 22:07 5,7 C 95 % 1027,4 hPa 0,0 l/m 1,1 km/h (1 Bft) O 84 0 min 0,000 mm 0,0 UV-I 0 W/m 5,0 C 5,7 C 3,2 km/h (1 Bft) 100,00 %
12.11.2015 22:08 5,7 C 95 % 1027,4 hPa 0,0 l/m 1,1 km/h (1 Bft) O 93 0 min 0,000 mm 0,0 UV-I 0 W/m 5,0 C 5,7 C 3,2 km/h (1 Bft) 100,00 %
12.11.2015 22:09 5,7 C 95 % 1027,4 hPa 0,0 l/m 0,4 km/h (0 Bft) O 93 0 min 0,000 mm 0,0 UV-I 0 W/m 5,0 C 5,7 C 1,6 km/h (1 Bft) 100,00 %
12.11.2015 22:10 5,7 C 95 % 1027,4 hPa 0,0 l/m 1,1 km/h (1 Bft) O 93 0 min 0,000 mm 0,0 UV-I 0 W/m 5,0 C 5,7 C 3,2 km/h (1 Bft) 100,00 %
12.11.2015 22:11 5,7 C 95 % 1027,3 hPa 0,0 l/m 1,8 km/h (1 Bft) O 93 0 min 0,000 mm 0,0 UV-I 0 W/m 5,0 C 5,7 C 3,2 km/h (1 Bft) 100,00 %
12.11.2015 22:12 5,8 C 95 % 1027,3 hPa 0,0 l/m 2,0 km/h (1 Bft) O 86 0 min 0,000 mm 0,0 UV-I 0 W/m 5,1 C 5,8 C 3,2 km/h (1 Bft) 96,30 %
12.11.2015 22:13 5,8 C 96 % 1027,3 hPa 0,0 l/m 1,0 km/h (0 Bft) O 86 0 min 0,000 mm 0,0 UV-I 0 W/m 5,2 C 5,8 C 1,6 km/h (1 Bft) 95,65 %
12.11.2015 22:14 5,8 C 95 % 1027,3 hPa 0,0 l/m 2,3 km/h (1 Bft) O 90 0 min 0,000 mm 0,0 UV-I 0 W/m 5,1 C 5,8 C 4,8 km/h (1 Bft) 100,00 %
12.11.2015 22:15 5,7 C 95 % 1027,3 hPa 0,0 l/m 2,5 km/h (1 Bft) O-SO 105 0 min 0,000 mm 0,0 UV-I 0 W/m 5,0 C 5,7 C 4,8 km/h (1 Bft) 100,00 %
12.11.2015 22:16 5,8 C 96 % 1027,3 hPa 0,0 l/m 2,3 km/h (1 Bft) O-NO 66 0 min 0,000 mm 0,0 UV-I 0 W/m 5,2 C 5,8 C 3,2 km/h (1 Bft) 100,00 %
12.11.2015 22:17 5,8 C 96 % 1027,2 hPa 0,0 l/m 2,5 km/h (1 Bft) O 88 0 min 0,000 mm 0,0 UV-I 0 W/m 5,2 C 5,8 C 4,8 km/h (1 Bft) 100,00 %
12.11.2015 22:18 5,8 C 96 % 1027,3 hPa 0,0 l/m 1,9 km/h (1 Bft) O-NO 74 0 min 0,000 mm 0,0 UV-I 0 W/m 5,2 C 5,8 C 3,2 km/h (1 Bft) 100,00 %
12.11.2015 22:19 5,8 C 96 % 1027,2 hPa 0,0 l/m 1,9 km/h (1 Bft) O-NO 77 0 min 0,000 mm 0,0 UV-I 0 W/m 5,2 C 5,8 C 3,2 km/h (1 Bft) 100,00 %
12.11.2015 22:20 5,8 C 96 % 1027,2 hPa 0,0 l/m 2,0 km/h (1 Bft) O-NO 77 0 min 0,000 mm 0,0 UV-I 0 W/m 5,2 C 5,8 C 3,2 km/h (1 Bft) 100,00 %
12.11.2015 22:21 5,8 C 96 % 1027,2 hPa 0,0 l/m 1,5 km/h (1 Bft) O-NO 78 0 min 0,000 mm 0,0 UV-I 0 W/m 5,2 C 5,8 C 3,2 km/h (1 Bft) 100,00 %
12.11.2015 22:22 5,8 C 95 % 1027,2 hPa 0,0 l/m 0,5 km/h (0 Bft) O-NO 78 0 min 0,000 mm 0,0 UV-I 0 W/m 5,1 C 5,8 C 1,6 km/h (1 Bft) 100,00 %
12.11.2015 22:23 5,8 C 95 % 1027,2 hPa 0,0 l/m 2,7 km/h (1 Bft) O 88 0 min 0,000 mm 0,0 UV-I 0 W/m 5,1 C 5,8 C 3,2 km/h (1 Bft) 100,00 %
12.11.2015 22:24 5,8 C 95 % 1027,2 hPa 0,0 l/m 0,8 km/h (0 Bft) O 88 0 min 0,000 mm 0,0 UV-I 0 W/m 5,1 C 5,8 C 1,6 km/h (1 Bft) 100,00 %
12.11.2015 22:25 5,8 C 95 % 1027,2 hPa 0,0 l/m 2,7 km/h (1 Bft) O 91 0 min 0,000 mm 0,0 UV-I 0 W/m 5,1 C 5,8 C 4,8 km/h (1 Bft) 100,00 %
12.11.2015 22:26 5,8 C 95 % 1027,1 hPa 0,0 l/m 3,7 km/h (1 Bft) O 83 0 min 0,000 mm 0,0 UV-I 0 W/m 5,1 C 5,8 C 6,4 km/h (2 Bft) 100,00 %
12.11.2015 22:27 5,8 C 96 % 1027,2 hPa 0,0 l/m 2,2 km/h (1 Bft) O 86 0 min 0,000 mm 0,0 UV-I 0 W/m 5,2 C 5,8 C 3,2 km/h (1 Bft) 100,00 %
12.11.2015 22:28 5,8 C 96 % 1027,1 hPa 0,0 l/m 2,3 km/h (1 Bft) O-NO 76 0 min 0,000 mm 0,0 UV-I 0 W/m 5,2 C 5,8 C 4,8 km/h (1 Bft) 100,00 %
12.11.2015 22:29 5,8 C 96 % 1027,1 hPa 0,0 l/m 3,7 km/h (1 Bft) NO 49 0 min 0,000 mm 0,0 UV-I 0 W/m 5,2 C 5,8 C 4,8 km/h (1 Bft) 100,00 %
12.11.2015 22:30 5,8 C 96 % 1027,1 hPa 0,0 l/m 3,7 km/h (1 Bft) O 92 0 min 0,000 mm 0,0 UV-I 0 W/m 5,2 C 5,8 C 4,8 km/h (1 Bft) 100,00 %
12.11.2015 22:31 5,8 C 96 % 1027,1 hPa 0,0 l/m 2,2 km/h (1 Bft) O 80 0 min 0,000 mm 0,0 UV-I 0 W/m 5,2 C 5,8 C 3,2 km/h (1 Bft) 100,00 %
12.11.2015 22:32 5,8 C 96 % 1027,1 hPa 0,0 l/m 1,9 km/h (1 Bft) O 80 0 min 0,000 mm 0,0 UV-I 0 W/m 5,2 C 5,8 C 3,2 km/h (1 Bft) 95,65 %
12.11.2015 22:33 5,8 C 96 % 1027,1 hPa 0,0 l/m 1,7 km/h (1 Bft) O 80 0 min 0,000 mm 0,0 UV-I 0 W/m 5,2 C 5,8 C 3,2 km/h (1 Bft) 100,00 %
12.11.2015 22:34 5,8 C 96 % 1027,0 hPa 0,0 l/m 2,7 km/h (1 Bft) O-NO 77 0 min 0,000 mm 0,0 UV-I 0 W/m 5,2 C 5,8 C 4,8 km/h (1 Bft) 100,00 %
12.11.2015 22:35 5,7 C 96 % 1027,1 hPa 0,0 l/m 1,8 km/h (1 Bft) O-SO 108 0 min 0,000 mm 0,0 UV-I 0 W/m 5,1 C 5,7 C 3,2 km/h (1 Bft) 95,83 %
12.11.2015 22:36 5,7 C 95 % 1027,0 hPa 0,0 l/m 2,4 km/h (1 Bft) O-NO 78 0 min 0,000 mm 0,0 UV-I 0 W/m 5,0 C 5,7 C 4,8 km/h (1 Bft) 100,00 %
12.11.2015 22:37 5,7 C 96 % 1027,0 hPa 0,0 l/m 0,2 km/h (0 Bft) O 84 0 min 0,000 mm 0,0 UV-I 0 W/m 5,1 C 5,7 C 1,6 km/h (1 Bft) 100,00 %
12.11.2015 22:38 5,7 C 95 % 1027,0 hPa 0,0 l/m 1,2 km/h (1 Bft) O 84 0 min 0,000 mm 0,0 UV-I 0 W/m 5,0 C 5,7 C 1,6 km/h (1 Bft) 100,00 %
12.11.2015 22:39 5,7 C 95 % 1027,0 hPa 0,0 l/m 2,0 km/h (1 Bft) O 80 0 min 0,000 mm 0,0 UV-I 0 W/m 5,0 C 5,7 C 3,2 km/h (1 Bft) 100,00 %
12.11.2015 22:40 5,7 C 95 % 1027,0 hPa 0,0 l/m 2,3 km/h (1 Bft) O-NO 78 0 min 0,000 mm 0,0 UV-I 0 W/m 5,0 C 5,7 C 3,2 km/h (1 Bft) 100,00 %
12.11.2015 22:41 5,7 C 95 % 1027,0 hPa 0,0 l/m 3,3 km/h (1 Bft) O 81 0 min 0,000 mm 0,0 UV-I 0 W/m 5,0 C 5,7 C 4,8 km/h (1 Bft) 100,00 %
12.11.2015 22:42 5,7 C 95 % 1027,0 hPa 0,0 l/m 4,0 km/h (1 Bft) O-NO 76 0 min 0,000 mm 0,0 UV-I 0 W/m 5,0 C 5,7 C 6,4 km/h (2 Bft) 96,15 %
12.11.2015 22:43 5,7 C 96 % 1027,0 hPa 0,0 l/m 2,5 km/h (1 Bft) O-NO 68 0 min 0,000 mm 0,0 UV-I 0 W/m 5,1 C 5,7 C 6,4 km/h (2 Bft) 100,00 %
12.11.2015 22:44 5,7 C 96 % 1027,0 hPa 0,0 l/m 2,7 km/h (1 Bft) O 88 0 min 0,000 mm 0,0 UV-I 0 W/m 5,1 C 5,7 C 4,8 km/h (1 Bft) 100,00 %
12.11.2015 22:45 5,7 C 96 % 1026,9 hPa 0,0 l/m 1,6 km/h (1 Bft) O 88 0 min 0,000 mm 0,0 UV-I 0 W/m 5,1 C 5,7 C 3,2 km/h (1 Bft) 100,00 %
12.11.2015 22:46 5,7 C 96 % 1026,9 hPa 0,0 l/m 2,9 km/h (1 Bft) O 82 0 min 0,000 mm 0,0 UV-I 0 W/m 5,1 C 5,7 C 3,2 km/h (1 Bft) 100,00 %
12.11.2015 22:47 5,7 C 96 % 1026,9 hPa 0,0 l/m 2,3 km/h (1 Bft) O-NO 77 0 min 0,000 mm 0,0 UV-I 0 W/m 5,1 C 5,7 C 4,8 km/h (1 Bft) 100,00 %
12.11.2015 22:48 5,7 C 96 % 1026,9 hPa 0,0 l/m 2,2 km/h (1 Bft) O-NO 78 0 min 0,000 mm 0,0 UV-I 0 W/m 5,1 C 5,7 C 3,2 km/h (1 Bft) 100,00 %
12.11.2015 22:49 5,7 C 96 % 1026,9 hPa 0,0 l/m 1,2 km/h (1 Bft) O-NO 78 0 min 0,000 mm 0,0 UV-I 0 W/m 5,1 C 5,7 C 1,6 km/h (1 Bft) 100,00 %
12.11.2015 22:50 5,7 C 96 % 1026,9 hPa 0,0 l/m 1,5 km/h (1 Bft) O 83 0 min 0,000 mm 0,0 UV-I 0 W/m 5,1 C 5,7 C 3,2 km/h (1 Bft) 100,00 %
12.11.2015 22:51 5,6 C 96 % 1026,9 hPa 0,0 l/m 2,3 km/h (1 Bft) O 91 0 min 0,000 mm 0,0 UV-I 0 W/m 5,0 C 5,6 C 3,2 km/h (1 Bft) 100,00 %
12.11.2015 22:52 5,6 C 96 % 1026,9 hPa 0,0 l/m 1,4 km/h (1 Bft) O 89 0 min 0,000 mm 0,0 UV-I 0 W/m 5,0 C 5,6 C 1,6 km/h (1 Bft) 100,00 %
12.11.2015 22:53 5,6 C 96 % 1026,9 hPa 0,0 l/m 1,5 km/h (1 Bft) O 82 0 min 0,000 mm 0,0 UV-I 0 W/m 5,0 C 5,6 C 3,2 km/h (1 Bft) 100,00 %
12.11.2015 22:54 5,6 C 96 % 1026,9 hPa 0,0 l/m 1,1 km/h (1 Bft) O 82 0 min 0,000 mm 0,0 UV-I 0 W/m 5,0 C 5,6 C 3,2 km/h (1 Bft) 100,00 %
12.11.2015 22:55 5,6 C 96 % 1026,9 hPa 0,0 l/m 1,8 km/h (1 Bft) O-NO 74 0 min 0,000 mm 0,0 UV-I 0 W/m 5,0 C 5,6 C 3,2 km/h (1 Bft) 100,00 %
12.11.2015 22:56 5,6 C 96 % 1026,8 hPa 0,0 l/m 1,1 km/h (1 Bft) O-NO 74 0 min 0,000 mm 0,0 UV-I 0 W/m 5,0 C 5,6 C 1,6 km/h (1 Bft) 100,00 %
12.11.2015 22:57 5,6 C 96 % 1026,8 hPa 0,0 l/m 1,5 km/h (1 Bft) O 96 0 min 0,000 mm 0,0 UV-I 0 W/m 5,0 C 5,6 C 3,2 km/h (1 Bft) 100,00 %
12.11.2015 22:58 5,6 C 96 % 1026,8 hPa 0,0 l/m 1,7 km/h (1 Bft) O 92 0 min 0,000 mm 0,0 UV-I 0 W/m 5,0 C 5,6 C 3,2 km/h (1 Bft) 100,00 %
12.11.2015 22:59 5,6 C 96 % 1026,8 hPa 0,0 l/m 2,2 km/h (1 Bft) O-SO 111 0 min 0,000 mm 0,0 UV-I 0 W/m 5,0 C 5,6 C 3,2 km/h (1 Bft) 100,00 %
12.11.2015 23:00 5,5 C 96 % 1026,8 hPa 0,0 l/m 0,3 km/h (0 Bft) O-SO 111 0 min 0,000 mm 0,0 UV-I 0 W/m 4,9 C 5,5 C 1,6 km/h (1 Bft) 100,00 %
12.11.2015 23:01 5,5 C 96 % 1026,8 hPa 0,0 l/m 1,4 km/h (1 Bft) O-SO 103 0 min 0,000 mm 0,0 UV-I 0 W/m 4,9 C 5,5 C 3,2 km/h (1 Bft) 100,00 %
12.11.2015 23:02 5,4 C 96 % 1026,8 hPa 0,0 l/m 0,3 km/h (0 Bft) O-SO 103 0 min 0,000 mm 0,0 UV-I 0 W/m 4,8 C 5,4 C 1,6 km/h (1 Bft) 100,00 %
12.11.2015 23:03 5,4 C 96 % 1026,8 hPa 0,0 l/m 0,6 km/h (0 Bft) O-SO 103 0 min 0,000 mm 0,0 UV-I 0 W/m 4,8 C 5,4 C 1,6 km/h (1 Bft) 100,00 %
12.11.2015 23:04 5,4 C 96 % 1026,8 hPa 0,0 l/m 0,9 km/h (0 Bft) O-SO 103 0 min 0,000 mm 0,0 UV-I 0 W/m 4,8 C 5,4 C 1,6 km/h (1 Bft) 100,00 %
12.11.2015 23:05 5,3 C 95 % 1026,7 hPa 0,0 l/m 0,0 km/h (0 Bft) O-SO 103 0 min 0,000 mm 0,0 UV-I 0 W/m 4,6 C 5,3 C 0,0 km/h (0 Bft) 100,00 %
12.11.2015 23:06 5,2 C 95 % 1026,7 hPa 0,0 l/m 0,0 km/h (0 Bft) O-SO 103 0 min 0,000 mm 0,0 UV-I 0 W/m 4,5 C 5,2 C 0,0 km/h (0 Bft) 100,00 %
12.11.2015 23:07 5,1 C 94 % 1026,7 hPa 0,0 l/m 0,0 km/h (0 Bft) O-SO 103 0 min 0,000 mm 0,0 UV-I 0 W/m 4,2 C 5,1 C 0,0 km/h (0 Bft) 100,00 %
12.11.2015 23:08 4,9 C 95 % 1026,7 hPa 0,0 l/m 0,0 km/h (0 Bft) O-SO 103 0 min 0,000 mm 0,0 UV-I 0 W/m 4,2 C 4,9 C 0,0 km/h (0 Bft) 100,00 %
12.11.2015 23:09 4,9 C 95 % 1026,7 hPa 0,0 l/m 0,0 km/h (0 Bft) O-SO 103 0 min 0,000 mm 0,0 UV-I 0 W/m 4,2 C 4,9 C 0,0 km/h (0 Bft) 100,00 %
12.11.2015 23:10 4,9 C 95 % 1026,7 hPa 0,0 l/m 0,0 km/h (0 Bft) O-SO 103 0 min 0,000 mm 0,0 UV-I 0 W/m 4,2 C 4,9 C 0,0 km/h (0 Bft) 100,00 %
12.11.2015 23:11 4,9 C 96 % 1026,7 hPa 0,0 l/m 0,3 km/h (0 Bft) O-SO 103 0 min 0,000 mm 0,0 UV-I 0 W/m 4,3 C 4,9 C 1,6 km/h (1 Bft) 95,83 %
12.11.2015 23:12 4,9 C 96 % 1026,7 hPa 0,0 l/m 0,3 km/h (0 Bft) O-SO 103 0 min 0,000 mm 0,0 UV-I 0 W/m 4,3 C 4,9 C 1,6 km/h (1 Bft) 100,00 %
12.11.2015 23:13 4,9 C 96 % 1026,8 hPa 0,0 l/m 0,2 km/h (0 Bft) O-SO 103 0 min 0,000 mm 0,0 UV-I 0 W/m 4,3 C 4,9 C 1,6 km/h (1 Bft) 100,00 %
12.11.2015 23:14 4,9 C 96 % 1026,8 hPa 0,0 l/m 0,4 km/h (0 Bft) O-SO 103 0 min 0,000 mm 0,0 UV-I 0 W/m 4,3 C 4,9 C 1,6 km/h (1 Bft) 100,00 %
12.11.2015 23:15 4,8 C 96 % 1026,8 hPa 0,0 l/m 0,2 km/h (0 Bft) O-SO 103 0 min 0,000 mm 0,0 UV-I 0 W/m 4,2 C 4,8 C 1,6 km/h (1 Bft) 97,22 %
12.11.2015 23:16 4,8 C 96 % 1026,8 hPa 0,0 l/m 0,1 km/h (0 Bft) O-SO 103 0 min 0,000 mm 0,0 UV-I 0 W/m 4,2 C 4,8 C 1,6 km/h (1 Bft) 100,00 %
12.11.2015 23:17 4,7 C 96 % 1026,8 hPa 0,0 l/m 0,2 km/h (0 Bft) O-SO 103 0 min 0,000 mm 0,0 UV-I 0 W/m 4,1 C 4,7 C 1,6 km/h (1 Bft) 100,00 %
12.11.2015 23:18 4,6 C 95 % 1026,8 hPa 0,0 l/m 0,7 km/h (0 Bft) O-SO 103 0 min 0,000 mm 0,0 UV-I 0 W/m 3,9 C 4,6 C 1,6 km/h (1 Bft) 100,00 %
12.11.2015 23:19 4,6 C 96 % 1026,8 hPa 0,0 l/m 0,9 km/h (0 Bft) O 81 0 min 0,000 mm 0,0 UV-I 0 W/m 4,0 C 4,6 C 1,6 km/h (1 Bft) 100,00 %
12.11.2015 23:20 4,4 C 96 % 1026,8 hPa 0,0 l/m 1,1 km/h (1 Bft) O 80 0 min 0,000 mm 0,0 UV-I 0 W/m 3,8 C 4,4 C 1,6 km/h (1 Bft) 100,00 %
12.11.2015 23:21 4,3 C 95 % 1026,8 hPa 0,0 l/m 0,8 km/h (0 Bft) O-NO 68 0 min 0,000 mm 0,0 UV-I 0 W/m 3,6 C 4,3 C 1,6 km/h (1 Bft) 100,00 %
12.11.2015 23:22 4,3 C 96 % 1026,8 hPa 0,0 l/m 0,8 km/h (0 Bft) NO 42 0 min 0,000 mm 0,0 UV-I 0 W/m 3,7 C 4,3 C 1,6 km/h (1 Bft) 100,00 %
12.11.2015 23:23 4,2 C 96 % 1026,8 hPa 0,0 l/m 0,9 km/h (0 Bft) NO 42 0 min 0,000 mm 0,0 UV-I 0 W/m 3,6 C 4,2 C 1,6 km/h (1 Bft) 96,15 %
12.11.2015 23:24 4,2 C 96 % 1026,8 hPa 0,0 l/m 0,3 km/h (0 Bft) NO 44 0 min 0,000 mm 0,0 UV-I 0 W/m 3,6 C 4,2 C 1,6 km/h (1 Bft) 100,00 %
12.11.2015 23:25 4,2 C 96 % 1026,8 hPa 0,0 l/m 0,1 km/h (0 Bft) NO 44 0 min 0,000 mm 0,0 UV-I 0 W/m 3,6 C 4,2 C 1,6 km/h (1 Bft) 100,00 %
12.11.2015 23:26 4,1 C 96 % 1026,8 hPa 0,0 l/m 0,3 km/h (0 Bft) NO 44 0 min 0,000 mm 0,0 UV-I 0 W/m 3,5 C 4,1 C 1,6 km/h (1 Bft) 100,00 %
12.11.2015 23:27 4,1 C 96 % 1026,8 hPa 0,0 l/m 0,1 km/h (0 Bft) NO 44 0 min 0,000 mm 0,0 UV-I 0 W/m 3,5 C 4,1 C 1,6 km/h (1 Bft) 100,00 %
12.11.2015 23:28 4,1 C 96 % 1026,8 hPa 0,0 l/m 0,1 km/h (0 Bft) O 86 0 min 0,000 mm 0,0 UV-I 0 W/m 3,5 C 4,1 C 1,6 km/h (1 Bft) 100,00 %
12.11.2015 23:29 4,1 C 97 % 1026,7 hPa 0,0 l/m 0,5 km/h (0 Bft) O 86 0 min 0,000 mm 0,0 UV-I 0 W/m 3,7 C 4,1 C 1,6 km/h (1 Bft) 100,00 %
12.11.2015 23:30 4,1 C 97 % 1026,7 hPa 0,0 l/m 0,6 km/h (0 Bft) O 86 0 min 0,000 mm 0,0 UV-I 0 W/m 3,7 C 4,1 C 1,6 km/h (1 Bft) 100,00 %
12.11.2015 23:31 4,2 C 97 % 1026,7 hPa 0,0 l/m 0,1 km/h (0 Bft) O 86 0 min 0,000 mm 0,0 UV-I 0 W/m 3,8 C 4,2 C 1,6 km/h (1 Bft) 100,00 %
12.11.2015 23:32 4,1 C 97 % 1026,7 hPa 0,0 l/m 0,1 km/h (0 Bft) O 86 0 min 0,000 mm 0,0 UV-I 0 W/m 3,7 C 4,1 C 1,6 km/h (1 Bft) 100,00 %
12.11.2015 23:33 4,2 C 97 % 1026,7 hPa 0,0 l/m 0,1 km/h (0 Bft) O 86 0 min 0,000 mm 0,0 UV-I 0 W/m 3,8 C 4,2 C 1,6 km/h (1 Bft) 100,00 %
12.11.2015 23:34 4,2 C 97 % 1026,7 hPa 0,0 l/m 0,3 km/h (0 Bft) O 86 0 min 0,000 mm 0,0 UV-I 0 W/m 3,8 C 4,2 C 1,6 km/h (1 Bft) 100,00 %
12.11.2015 23:35 4,2 C 97 % 1026,7 hPa 0,0 l/m 0,1 km/h (0 Bft) O 86 0 min 0,000 mm 0,0 UV-I 0 W/m 3,8 C 4,2 C 1,6 km/h (1 Bft) 100,00 %
12.11.2015 23:36 4,2 C 97 % 1026,7 hPa 0,0 l/m 0,0 km/h (0 Bft) O 86 0 min 0,000 mm 0,0 UV-I 0 W/m 3,8 C 4,2 C 0,0 km/h (0 Bft) 100,00 %
12.11.2015 23:37 4,2 C 97 % 1026,7 hPa 0,0 l/m 0,0 km/h (0 Bft) O 86 0 min 0,000 mm 0,0 UV-I 0 W/m 3,8 C 4,2 C 0,0 km/h (0 Bft) 95,65 %
12.11.2015 23:38 4,2 C 97 % 1026,7 hPa 0,0 l/m 0,0 km/h (0 Bft) O 86 0 min 0,000 mm 0,0 UV-I 0 W/m 3,8 C 4,2 C 0,0 km/h (0 Bft) 100,00 %
12.11.2015 23:39 4,2 C 97 % 1026,6 hPa 0,0 l/m 0,1 km/h (0 Bft) O 86 0 min 0,000 mm 0,0 UV-I 0 W/m 3,8 C 4,2 C 1,6 km/h (1 Bft) 100,00 %
12.11.2015 23:40 4,2 C 97 % 1026,7 hPa 0,0 l/m 0,0 km/h (0 Bft) O 86 0 min 0,000 mm 0,0 UV-I 0 W/m 3,8 C 4,2 C 0,0 km/h (0 Bft) 100,00 %
12.11.2015 23:41 4,2 C 97 % 1026,7 hPa 0,0 l/m 0,0 km/h (0 Bft) O 86 0 min 0,000 mm 0,0 UV-I 0 W/m 3,8 C 4,2 C 0,0 km/h (0 Bft) 100,00 %
12.11.2015 23:42 4,3 C 97 % 1026,7 hPa 0,0 l/m 0,0 km/h (0 Bft) O 86 0 min 0,000 mm 0,0 UV-I 0 W/m 3,9 C 4,3 C 0,0 km/h (0 Bft) 100,00 %
12.11.2015 23:43 4,3 C 97 % 1026,7 hPa 0,0 l/m 0,0 km/h (0 Bft) O 86 0 min 0,000 mm 0,0 UV-I 0 W/m 3,9 C 4,3 C 0,0 km/h (0 Bft) 100,00 %
12.11.2015 23:44 4,3 C 97 % 1026,7 hPa 0,0 l/m 0,0 km/h (0 Bft) O 86 0 min 0,000 mm 0,0 UV-I 0 W/m 3,9 C 4,3 C 0,0 km/h (0 Bft) 100,00 %
12.11.2015 23:45 4,3 C 97 % 1026,7 hPa 0,0 l/m 0,0 km/h (0 Bft) O 86 0 min 0,000 mm 0,0 UV-I 0 W/m 3,9 C 4,3 C 0,0 km/h (0 Bft) 100,00 %
12.11.2015 23:46 4,3 C 97 % 1026,7 hPa 0,0 l/m 0,0 km/h (0 Bft) O 86 0 min 0,000 mm 0,0 UV-I 0 W/m 3,9 C 4,3 C 0,0 km/h (0 Bft) 100,00 %
12.11.2015 23:47 4,3 C 97 % 1026,7 hPa 0,0 l/m 0,0 km/h (0 Bft) O 86 0 min 0,000 mm 0,0 UV-I 0 W/m 3,9 C 4,3 C 0,0 km/h (0 Bft) 95,83 %
12.11.2015 23:48 4,3 C 97 % 1026,7 hPa 0,0 l/m 0,7 km/h (0 Bft) O 86 0 min 0,000 mm 0,0 UV-I 0 W/m 3,9 C 4,3 C 1,6 km/h (1 Bft) 100,00 %
12.11.2015 23:49 4,3 C 97 % 1026,7 hPa 0,0 l/m 0,2 km/h (0 Bft) O 86 0 min 0,000 mm 0,0 UV-I 0 W/m 3,9 C 4,3 C 1,6 km/h (1 Bft) 100,00 %
12.11.2015 23:50 4,3 C 97 % 1026,7 hPa 0,0 l/m 2,4 km/h (1 Bft) O 79 0 min 0,000 mm 0,0 UV-I 0 W/m 3,9 C 4,3 C 3,2 km/h (1 Bft) 100,00 %
12.11.2015 23:51 4,3 C 97 % 1026,7 hPa 0,0 l/m 1,5 km/h (1 Bft) O 79 0 min 0,000 mm 0,0 UV-I 0 W/m 3,9 C 4,3 C 3,2 km/h (1 Bft) 100,00 %
12.11.2015 23:52 4,4 C 97 % 1026,7 hPa 0,0 l/m 1,3 km/h (1 Bft) O-NO 78 0 min 0,000 mm 0,0 UV-I 0 W/m 4,0 C 4,4 C 1,6 km/h (1 Bft) 100,00 %
12.11.2015 23:53 4,4 C 97 % 1026,7 hPa 0,0 l/m 2,1 km/h (1 Bft) O-NO 76 0 min 0,000 mm 0,0 UV-I 0 W/m 4,0 C 4,4 C 3,2 km/h (1 Bft) 100,00 %
12.11.2015 23:54 4,4 C 97 % 1026,6 hPa 0,0 l/m 2,4 km/h (1 Bft) O 84 0 min 0,000 mm 0,0 UV-I 0 W/m 4,0 C 4,4 C 3,2 km/h (1 Bft) 100,00 %
12.11.2015 23:55 4,4 C 97 % 1026,6 hPa 0,0 l/m 1,9 km/h (1 Bft) O-SO 103 0 min 0,000 mm 0,0 UV-I 0 W/m 4,0 C 4,4 C 3,2 km/h (1 Bft) 95,83 %
12.11.2015 23:56 4,4 C 97 % 1026,6 hPa 0,0 l/m 2,2 km/h (1 Bft) O 94 0 min 0,000 mm 0,0 UV-I 0 W/m 4,0 C 4,4 C 3,2 km/h (1 Bft) 100,00 %
12.11.2015 23:57 4,4 C 97 % 1026,6 hPa 0,0 l/m 1,9 km/h (1 Bft) O-NO 61 0 min 0,000 mm 0,0 UV-I 0 W/m 4,0 C 4,4 C 3,2 km/h (1 Bft) 100,00 %
12.11.2015 23:58 4,4 C 97 % 1026,6 hPa 0,0 l/m 2,8 km/h (1 Bft) O-NO 69 0 min 0,000 mm 0,0 UV-I 0 W/m 4,0 C 4,4 C 3,2 km/h (1 Bft) 92,86 %
12.11.2015 23:59 4,4 C 97 % 1026,6 hPa 0,0 l/m 1,9 km/h (1 Bft) O 80 0 min 0,000 mm 0,0 UV-I 0 W/m 4,0 C 4,4 C 3,2 km/h (1 Bft) 95,83 %
_ Min-Zeit 05:27 13:43 00:50 - 00:36 - - - - - - 05:27 05:27 00:36 02:01
Minimum _ 3,8 C 72 % 1024,8 hPa - 0,0 km/h (0 Bft) - - - - - - 3,2 C 3,8 C 0,0 km/h (0 Bft) 83,33 %
_ Max-Zeit 13:39 05:14 10:41 00:00 12:29 - - 07:17 14:00 11:48 12:09 13:59 13:39 12:29 00:00
Maximum _ 12,6 C 97 % 1029,5 hPa 0,0 l/m 10,9 km/h
SW (2 Bft)
- - 1 min 0,178 mm 1,2 UV-I 441 W/m 8,9 C 12,6 C 16,1 km/h
SW (3 Bft)
100,00 %
Durchschnitt _ 7,3 C 90 % 1027,4 hPa #0,0 l/m 2,0 km/h (1 Bft) S-SW - #3:38 h #0,737 mm 0,8 UV-I 148 W/m 5,7 C 7,3 C 3,4 km/h (1 Bft) 99,27 %